GFSWCAN_850_spd_000.txt.gz
Wind_Speed
27 33 30 31 30 28 26 23 21 20 19 17 15 12 11 10 10 10 10 8 9 5 7 5 7 7 6 5 4 4 3 1 4 3 3 4 4 5 1 4 5 5 3 5 2 3 8 5 4 3 9 16 30 34
15 29 33 32 32 31 29 27 25 22 20 18 17 15 13 11 10 10 10 10 9 7 5 8 11 14 15 12 7 6 4 5 8 3 2 2 3 2 4 5 2 3 7 5 8 7 5 7 22 25 24 33 29 18
11 14 28 37 31 31 33 29 28 26 24 22 21 18 16 14 12 11 11 9 8 8 14 19 18 18 17 16 13 8 9 13 10 15 7 4 4 3 5 5 3 4 10 6 7 8 17 26 41 39 31 22 14 14
8 12 12 24 34 32 29 32 27 28 26 25 24 22 20 18 16 16 14 12 12 4 4 12 17 23 25 19 17 18 23 21 21 19 10 3 3 12 5 5 7 9 8 5 13 22 32 29 28 23 20 9 12 8
5 9 5 9 16 22 28 29 25 28 25 26 26 22 21 22 19 18 18 18 16 11 3 5 10 9 8 9 11 13 15 20 25 17 6 4 6 5 5 2 4 12 14 7 14 27 22 27 18 15 12 9 5 12
8 8 8 13 11 12 16 21 26 23 25 28 26 24 25 23 21 18 12 23 23 21 6 1 9 18 21 22 24 27 27 24 26 12 7 9 22 11 3 4 9 19 24 34 28 35 31 22 10 12 10 9 9 15
8 7 7 9 12 15 15 16 20 23 25 25 26 24 23 23 23 22 6 4 11 22 4 6 5 5 13 17 19 21 23 21 17 17 9 12 14 10 2 11 36 27 28 35 33 31 17 5 7 11 12 13 15 23
7 5 5 5 6 8 12 13 14 15 18 20 21 22 21 20 23 28 29 23 20 14 7 3 2 4 3 2 3 4 4 5 8 7 3 4 4 6 4 22 24 27 27 20 10 2 2 5 5 11 16 19 19 19
10 7 6 6 5 5 6 5 8 12 12 14 17 19 20 21 14 19 21 19 24 15 5 5 4 3 6 6 4 2 3 2 4 2 3 3 1 5 8 16 22 26 17 8 5 7 3 9 14 18 21 20 19 24
12 9 6 5 5 4 6 7 6 8 12 14 16 9 5 5 10 7 6 7 13 10 9 6 5 3 9 9 3 1 1 2 2 3 3 2 5 21 33 35 35 26 6 3 10 7 2 9 17 22 24 24 24 27
12 11 8 7 7 8 9 10 10 15 19 15 8 5 10 16 8 6 5 6 5 2 5 5 14 3 6 3 2 4 1 0 2 4 3 2 3 9 15 9 4 4 3 7 5 5 8 14 20 23 26 25 25 26
13 14 12 10 9 10 10 12 13 15 8 6 7 14 13 4 3 1 2 2 3 4 6 5 4 3 4 4 3 4 2 1 5 2 0 3 3 16 5 6 5 5 4 2 13 20 18 19 26 25 23 24 24 23
14 15 16 13 11 9 11 14 12 11 12 12 4 5 4 3 3 5 6 3 3 3 7 6 3 3 4 3 3 2 3 5 0 0 3 4 9 11 8 8 10 11 16 21 23 21 22 24 29 24 24 21 20 23
15 17 18 16 14 10 12 11 12 14 6 3 5 3 4 3 3 3 3 3 3 4 9 11 6 3 2 2 2 3 4 2 2 3 5 2 11 13 14 15 19 20 20 20 21 23 27 29 32 29 29 28 26 28
17 16 17 16 16 13 12 14 16 10 3 3 4 3 4 3 3 3 4 6 7 12 11 7 4 2 1 2 1 2 3 3 4 4 3 6 9 13 14 16 16 22 27 28 27 29 32 35 35 32 30 33 30 31
21 18 18 22 20 15 15 16 15 12 2 2 3 2 3 5 4 4 4 5 8 11 10 3 2 3 3 3 2 6 5 6 4 3 5 10 14 15 16 19 22 31 31 30 31 32 34 35 36 31 32 34 30 31
24 17 22 24 21 17 16 15 9 5 3 3 2 4 5 2 5 7 9 9 11 9 2 3 4 10 1 2 2 4 5 4 4 13 19 16 16 23 30 31 28 28 31 32 33 34 34 34 32 34 35 31 29 28
24 21 19 16 18 18 14 5 5 5 3 4 3 6 11 3 5 6 9 10 13 8 4 3 1 2 5 5 4 4 6 15 26 27 28 27 32 34 31 28 30 33 34 36 35 33 32 32 31 33 29 25 28 27
17 15 16 19 21 14 5 5 3 3 3 3 5 6 6 7 10 9 7 13 16 11 5 3 1 4 4 7 9 22 23 18 19 31 38 35 31 29 28 31 33 33 32 32 32 32 32 31 34 29 26 25 30 24
17 15 17 22 21 5 4 4 5 3 3 2 5 9 7 5 8 10 13 15 13 8 7 4 6 13 15 25 26 24 29 33 32 33 36 33 30 30 32 32 32 33 33 34 31 31 34 35 29 24 21 25 23 14
23 26 21 21 9 4 3 5 4 3 2 2 2 10 3 8 13 14 11 12 12 6 5 17 28 33 34 36 35 35 34 28 29 30 31 33 36 35 33 30 32 31 35 31 32 30 29 30 28 24 23 19 13 11
27 27 18 14 3 3 3 5 2 2 3 1 1 4 3 4 7 8 9 13 9 18 25 33 36 36 36 34 30 27 26 27 28 30 31 29 29 27 30 30 30 31 28 25 24 29 30 29 24 20 15 10 7 8
26 21 8 5 2 3 2 7 4 3 2 3 2 2 4 4 5 7 6 9 12 24 28 31 32 31 32 31 31 29 28 27 26 25 23 23 24 24 27 31 28 22 22 23 25 26 27 23 22 18 13 10 9 8
16 9 5 7 4 3 4 5 4 3 4 3 2 3 4 7 6 7 4 7 22 28 30 32 33 35 34 33 32 27 21 20 20 18 19 23 26 28 31 30 26 23 20 22 24 24 16 15 10 4 1 5 9 11
6 5 5 4 5 5 4 1 3 2 4 4 3 4 5 6 2 3 4 21 33 31 24 19 19 20 24 23 21 18 13 10 13 19 23 24 26 30 34 31 29 27 19 17 22 21 22 15 11 10 9 9 10 11
3 9 10 11 7 6 7 5 5 7 4 3 6 5 4 3 1 5 4 17 18 19 17 11 9 11 12 14 16 11 10 15 20 26 28 27 27 27 28 28 29 27 20 16 21 19 19 16 14 12 12 12 11 10
4 6 7 9 7 7 3 6 5 4 5 6 3 2 3 3 6 6 17 19 20 13 7 7 8 11 16 17 18 21 24 27 27 30 32 29 23 18 18 20 23 22 20 18 18 17 17 17 15 15 15 14 13 13
8 6 7 12 9 13 4 2 4 6 5 8 5 4 7 8 6 17 20 16 17 23 23 25 28 30 30 28 26 27 28 29 29 30 30 26 17 11 14 19 21 24 26 24 21 18 18 19 19 18 17 18 17 15
6 6 10 10 10 7 10 10 9 11 18 17 7 5 13 28 30 31 32 33 36 41 39 37 34 27 24 23 23 25 26 23 21 23 21 20 18 14 18 20 18 18 17 17 17 18 18 18 20 22 22 21 20 18
6 15 7 8 7 7 17 19 23 25 25 26 28 30 31 34 37 36 38 37 33 32 32 33 30 26 24 23 22 20 15 15 14 15 18 18 18 19 18 15 14 14 14 13 12 12 13 14 15 15 16 16 16 16
5 10 8 13 11 26 30 31 31 30 32 34 34 32 33 37 36 30 27 27 27 25 25 23 19 18 18 17 12 12 14 15 13 12 14 15 14 13 13 11 11 11 10 10 10 11 12 11 9 7 4 3 5 7
7 7 7 5 17 26 25 25 27 26 28 29 29 32 30 22 17 16 18 17 15 14 14 10 8 8 9 11 13 13 12 11 13 12 9 9 10 10 10 10 10 11 11 11 11 10 9 8 7 8 10 11 9 8
11 15 19 15 9 5 11 14 8 9 17 23 24 27 26 15 4 2 4 5 5 7 8 10 10 11 9 8 7 7 7 7 6 6 7 8 9 10 11 11 11 11 12 11 12 12 13 13 12 12 10 9 10 9

GFSWCAN_850_spd_003.txt.gz
Wind_Speed
20 42 37 35 31 27 26 23 21 20 18 17 16 14 13 12 11 11 10 10 10 4 8 10 9 8 8 6 4 6 3 1 4 2 3 4 3 5 1 4 5 5 3 5 2 4 8 3 3 5 12 22 27 25
17 27 39 36 34 31 28 26 23 21 20 19 18 15 13 11 11 11 10 10 9 7 4 13 12 10 10 8 8 11 4 5 9 4 1 2 3 2 3 5 2 3 8 4 8 6 6 7 14 30 20 26 19 13
17 16 30 36 37 34 32 29 26 24 22 21 20 18 16 13 11 11 10 9 9 8 10 15 15 14 12 10 10 7 9 10 8 10 8 3 4 4 4 5 3 4 13 3 5 10 22 22 36 38 30 13 8 4
9 18 20 32 34 34 33 31 29 27 25 22 21 19 18 15 13 12 11 10 10 3 2 8 11 12 12 13 15 16 20 16 16 13 9 3 3 13 4 5 6 10 3 5 14 19 28 31 21 19 12 5 5 6
3 13 12 23 33 31 31 32 31 29 28 24 23 21 19 18 15 13 13 12 11 9 2 7 10 12 11 13 17 18 20 20 19 9 5 3 5 3 5 2 2 12 10 5 8 25 22 22 12 6 4 8 8 12
4 5 13 5 20 34 33 31 30 31 29 26 26 24 20 19 16 14 9 18 16 14 4 2 9 16 17 21 23 22 22 23 22 9 6 8 15 9 3 3 13 22 23 24 28 29 15 16 2 2 1 9 12 17
6 6 7 9 6 8 21 28 33 28 26 30 27 24 25 23 21 18 6 4 11 18 4 5 6 6 16 18 21 17 20 18 13 7 8 14 17 9 2 5 7 15 26 22 19 20 14 6 2 5 10 14 20 23
6 6 7 9 10 10 4 10 18 24 24 22 22 21 20 20 20 21 20 9 13 14 8 3 3 4 3 2 3 2 3 5 8 5 4 4 3 8 4 14 19 15 15 21 17 11 9 4 3 9 13 18 21 21
9 7 7 7 8 10 14 14 10 11 16 20 18 18 21 21 14 16 18 18 14 8 4 4 3 3 3 2 2 0 1 1 2 3 3 2 1 4 7 12 19 27 23 22 8 4 6 2 6 13 19 24 24 25
9 6 6 6 7 7 9 12 15 18 16 18 21 10 6 8 10 12 8 4 9 6 7 4 5 2 6 7 3 1 1 1 2 3 3 1 3 13 18 19 19 14 3 2 9 3 4 11 21 26 28 30 26 26
13 10 8 6 6 10 11 12 16 19 22 19 7 5 12 16 7 5 4 4 4 3 3 3 11 3 5 3 2 5 1 1 2 3 2 2 3 7 16 9 8 7 7 11 9 10 17 23 28 26 27 27 25 25
15 13 10 10 11 12 15 19 23 21 13 11 10 17 14 4 3 2 1 0 2 3 4 4 4 4 4 4 3 3 2 1 4 1 1 2 3 12 10 11 11 10 10 12 16 18 21 22 20 21 25 27 25 25
17 17 14 12 11 12 13 15 16 13 16 18 5 5 5 3 3 5 6 3 2 4 6 6 2 4 4 3 3 2 2 3 3 0 3 4 5 12 14 14 14 13 12 15 20 23 23 23 23 26 28 29 29 28
20 20 18 14 11 14 15 14 15 17 8 3 4 4 3 3 3 3 3 3 5 3 11 10 4 2 2 2 2 3 2 1 2 2 5 2 7 10 11 10 12 15 19 24 26 25 26 26 27 29 29 30 28 27
22 23 21 17 14 14 14 14 13 10 2 2 4 3 3 3 3 4 4 6 4 10 12 7 5 2 1 3 1 2 2 3 4 4 3 2 7 7 8 11 18 22 24 24 26 28 30 31 31 31 30 28 29 30
25 22 20 20 17 14 14 12 11 5 1 1 2 4 4 6 3 6 6 6 9 11 7 3 3 3 3 3 3 5 6 6 4 4 1 7 6 5 20 22 24 25 24 27 28 30 31 31 30 29 30 28 28 23
27 19 23 21 17 13 13 11 6 3 2 1 1 4 9 2 7 8 9 8 11 11 2 3 3 8 3 3 2 4 5 3 5 11 8 6 11 21 25 25 23 22 28 28 29 31 32 32 31 30 29 32 27 22
26 19 22 22 21 17 13 8 5 3 1 3 3 6 9 3 7 7 13 11 11 7 5 2 1 2 5 5 3 4 8 4 14 14 18 27 27 23 21 21 24 27 27 28 30 31 34 31 30 31 33 32 26 22
21 21 19 18 21 13 4 4 3 4 3 3 4 5 6 5 7 4 7 11 13 7 3 2 1 3 4 7 6 13 13 16 19 27 32 27 20 19 21 25 26 26 27 30 30 32 31 27 24 26 27 25 24 21
18 22 24 23 17 5 4 4 5 3 5 4 5 7 5 3 4 6 8 12 13 10 8 5 7 8 11 19 21 25 28 28 29 29 28 24 22 24 26 25 24 25 28 31 31 29 29 29 30 26 27 25 24 22
27 26 23 21 13 4 3 5 4 4 4 3 2 5 2 5 8 10 10 13 11 7 6 14 25 31 33 34 34 33 32 26 23 21 24 31 29 27 24 22 23 25 30 32 28 25 24 27 29 30 26 23 22 20
25 24 23 13 3 4 3 4 3 5 3 2 2 4 3 3 5 7 7 8 7 15 23 30 31 31 33 33 27 24 24 24 24 25 25 23 25 24 24 23 26 29 31 29 25 22 26 27 26 25 23 22 16 11
27 20 9 3 3 3 3 8 2 3 2 2 2 1 3 3 3 5 4 7 9 22 26 28 28 27 28 29 30 31 28 28 27 23 18 18 17 18 23 24 26 29 31 31 25 22 24 24 24 25 20 16 12 9
18 7 4 5 2 3 5 4 4 3 3 2 2 2 3 5 5 5 3 5 21 24 24 27 29 30 28 27 24 20 16 17 17 16 13 13 17 20 22 27 29 29 26 28 24 21 20 24 23 21 17 17 11 12
5 3 3 3 3 4 4 0 2 2 3 2 2 3 5 5 2 2 4 13 25 23 17 14 15 14 16 16 16 15 14 15 15 13 14 19 22 26 28 31 31 27 19 18 20 20 22 24 22 20 18 16 15 15
3 5 7 9 6 5 5 4 4 5 3 3 6 4 4 3 2 5 4 11 16 20 18 15 10 8 8 10 16 18 17 15 17 22 24 22 23 25 30 32 31 27 20 17 19 22 24 23 22 21 21 16 15 16
3 4 7 8 7 5 3 3 4 3 4 5 3 2 3 3 6 6 11 12 11 15 10 6 10 15 20 26 28 29 26 26 26 27 27 26 26 28 27 26 25 25 24 25 28 29 29 27 24 23 22 21 19 18
6 9 7 13 8 10 5 3 4 6 4 7 5 4 7 8 6 12 20 23 26 24 23 28 31 34 37 31 27 27 25 24 23 24 25 26 25 22 19 17 18 21 26 23 22 22 20 20 22 23 24 24 25 23
5 5 11 7 6 6 10 10 9 10 14 14 7 4 10 24 29 31 32 30 29 32 34 36 37 33 32 29 26 22 21 21 22 22 21 21 15 13 15 19 19 18 16 16 17 16 15 17 20 22 24 25 26 27
6 14 7 6 5 6 13 16 19 22 22 24 25 29 31 33 33 33 36 35 32 31 31 32 31 28 23 20 19 17 18 19 16 15 16 16 15 15 17 16 14 13 13 14 14 13 14 16 16 15 15 14 13 12
4 10 6 7 8 19 25 26 27 28 29 29 29 31 34 34 30 26 26 25 24 24 23 21 19 19 17 17 15 12 10 11 13 13 12 15 13 11 11 12 12 13 13 14 15 16 16 15 15 14 14 13 12 9
6 9 7 3 11 21 21 22 22 23 24 25 28 29 31 23 12 10 14 14 11 11 10 9 9 9 8 8 9 10 11 10 10 11 10 8 9 10 11 12 13 14 15 15 15 15 16 16 16 16 15 14 13 11
8 11 13 8 4 4 6 8 7 8 15 22 27 25 21 11 4 1 5 9 9 10 10 9 7 6 4 2 5 5 5 5 6 6 6 7 9 10 12 13 15 16 17 17 17 17 17 17 16 15 14 12 9 9

GFSWCAN_850_spd_006.txt.gz
Wind_Speed
9 27 35 30 28 24 23 22 20 18 16 15 13 11 10 10 10 9 8 7 6 3 5 8 7 7 7 6 4 6 4 0 4 3 3 3 2 5 1 4 4 4 3 4 2 3 8 3 2 1 10 21 23 28
13 7 29 36 32 28 25 24 22 20 18 16 15 13 11 11 11 10 8 8 7 4 2 9 9 8 8 5 7 10 2 4 7 4 1 3 3 2 4 3 1 4 7 3 7 6 7 4 17 33 25 22 18 7
9 16 12 38 34 35 29 26 24 22 20 18 16 15 12 11 10 10 9 8 6 4 6 8 8 10 11 10 11 6 6 7 6 7 9 3 3 3 4 5 3 4 6 4 3 7 15 24 34 23 13 10 7 5
5 13 15 19 37 32 32 30 27 25 22 20 18 17 15 12 10 9 8 8 7 3 1 4 8 8 11 12 12 14 17 12 10 7 5 3 3 10 3 4 5 8 3 4 6 19 21 20 12 15 10 12 17 7
7 2 16 19 27 38 35 34 31 28 24 22 20 18 16 14 12 11 10 10 10 8 2 3 7 12 14 14 14 16 18 19 15 5 4 3 4 3 4 0 3 10 5 4 13 19 13 18 8 11 9 5 5 12
6 5 1 11 19 33 35 39 32 30 27 25 22 21 18 16 13 11 5 14 15 11 3 1 5 8 8 12 14 19 20 18 15 7 5 6 13 6 3 3 11 13 21 27 16 21 17 16 6 1 3 9 12 17
4 6 9 2 3 23 33 34 34 32 30 28 24 23 19 16 15 14 5 3 13 16 3 3 6 3 8 12 15 18 20 18 14 7 7 10 18 10 2 6 4 22 16 18 14 14 6 3 3 8 9 13 16 20
0 4 9 8 2 3 10 30 32 31 28 29 26 21 20 21 20 20 18 7 9 11 6 2 3 3 2 1 2 3 4 5 6 4 3 3 3 5 3 7 10 11 16 12 12 7 2 11 6 7 12 21 25 26
5 3 3 3 2 2 3 7 18 31 32 26 25 25 22 22 16 18 17 19 16 8 5 5 4 3 3 2 2 2 2 1 3 2 2 2 1 3 3 15 18 18 12 8 5 11 10 7 13 20 23 24 23 27
6 6 6 4 5 6 5 3 7 11 19 27 25 12 8 11 9 10 10 10 7 5 6 5 7 2 7 7 2 1 2 1 1 1 3 1 2 2 13 11 10 11 12 11 12 9 12 20 24 25 24 19 22 27
9 7 7 2 3 5 8 14 12 12 17 18 7 4 14 20 9 5 4 4 3 1 4 5 11 3 7 2 2 4 2 2 1 3 1 1 2 3 8 13 15 13 10 10 10 12 16 19 22 25 27 26 27 27
13 7 6 5 8 11 13 16 24 27 16 9 5 16 13 3 4 3 3 2 2 4 5 5 4 3 3 3 2 2 2 1 3 3 0 2 2 6 8 8 8 9 10 13 16 19 22 23 23 23 26 28 29 30
17 14 8 7 10 14 19 23 20 12 13 15 5 4 2 2 2 5 6 2 2 5 7 7 3 4 4 3 4 2 2 3 2 1 3 3 5 5 7 7 8 10 15 20 21 21 21 22 23 25 29 30 29 30
20 20 17 11 11 13 15 13 19 22 5 3 4 4 3 2 2 2 2 3 3 4 11 11 6 2 2 3 2 3 0 1 1 2 5 2 3 4 4 5 11 18 22 22 21 22 25 26 29 30 30 29 28 29
22 22 19 16 15 15 16 16 16 11 2 3 2 3 2 2 2 4 6 7 5 7 12 7 6 3 2 3 2 2 1 3 4 4 3 4 4 4 4 14 20 23 22 21 21 26 27 28 29 33 34 31 29 26
26 22 21 18 19 17 15 13 9 4 3 2 3 4 4 3 3 5 6 7 8 13 8 4 3 3 1 3 3 5 5 5 3 3 3 2 5 6 17 21 21 20 19 21 26 26 27 30 31 34 35 30 30 29
30 20 26 21 18 17 15 13 6 2 2 3 2 4 8 3 9 8 7 7 9 8 2 3 3 6 4 2 2 4 5 4 9 4 2 4 14 22 23 23 21 20 23 25 26 26 29 30 32 32 29 27 26 28
27 24 26 21 20 17 14 6 4 3 3 3 3 5 10 3 7 10 12 10 9 7 6 2 5 2 4 5 3 4 8 6 5 6 9 18 21 21 18 19 19 23 25 25 24 27 29 29 29 27 27 27 28 27
27 23 25 21 20 12 5 4 3 3 2 3 4 4 6 3 4 2 8 13 12 7 5 3 2 3 4 7 6 3 2 7 17 22 26 23 19 17 17 20 22 24 23 23 24 28 30 25 22 25 27 28 28 27
21 22 23 20 17 5 4 3 4 3 3 4 4 5 3 2 5 8 9 10 11 7 6 3 7 5 6 9 12 18 20 21 25 28 28 25 18 19 21 20 21 21 23 24 27 29 28 26 20 24 28 27 26 26
25 20 19 19 11 5 4 4 3 3 3 3 4 5 2 5 6 8 9 12 9 5 6 11 17 22 25 27 28 28 26 22 22 19 23 28 27 24 21 19 18 20 22 26 30 32 27 25 24 22 27 28 26 23
26 27 22 14 4 3 4 3 4 6 3 3 4 4 2 2 4 5 8 8 6 9 18 27 28 27 27 25 20 19 21 23 25 27 26 26 28 24 20 18 19 23 24 27 29 29 29 27 22 21 26 27 23 20
24 18 7 4 3 3 3 7 2 3 3 2 2 0 1 2 2 5 3 6 8 15 19 21 22 21 22 23 25 25 21 22 24 22 21 19 19 20 18 17 20 23 27 30 26 26 25 23 18 21 25 26 23 19
17 5 3 3 3 3 5 3 2 2 2 2 2 2 3 3 4 2 3 4 13 19 19 19 19 20 18 16 15 14 13 14 17 18 18 18 18 17 18 24 24 24 27 28 25 23 21 21 21 24 23 24 23 21
6 2 2 3 3 4 3 2 1 2 3 1 2 3 3 4 1 2 4 5 14 11 9 11 12 14 15 11 4 6 13 19 21 22 20 17 20 24 25 26 27 27 26 24 21 21 23 24 25 25 24 23 23 24
4 2 3 7 5 4 5 4 4 5 3 2 6 3 3 3 1 6 4 6 6 6 10 13 14 11 8 7 14 22 27 26 25 27 30 25 29 29 28 28 29 30 25 21 21 23 26 29 28 25 24 25 24 24
3 4 6 7 6 5 3 3 4 3 4 5 3 3 3 2 6 6 6 5 4 11 16 17 17 18 21 25 28 31 31 28 26 27 28 29 25 22 23 23 23 24 21 20 22 24 23 23 23 23 24 24 25 25
3 10 7 11 7 6 4 3 4 6 4 6 6 4 7 8 5 4 10 16 23 25 26 24 22 25 28 31 31 31 29 28 24 22 21 20 22 23 19 17 16 18 22 23 20 16 16 16 18 19 21 23 25 24
3 5 10 6 5 5 9 10 8 8 8 12 7 4 9 18 22 24 29 31 33 32 31 31 30 28 30 30 30 25 23 21 18 19 19 19 14 10 10 14 18 20 17 14 12 12 12 15 17 18 18 19 21 21
7 13 7 7 6 6 9 13 13 17 18 20 23 25 27 27 27 29 30 30 28 27 25 24 25 25 24 24 21 19 18 16 16 16 14 13 13 13 15 14 13 12 13 13 13 13 13 14 15 15 16 18 19 19
3 13 4 7 6 11 19 21 22 22 24 27 28 29 31 26 21 18 17 16 17 18 19 18 17 15 14 13 11 9 8 8 8 10 12 12 13 11 10 11 13 14 14 15 15 16 16 17 17 18 19 19 19 17
6 10 7 3 6 12 14 18 15 16 21 23 27 28 26 17 8 7 11 12 12 11 11 12 12 10 9 8 6 6 7 8 8 8 8 7 8 9 10 12 13 14 16 17 18 19 19 19 19 18 17 16 14 12
4 7 7 6 4 3 3 4 4 5 9 10 15 9 4 0 3 6 7 13 13 15 15 11 7 6 4 2 3 4 5 6 7 7 7 8 9 10 12 14 16 17 18 17 16 15 14 14 14 13 13 12 11 10

GFSWCAN_850_spd_012.txt.gz
Wind_Speed
15 28 21 19 19 18 18 18 17 16 14 14 11 10 9 8 8 9 9 8 7 5 11 8 8 9 8 8 5 9 6 2 3 3 3 3 2 4 3 2 3 3 4 4 2 4 6 3 3 4 8 14 6 5
4 10 26 19 18 17 17 19 18 17 15 14 13 11 10 9 8 9 9 8 8 6 8 10 9 9 8 10 9 13 1 6 8 4 3 3 3 1 1 3 4 5 5 3 7 6 6 15 19 14 8 6 2 4
7 2 8 19 20 19 18 16 18 17 16 15 14 12 10 9 8 9 9 10 9 6 7 8 8 11 10 10 11 6 6 8 6 6 7 2 3 5 4 6 5 4 7 4 5 12 16 13 18 7 6 4 0 4
8 4 1 10 18 25 22 19 17 18 16 15 14 13 11 9 9 9 10 11 10 6 5 5 10 11 12 11 11 11 8 12 9 8 4 3 3 9 4 5 8 7 5 10 13 18 18 9 5 6 7 3 3 4
6 6 4 8 12 18 25 26 23 19 18 17 15 14 13 11 10 9 10 11 12 6 4 4 10 10 11 12 12 12 11 13 10 6 3 3 4 4 3 1 6 17 14 6 5 11 7 8 7 8 7 3 2 6
5 6 1 2 11 14 22 29 26 22 21 19 16 15 14 12 10 8 5 9 11 9 4 2 5 9 12 12 12 12 10 12 9 6 5 5 5 6 3 3 9 14 14 14 14 9 5 5 1 6 4 3 5 9
5 7 6 2 1 11 16 26 29 28 23 21 17 16 14 14 13 9 4 4 15 12 4 2 2 4 10 10 9 9 12 6 5 4 6 7 7 9 2 5 9 8 6 4 4 5 3 5 4 2 2 7 12 16
3 7 9 3 2 4 12 17 35 34 29 24 20 17 15 14 13 14 8 4 9 9 5 3 2 2 7 4 5 6 5 7 6 4 3 3 3 4 3 4 1 2 2 0 2 2 6 8 3 4 9 13 17 20
1 2 4 6 8 4 7 15 21 35 30 27 22 21 18 20 14 15 14 11 9 8 5 5 6 4 10 4 4 4 5 2 3 3 3 4 3 5 3 2 1 4 6 10 11 9 5 1 5 9 13 16 19 21
3 2 2 5 4 6 4 10 18 29 34 30 27 17 10 11 11 18 14 8 9 9 6 6 5 3 6 5 3 4 2 1 3 2 1 2 2 5 4 6 8 11 14 10 6 1 4 7 11 13 15 16 17 21
4 1 3 3 6 3 6 3 12 15 26 29 8 9 11 26 18 8 6 5 4 2 6 6 8 4 5 3 3 3 2 2 2 2 2 2 3 8 12 13 11 10 9 6 3 3 6 9 12 14 16 18 23 25
8 4 4 3 5 1 1 7 17 23 10 13 14 20 18 6 4 4 4 4 4 4 6 7 5 5 5 4 4 3 2 2 3 3 2 3 3 15 16 12 11 8 4 2 7 9 11 12 13 18 21 24 25 27
9 7 2 1 3 2 6 5 12 9 19 18 5 5 4 3 2 4 6 2 4 7 7 6 5 4 3 3 5 2 4 3 2 3 3 2 10 16 14 12 11 4 4 10 12 12 14 14 16 19 22 23 26 30
13 11 5 2 2 1 6 8 7 11 5 4 3 4 1 3 2 2 2 3 3 5 13 13 6 3 3 3 2 2 2 2 3 4 5 4 15 15 12 10 7 4 10 14 15 15 15 17 21 22 22 24 27 28
17 13 9 6 1 5 12 17 15 6 4 4 2 2 2 4 5 6 9 9 7 12 13 9 6 2 2 3 1 3 4 4 4 3 1 11 13 10 8 9 8 13 15 17 17 17 17 20 22 24 23 26 27 26
11 14 14 11 5 7 10 9 6 5 3 3 3 3 5 4 3 5 9 11 13 17 10 4 3 3 2 2 4 5 3 5 1 2 8 11 10 7 5 8 13 16 17 18 17 18 21 22 22 24 26 28 27 26
11 15 17 15 14 12 9 6 4 4 4 2 3 8 5 3 7 8 11 10 15 15 2 3 5 2 5 3 3 4 4 1 4 9 9 7 6 5 11 16 19 19 19 18 19 21 22 21 22 24 28 29 28 27
15 25 18 18 15 14 7 5 4 3 4 3 3 5 3 4 7 7 6 13 11 6 6 2 5 3 4 4 3 2 6 3 11 9 5 4 10 16 18 20 21 20 20 20 21 22 21 21 22 23 28 30 29 27
17 22 24 20 15 7 3 3 2 3 3 4 5 8 4 5 7 8 8 13 6 6 7 4 2 3 2 4 3 4 6 5 5 8 12 18 19 19 19 19 20 21 22 22 22 21 20 21 23 26 26 24 27 24
12 29 28 24 20 5 4 3 4 3 3 4 6 6 5 4 7 6 10 12 9 5 3 3 3 4 4 3 4 5 6 10 13 15 16 14 14 15 19 20 23 22 23 24 22 19 19 21 22 24 23 23 25 24
19 32 32 27 17 6 4 4 3 3 5 3 6 4 2 4 2 2 3 8 5 3 4 7 13 13 12 12 13 15 16 17 17 17 17 16 15 18 22 19 19 21 22 21 20 19 21 24 27 27 29 27 24 21
28 34 28 16 6 4 4 3 4 5 3 5 5 3 2 2 2 1 2 4 4 8 10 13 15 16 15 14 13 13 14 15 17 20 21 21 19 16 16 16 17 18 19 20 21 23 24 24 27 28 29 26 24 23
29 25 10 5 4 3 3 4 2 2 2 3 3 3 2 2 2 3 3 5 7 12 12 13 12 11 11 12 13 14 16 16 17 13 7 7 11 15 17 19 19 21 23 24 25 25 25 25 26 26 25 24 24 27
17 5 4 4 4 4 4 1 3 3 3 2 2 2 1 1 2 1 3 5 10 10 9 8 7 6 7 7 9 11 14 15 9 8 10 15 19 23 24 27 27 27 27 27 27 27 26 26 26 23 21 23 24 23
5 4 3 4 3 4 3 2 2 2 2 3 2 2 3 2 2 3 3 5 8 7 4 4 2 2 6 10 11 13 12 14 13 20 23 25 27 29 30 29 28 29 26 24 21 21 23 21 18 19 21 19 19 20
5 2 2 3 3 2 4 4 4 3 2 3 3 0 1 2 3 4 3 3 3 2 5 4 6 11 12 13 19 20 18 21 22 26 31 29 29 29 30 30 30 25 23 20 18 18 17 18 19 18 16 15 17 19
4 3 3 4 6 6 4 3 3 2 4 5 3 5 3 3 4 3 2 2 3 3 4 10 15 18 22 26 27 27 27 28 30 32 33 34 32 28 26 26 24 22 20 18 17 16 18 19 15 15 15 17 16 17
3 4 5 7 3 5 4 5 5 6 4 5 7 5 4 5 1 1 1 2 7 13 19 22 24 25 26 26 27 29 29 29 30 30 30 29 25 24 24 20 18 17 15 14 15 17 14 12 15 15 15 16 18 19
3 7 7 5 3 4 5 7 6 6 6 10 5 4 4 4 3 4 10 15 17 19 21 23 24 25 25 24 22 21 22 22 22 20 16 16 13 15 14 13 11 13 15 15 12 11 12 13 13 14 16 18 19 20
2 7 3 4 4 4 3 9 3 5 6 9 6 4 6 6 8 10 11 12 13 15 16 18 20 21 20 20 19 13 13 12 10 10 10 8 9 10 10 11 12 12 11 10 10 11 12 12 13 14 15 15 16 15
2 5 2 3 4 4 7 8 10 12 13 13 14 13 9 7 7 4 6 8 10 12 12 12 12 13 13 14 14 12 11 11 12 11 11 11 12 12 11 11 11 10 10 10 12 13 13 13 12 11 11 11 11 11
2 3 2 2 2 4 3 4 5 7 11 11 7 6 4 4 3 2 7 8 9 11 13 13 12 11 10 11 12 13 14 15 16 15 14 14 13 13 13 13 13 12 12 11 10 10 9 9 9 9 10 11 11 12
1 3 4 3 3 2 2 2 2 4 3 1 1 2 2 3 3 3 7 11 14 15 15 14 14 13 13 14 16 16 17 18 18 17 17 17 17 17 16 15 14 12 10 9 9 8 8 9 10 10 11 11 11 12

GFSWCAN_850_spd_015.txt.gz
Wind_Speed
32 28 24 22 21 20 19 21 19 17 15 13 11 10 9 9 9 8 8 7 6 5 7 5 6 9 7 10 5 11 6 2 3 2 3 3 1 4 3 2 5 7 6 4 4 4 6 3 6 3 7 20 10 1
21 28 25 22 20 18 19 19 19 17 15 13 12 11 10 10 10 8 3 6 6 6 6 10 10 12 10 8 6 14 1 7 9 3 3 2 2 0 0 3 5 4 7 4 8 5 12 9 16 12 8 7 4 6
8 16 25 22 20 19 16 17 18 17 16 14 12 11 10 10 11 11 8 9 6 5 5 6 5 10 10 12 11 6 5 6 7 3 7 3 3 5 4 6 6 6 12 6 8 7 16 17 17 3 2 2 4 7
8 6 9 24 21 20 18 16 17 17 16 14 13 12 11 10 10 10 11 11 8 5 5 4 8 10 12 11 11 8 7 11 9 5 4 3 3 10 4 7 7 9 9 9 13 20 19 12 4 7 9 4 6 5
11 7 4 7 14 20 20 19 16 16 16 14 13 12 10 9 9 9 10 11 11 3 4 3 7 10 13 13 11 9 7 7 5 4 3 3 4 3 3 2 8 15 15 10 10 15 3 9 7 9 6 4 3 6
8 7 6 4 10 14 18 24 19 18 16 15 14 13 12 11 9 6 3 9 11 8 3 3 4 4 9 9 7 8 9 7 9 5 5 6 8 7 4 4 7 10 10 16 14 5 2 3 4 5 3 1 5 9
8 8 5 4 4 10 12 15 24 23 18 17 14 12 12 12 12 8 4 5 15 10 4 3 3 2 10 6 5 7 6 6 6 5 6 6 8 8 3 7 12 13 9 4 1 3 3 5 3 2 2 5 9 13
5 6 8 4 3 4 10 13 19 26 23 19 17 14 13 12 13 10 6 5 13 8 4 2 2 2 8 5 4 6 4 5 5 4 2 4 4 3 4 10 11 8 4 2 1 4 6 6 5 3 5 9 14 18
3 3 5 5 6 1 5 10 13 21 27 23 17 16 15 16 12 13 11 6 10 6 3 5 6 4 8 4 4 4 4 2 2 3 4 5 3 6 8 10 10 9 6 4 7 9 7 3 1 5 10 13 16 19
1 1 2 5 4 4 4 7 9 14 29 29 25 15 11 10 15 14 9 6 6 6 5 6 7 4 8 5 4 5 3 2 3 3 4 2 3 8 6 5 6 8 9 12 10 6 2 2 6 9 12 13 15 17
1 1 2 4 7 4 7 3 5 10 19 27 15 7 10 26 19 12 7 7 6 3 7 7 11 5 5 3 4 4 3 4 3 3 3 3 3 10 13 11 11 13 11 8 6 3 1 5 8 11 12 14 15 17
4 3 2 4 7 4 8 2 9 17 13 14 9 14 19 3 4 5 3 4 4 4 5 6 4 6 6 5 4 4 3 3 3 6 2 3 3 11 15 15 14 13 10 6 1 3 6 8 10 11 13 15 16 22
6 4 1 2 6 3 3 3 6 10 15 14 4 5 2 0 2 6 8 3 3 7 8 7 4 4 4 4 4 3 4 3 1 2 3 3 9 13 15 15 14 11 7 3 4 6 9 11 12 15 18 20 20 23
8 6 3 1 3 4 5 5 9 9 5 3 3 3 2 2 1 2 3 3 5 7 13 15 7 2 3 2 2 3 2 2 3 3 4 2 8 13 13 12 13 9 6 8 11 13 15 15 16 17 20 20 21 24
7 10 7 3 3 1 4 7 7 1 3 3 3 2 2 3 5 6 6 6 8 13 9 8 5 2 3 3 1 3 3 3 4 2 3 3 10 12 11 10 9 9 10 13 12 15 17 16 19 21 20 20 22 25
6 11 9 6 2 7 5 8 12 4 3 3 3 2 3 4 3 4 5 7 7 10 8 6 2 1 2 1 2 3 2 4 1 2 3 9 10 9 7 7 8 11 15 18 18 18 18 19 20 21 21 22 23 24
7 9 11 8 6 5 2 5 4 3 3 3 3 5 3 3 4 4 4 5 8 8 2 3 2 2 3 2 2 2 3 2 0 4 7 7 8 6 5 9 15 18 19 18 17 17 18 20 20 21 22 18 20 25
9 11 9 10 10 6 5 3 2 2 3 4 3 5 4 5 7 7 7 7 8 3 4 1 4 3 3 2 2 1 3 1 3 5 6 6 5 7 11 14 15 16 17 18 20 21 21 20 18 15 15 18 19 20
6 8 15 14 12 7 2 2 3 3 3 3 4 5 4 5 8 8 8 12 7 5 4 3 2 3 2 3 2 1 3 4 4 6 6 8 13 18 17 16 18 20 20 20 18 17 17 18 18 18 16 16 20 21
7 12 20 17 11 3 3 2 3 3 3 3 4 4 3 3 4 5 8 9 5 4 3 3 3 3 2 1 1 3 3 4 6 11 14 14 12 12 13 14 15 16 17 17 18 19 18 17 16 15 16 18 23 28
16 12 26 22 12 4 3 2 2 3 4 3 4 4 3 4 3 2 2 7 4 3 4 8 9 7 7 9 10 10 12 13 13 14 15 15 12 13 15 15 14 13 14 15 19 20 21 23 23 18 23 26 27 29
17 19 19 21 4 4 3 3 4 4 3 4 5 3 3 2 3 3 2 3 4 10 10 9 9 9 9 10 9 11 12 13 15 15 16 16 15 12 11 11 12 15 18 21 23 26 28 24 22 25 26 27 28 26
24 22 7 5 4 3 2 5 3 2 2 4 4 3 2 2 1 1 2 4 6 8 9 9 7 7 8 8 9 9 9 11 13 13 13 11 9 10 14 15 16 20 26 28 22 23 25 26 24 26 26 26 23 23
19 5 4 4 3 4 5 2 3 4 3 3 3 2 2 2 2 2 3 4 6 4 4 4 4 4 4 3 3 5 8 10 13 12 10 10 14 16 17 19 22 24 23 22 24 27 26 24 23 23 21 19 22 23
5 3 3 4 3 4 3 4 3 3 2 2 3 2 3 3 2 3 3 1 2 3 1 1 1 1 1 4 6 8 11 13 13 15 18 22 26 28 28 25 22 22 24 27 28 24 20 17 19 17 19 20 19 17
5 3 3 3 4 3 4 4 5 4 3 4 4 3 3 3 3 4 2 3 4 5 5 5 4 4 6 8 12 15 15 18 20 22 24 22 24 25 27 27 29 29 24 22 24 22 18 17 17 18 18 16 15 17
4 3 3 3 5 6 5 3 5 3 4 4 4 6 4 4 4 2 3 3 3 1 3 6 9 10 12 15 17 20 24 26 25 26 29 30 30 29 28 27 26 25 27 25 21 17 15 16 17 16 16 16 14 14
4 4 4 6 3 2 3 4 4 4 3 5 6 4 3 3 1 2 2 1 3 7 8 11 14 17 17 18 19 20 22 25 25 23 22 18 17 17 19 20 19 20 18 15 14 15 15 14 14 16 14 13 14 15
4 5 5 4 2 2 3 3 2 3 2 6 3 2 2 2 4 3 5 7 9 10 11 13 14 15 13 13 12 12 15 17 18 18 17 14 14 16 18 16 15 14 14 13 13 12 14 14 14 13 14 14 15 15
2 2 2 2 2 2 0 4 1 4 4 5 4 3 3 2 4 6 5 7 8 9 10 10 10 11 11 12 11 10 13 15 15 16 15 16 18 21 21 20 19 18 16 15 13 12 11 13 12 11 12 11 11 10
3 2 1 2 2 1 4 6 7 8 9 7 9 7 2 4 4 5 5 5 6 7 7 8 8 10 11 12 13 14 13 14 17 17 17 18 20 20 20 20 19 18 17 16 14 13 13 10 9 8 9 9 10 10
1 2 2 2 2 3 3 2 2 3 4 4 5 2 2 3 2 2 4 5 5 7 8 10 10 11 11 12 13 13 16 18 20 21 22 23 23 23 23 22 20 19 17 15 14 13 11 9 9 8 9 10 10 11
2 3 3 3 2 2 1 2 2 3 3 2 1 1 1 1 3 1 3 5 6 7 9 10 12 13 12 12 15 18 19 20 22 22 22 22 23 23 22 22 20 18 16 15 13 12 11 10 10 10 9 9 10 11

GFSWCAN_850_spd_018.txt.gz
Wind_Speed
29 26 25 24 22 21 21 20 18 16 14 11 9 8 7 7 7 7 5 5 6 4 3 4 5 7 4 12 4 12 5 2 3 3 3 3 1 4 1 4 7 7 6 4 3 4 6 1 2 1 8 19 11 3
31 28 24 23 21 20 20 20 18 16 14 13 11 9 9 8 8 6 2 5 5 5 6 9 10 10 7 5 8 16 2 8 8 3 2 1 1 1 3 3 10 4 6 4 9 5 9 7 4 3 1 1 4 7
31 24 23 23 21 19 18 18 18 17 15 13 12 10 9 9 9 10 6 8 5 5 5 5 3 8 10 9 13 6 5 5 8 4 7 3 3 4 4 4 3 4 10 3 3 7 10 12 7 3 6 4 0 4
18 25 26 21 19 17 15 16 17 16 15 14 12 11 10 9 9 9 7 9 6 4 5 3 5 7 9 9 11 8 7 10 9 7 5 3 3 12 4 6 4 6 5 6 8 15 15 6 6 6 3 0 4 5
15 13 17 23 21 18 17 14 15 15 14 13 12 11 10 9 8 8 6 8 9 3 4 2 4 9 9 9 6 7 8 9 6 4 3 3 4 2 4 1 3 9 8 5 6 9 3 1 5 2 2 3 5 2
14 12 9 9 15 16 19 17 15 15 13 12 11 11 10 9 8 6 2 6 9 7 3 2 2 1 5 7 6 6 7 7 8 7 4 4 7 7 3 2 8 11 10 10 5 4 5 5 3 6 5 6 2 3
15 11 9 7 6 10 13 18 17 15 14 12 12 11 10 10 11 6 3 3 10 9 3 2 2 2 8 6 6 5 7 4 4 2 5 4 3 6 3 6 9 10 12 6 3 6 3 2 6 5 5 3 3 6
13 13 11 6 6 6 8 12 17 21 16 12 11 10 9 10 9 6 5 2 10 5 4 3 2 1 7 4 2 2 4 3 4 3 3 3 5 2 4 9 15 17 10 5 5 5 5 6 6 6 3 2 6 9
9 10 10 9 7 2 4 8 12 18 19 17 14 11 9 8 6 7 8 4 10 6 3 4 5 3 7 4 4 3 4 2 2 3 4 4 3 6 7 9 12 10 8 5 6 7 10 9 6 2 2 5 7 10
7 7 7 9 9 5 3 6 11 15 21 21 17 10 8 10 9 9 6 3 4 6 5 6 7 3 7 5 3 5 2 2 2 3 4 2 3 14 13 7 4 8 10 11 13 11 8 5 2 2 5 7 8 11
4 7 8 7 7 6 8 2 8 13 19 24 12 7 8 21 16 9 5 5 5 3 7 9 15 6 8 4 3 6 3 3 3 3 3 3 3 9 16 9 7 10 12 12 8 8 5 2 2 5 7 10 14 14
3 4 8 8 9 8 11 7 8 12 10 11 9 11 13 2 2 3 3 3 4 5 4 6 5 6 7 5 4 5 3 2 5 9 2 3 3 6 12 11 12 12 12 10 7 4 1 2 5 9 12 14 15 18
2 3 5 7 8 10 13 6 5 7 19 13 4 4 2 1 2 2 4 2 2 3 4 5 3 5 5 4 5 2 5 5 1 3 3 2 10 9 11 13 13 12 11 9 4 1 3 7 10 14 15 16 18 20
0 2 4 6 4 4 9 13 10 5 2 3 3 3 2 2 2 1 2 2 2 3 11 13 6 4 4 2 3 3 1 2 3 3 4 1 8 9 10 11 11 9 6 3 6 9 12 15 15 16 17 19 20 20
2 2 1 2 3 3 2 1 4 7 4 3 3 2 2 2 3 3 3 5 6 7 7 7 5 3 2 2 0 3 4 2 2 1 2 9 8 10 12 10 7 5 4 9 11 15 18 19 19 19 19 20 19 21
2 0 2 1 4 3 3 2 2 2 4 3 3 3 3 3 3 5 8 9 5 7 6 5 2 1 2 2 2 1 1 1 2 3 4 8 9 9 8 6 5 5 10 15 19 19 19 19 20 21 22 21 21 19
2 2 2 3 3 2 2 3 3 3 3 2 2 5 6 7 4 2 5 4 2 4 2 2 2 4 1 0 0 1 2 2 3 3 5 7 7 6 5 2 9 15 17 17 17 18 19 20 22 23 25 21 15 17
3 2 4 5 2 1 3 3 3 2 3 3 1 2 3 5 4 3 2 2 2 2 2 2 2 1 0 1 1 2 3 2 3 4 3 5 5 4 5 11 15 15 16 18 19 20 22 21 19 20 19 18 16 22
3 4 9 10 4 2 2 2 3 2 2 3 4 3 3 2 2 2 3 3 1 4 4 2 1 2 1 2 2 2 2 3 1 3 4 6 8 12 16 16 13 15 16 16 18 20 20 20 22 23 23 23 24 22
7 3 11 12 8 3 2 2 4 2 3 4 5 6 4 2 2 4 5 4 4 3 1 1 2 1 1 2 3 2 1 2 2 5 8 10 11 11 13 15 16 18 18 17 17 17 18 19 20 22 23 25 25 27
10 9 12 15 11 4 2 3 2 2 4 3 6 5 4 5 3 2 2 4 1 2 4 7 6 6 6 8 7 6 8 9 8 9 11 12 11 12 16 19 17 15 16 17 17 21 23 25 27 26 26 26 28 28
14 13 10 14 3 4 3 5 3 4 2 5 5 4 3 2 2 2 2 2 4 8 7 6 6 6 6 7 6 5 6 8 9 10 11 12 13 13 14 14 14 15 18 21 22 26 29 27 26 26 26 26 26 27
12 10 10 3 3 3 3 8 3 4 3 6 5 4 3 3 2 2 3 5 5 4 5 6 5 7 7 6 6 5 5 7 8 10 13 15 16 16 16 17 19 22 24 28 28 26 27 27 30 29 27 27 25 23
11 6 4 3 2 4 5 3 4 4 4 4 4 3 3 2 3 2 2 2 1 1 3 3 2 2 2 1 2 3 6 9 8 9 12 16 19 22 23 27 28 29 30 31 26 29 31 31 29 25 22 21 21 20
3 3 4 3 3 5 4 5 4 3 3 3 3 2 3 4 3 3 2 4 4 1 2 3 3 2 2 2 2 4 9 10 13 22 22 18 22 26 26 27 29 30 30 33 37 30 27 26 27 23 20 19 20 19
2 2 2 3 4 3 4 4 4 4 3 3 3 4 3 3 2 3 2 7 7 7 9 7 7 5 6 7 9 12 19 23 25 25 24 25 26 27 27 28 28 26 24 22 19 21 24 24 22 20 18 19 17 15
3 2 1 2 4 7 5 4 5 3 3 3 4 5 4 3 4 4 5 5 3 1 5 3 3 5 8 10 14 17 19 20 21 21 21 18 16 18 17 16 16 20 24 26 25 18 17 16 16 17 17 15 15 13
3 2 3 4 4 3 4 3 3 3 2 4 7 4 3 2 3 2 2 2 1 1 2 5 10 11 11 14 13 13 15 16 15 14 10 4 12 17 18 19 20 20 20 18 18 17 15 16 17 18 18 15 13 14
4 4 4 4 3 3 2 2 3 3 2 6 3 2 3 3 7 5 5 3 3 4 6 7 10 9 8 7 7 11 17 17 18 18 18 17 20 22 23 23 23 22 21 21 18 16 14 15 18 17 14 11 12 13
2 3 2 1 1 2 3 2 1 3 2 3 2 2 2 2 3 4 3 5 5 5 5 5 6 8 7 8 8 8 9 18 18 16 17 20 23 25 25 26 26 25 23 22 21 19 16 16 14 9 11 14 12 6
2 2 2 1 1 2 1 3 2 3 4 2 4 2 3 4 3 4 3 3 3 4 2 4 4 6 9 9 11 13 12 14 17 18 20 22 24 25 27 27 26 25 24 22 21 18 17 16 10 9 11 12 10 8
3 3 2 1 2 3 3 1 1 2 2 2 2 2 1 3 3 3 1 4 1 2 4 5 7 9 10 10 10 12 15 19 18 21 23 24 26 26 26 26 25 24 23 21 18 15 15 14 11 11 10 12 11 10
2 2 3 3 2 2 2 4 2 2 3 3 2 1 1 3 3 2 1 1 2 3 6 9 10 11 10 13 15 14 19 21 22 20 21 23 26 25 25 25 24 22 21 19 15 13 15 14 13 12 11 10 10 10

GFSWCAN_850_spd_021.txt.gz
Wind_Speed
32 30 30 28 26 24 22 20 17 15 12 10 9 8 8 7 7 8 8 8 7 4 4 4 4 9 13 15 5 10 5 1 4 3 3 3 2 4 2 7 7 7 7 4 3 3 7 11 5 8 6 6 9 8
30 28 27 27 25 24 22 20 18 15 13 11 9 8 8 7 7 7 9 8 6 4 4 4 7 8 10 11 12 20 4 6 8 4 1 3 1 0 1 3 4 2 7 6 8 6 10 9 9 8 8 7 8 4
31 27 25 24 22 21 21 20 18 15 13 11 9 8 8 8 9 8 9 8 7 5 6 6 4 5 6 10 16 8 6 7 9 6 6 3 3 3 4 5 1 3 13 3 4 7 10 10 12 11 10 12 7 1
32 28 25 24 21 18 19 19 18 16 14 12 10 9 8 8 8 8 7 7 6 5 5 2 4 7 7 10 12 11 12 10 16 9 5 3 3 12 4 4 4 6 3 1 3 3 2 9 9 14 10 6 3 4
31 32 28 24 22 18 16 16 16 16 14 12 11 10 9 8 7 6 6 7 6 3 4 3 4 5 6 7 8 8 9 13 9 5 3 3 5 2 1 2 2 5 5 3 5 5 6 10 11 7 5 5 10 5
25 23 28 26 21 20 17 15 15 15 14 12 11 10 9 9 9 7 3 6 8 7 3 1 2 1 4 8 6 6 6 5 5 5 4 4 3 6 3 3 6 13 16 14 6 8 8 13 8 3 4 11 9 4
22 19 19 20 22 21 17 17 15 14 12 12 11 10 9 10 11 6 4 4 10 8 4 3 1 2 6 9 8 6 8 6 4 3 4 3 3 4 2 4 9 12 10 8 8 12 8 6 4 11 8 9 4 4
20 16 13 13 12 14 17 18 16 14 13 11 10 9 9 9 10 7 4 3 10 7 4 3 2 1 8 4 4 3 3 3 2 2 4 4 2 1 3 11 18 21 21 12 14 8 4 6 15 10 9 8 4 1
18 18 16 12 8 6 8 13 16 18 14 9 10 6 6 5 6 7 6 3 8 5 5 4 4 3 8 4 4 4 3 0 2 2 4 3 2 5 7 9 10 11 16 17 8 6 9 13 10 12 7 3 2 7
15 14 14 14 10 7 7 11 12 15 18 14 11 5 4 7 5 7 2 2 5 7 6 5 6 2 7 4 3 4 1 2 2 3 4 1 3 12 11 5 3 12 16 11 11 16 15 14 8 4 1 5 8 11
12 14 15 13 12 10 5 10 13 16 21 19 9 6 9 15 9 5 4 3 3 2 6 6 14 5 7 4 3 5 2 2 2 4 5 3 3 7 9 10 10 8 9 12 15 15 14 10 6 3 5 9 12 15
10 12 14 15 15 13 14 11 10 15 12 12 9 11 10 5 4 4 3 1 1 2 2 2 3 5 6 5 4 6 4 2 5 10 2 3 3 9 17 14 13 16 18 18 15 12 8 4 4 6 9 13 13 13
10 12 14 15 16 17 16 12 11 12 19 14 5 4 2 2 1 3 5 1 1 1 2 3 2 4 5 5 4 2 5 5 5 3 3 3 7 12 13 15 16 16 16 13 10 6 2 3 7 10 11 11 13 16
8 10 12 13 14 16 16 13 12 10 4 4 4 4 2 2 2 2 1 1 1 2 3 3 5 3 2 2 3 3 1 2 2 3 3 1 9 11 14 13 14 13 9 5 1 4 7 11 12 11 12 13 16 17
7 6 8 10 10 7 5 6 8 6 4 4 3 3 2 2 3 1 3 3 3 5 7 5 4 3 2 2 1 2 1 1 1 1 1 2 8 14 14 14 12 10 6 3 6 11 13 13 13 14 15 16 18 19
7 8 8 9 10 8 3 4 5 6 4 3 4 3 5 4 2 4 8 8 6 7 6 4 2 1 2 1 1 0 2 1 2 1 8 10 11 12 11 8 6 3 3 10 12 12 12 13 15 18 20 20 19 19
8 6 6 5 8 7 7 8 4 5 4 3 3 6 4 5 5 4 5 5 5 3 2 2 2 1 1 1 1 2 2 1 0 4 6 4 5 6 5 5 1 9 13 13 14 15 17 17 18 19 19 17 17 16
6 4 3 1 3 4 5 5 4 3 4 4 3 5 6 5 6 5 5 4 3 3 2 1 3 2 1 1 1 0 5 6 4 4 3 4 5 6 4 6 14 15 13 14 16 15 15 16 17 18 19 19 20 21
3 2 3 4 2 3 3 3 3 3 4 3 6 6 5 5 4 3 3 4 5 4 4 1 2 1 1 2 3 5 6 5 2 4 2 1 3 7 11 13 14 17 15 15 15 16 16 15 16 18 21 24 26 27
4 3 3 7 5 1 2 2 3 3 3 4 5 6 4 2 2 6 5 3 3 1 1 1 2 1 3 5 3 5 3 2 5 4 5 8 9 10 12 14 17 18 19 19 16 15 16 18 21 24 25 23 25 27
1 3 2 5 8 3 1 2 2 3 5 4 8 5 4 4 2 2 2 2 2 2 2 4 3 1 3 4 4 5 5 5 6 6 8 11 10 12 13 13 13 12 14 15 18 22 23 25 31 27 25 25 27 28
2 3 5 4 2 5 3 6 3 5 4 5 9 5 4 3 3 3 3 3 3 2 2 3 3 1 1 2 1 4 4 5 4 5 8 9 12 15 17 17 18 19 21 23 25 29 30 31 28 26 28 31 32 27
3 3 2 5 3 3 2 10 4 6 4 6 5 3 2 3 2 4 2 3 3 2 4 2 1 3 4 4 2 4 6 5 5 3 3 6 13 17 17 17 18 20 24 28 26 26 28 29 28 32 30 27 26 22
3 2 2 4 4 3 5 3 4 4 6 6 3 3 3 4 4 3 2 2 7 4 3 4 3 2 5 6 8 5 4 2 3 5 11 20 25 25 24 24 25 25 26 30 31 31 30 30 28 24 25 26 23 21
3 2 2 2 3 5 4 4 5 3 2 4 3 1 3 5 2 2 2 4 5 4 2 6 10 10 15 10 3 3 6 10 15 20 20 20 21 23 22 21 20 18 21 24 26 27 26 23 24 26 25 24 20 18
3 4 3 6 4 3 4 3 4 4 3 3 2 5 4 3 2 3 2 6 7 1 3 3 4 2 2 4 7 11 17 20 21 20 16 14 17 17 18 20 22 22 22 23 25 25 25 24 22 20 18 18 18 16
3 3 3 2 1 4 3 4 5 4 2 3 4 4 3 3 4 3 7 6 5 2 0 1 3 2 5 9 12 13 16 17 16 14 11 7 8 12 18 21 21 23 23 22 22 22 21 20 18 19 19 18 18 16
1 3 3 3 2 1 3 2 2 2 2 5 11 2 6 4 2 3 4 6 6 5 4 4 5 6 7 8 9 12 13 11 11 10 2 8 13 18 18 20 22 23 23 22 21 21 20 20 19 18 19 18 14 14
2 3 2 2 1 2 1 1 1 2 2 7 3 1 4 5 6 6 6 5 5 6 6 6 5 5 5 4 6 9 13 15 17 18 18 20 23 24 26 27 27 26 25 25 23 21 20 18 19 20 17 14 12 12
1 1 1 1 2 1 3 4 2 2 3 3 3 5 5 5 8 8 5 2 3 2 2 2 4 4 4 6 6 5 10 15 17 19 19 21 25 26 27 28 29 28 28 26 25 24 20 18 17 12 13 14 14 14
2 1 2 3 3 2 1 3 0 0 1 2 2 2 5 6 5 2 2 1 3 1 4 3 3 4 6 7 9 12 13 14 19 20 21 23 24 25 26 27 26 27 27 25 24 21 17 17 16 14 14 14 13 13
2 2 1 1 3 2 3 2 1 2 2 2 3 3 3 3 3 0 4 5 3 2 1 4 6 8 8 8 8 11 13 17 20 22 20 22 25 25 26 27 27 25 23 22 20 15 14 16 17 15 16 15 13 12
2 3 2 1 2 3 0 1 3 2 5 3 3 4 4 3 4 2 0 1 1 2 6 7 9 10 11 10 13 15 15 17 18 18 18 20 22 25 25 25 24 23 21 19 17 14 15 17 16 14 13 11 10 8

GFSWCAN_850_spd_027.txt.gz
Wind_Speed
40 39 37 35 33 31 29 26 23 21 20 20 19 20 21 22 22 16 13 10 7 7 7 5 9 10 10 10 5 10 5 1 4 4 3 3 3 5 2 4 6 7 7 4 3 1 8 11 4 8 6 7 21 23
38 36 35 34 31 30 27 24 22 20 19 18 18 18 18 18 18 16 15 11 8 6 9 12 10 8 9 10 13 17 5 6 8 4 1 3 2 2 2 3 2 2 7 5 9 6 4 18 7 19 9 12 20 21
35 37 35 32 29 27 24 22 21 19 18 17 17 17 16 16 16 14 15 13 10 16 10 8 9 9 7 8 10 8 6 8 7 6 8 3 3 4 4 6 3 4 7 3 2 4 14 13 24 17 16 16 13 18
33 33 32 30 27 24 22 21 20 18 17 16 15 14 14 14 13 12 13 12 8 8 6 3 6 6 4 5 9 6 6 14 12 9 5 3 3 9 3 3 4 5 8 5 5 9 8 12 18 20 16 14 13 15
31 30 29 28 29 23 22 20 18 17 16 14 13 13 12 12 12 12 11 10 7 3 5 6 8 4 3 3 3 5 6 13 9 5 3 3 5 3 1 2 3 9 7 4 6 12 9 7 9 15 17 16 16 17
29 28 27 27 30 22 21 19 17 16 15 14 12 12 12 12 12 12 5 6 7 8 4 2 4 4 6 5 8 11 10 8 7 5 4 5 5 6 4 4 13 20 22 22 14 13 15 16 12 16 16 17 15 16
29 27 25 25 26 23 19 18 16 15 14 13 12 11 11 11 11 4 5 8 10 8 4 4 2 3 7 8 7 6 7 3 2 4 4 3 4 6 3 4 17 19 19 19 19 17 9 12 10 19 16 16 18 18
27 26 24 23 21 20 19 17 16 15 13 13 12 11 10 10 9 7 7 9 10 5 3 4 2 2 5 3 3 3 4 5 1 2 2 3 4 2 3 15 18 17 17 20 20 17 15 10 9 18 16 21 22 16
31 28 24 23 21 17 16 15 15 15 14 13 13 12 10 8 5 7 8 7 8 3 5 3 4 3 5 3 2 2 2 2 1 1 2 3 1 4 5 7 9 8 7 9 11 13 8 14 20 22 24 19 14 12
27 24 25 24 21 19 17 16 16 15 15 15 16 5 4 8 11 10 4 3 3 2 2 3 5 1 3 3 2 2 3 1 1 3 3 1 3 9 13 16 16 11 11 12 16 14 17 20 22 20 15 10 7 2
22 20 19 18 20 20 18 17 16 17 15 12 5 3 12 14 5 3 3 4 3 2 2 2 2 3 2 3 2 1 2 1 2 3 2 2 2 5 13 10 6 5 6 6 8 15 18 20 18 15 9 3 5 9
24 21 17 17 16 16 18 20 21 18 11 7 7 13 9 2 3 5 1 2 2 2 1 2 3 3 3 3 4 3 2 1 4 4 1 2 2 7 9 14 15 14 14 17 17 20 20 18 11 6 4 5 8 9
26 25 24 21 18 16 15 16 20 20 17 13 4 3 2 4 3 5 6 1 2 1 1 2 2 2 3 2 5 2 3 4 3 2 2 1 5 15 16 15 15 13 16 15 14 11 10 8 6 2 5 7 8 9
21 21 20 19 17 16 15 13 13 21 6 4 3 3 2 2 2 2 2 2 3 3 3 4 4 2 2 2 2 3 1 1 3 2 2 1 7 3 7 10 11 12 13 13 11 5 2 4 5 6 7 8 9 10
15 14 11 14 13 11 10 11 9 6 4 4 4 3 2 3 4 4 6 5 4 4 5 5 4 2 2 2 1 2 1 1 1 1 1 5 6 8 9 7 7 6 5 4 4 7 8 9 9 10 10 11 12 12
11 11 12 10 9 8 8 8 7 4 5 5 4 4 6 4 3 4 5 5 4 6 6 4 2 2 1 1 2 2 3 1 2 1 4 7 8 7 5 4 5 5 10 13 11 10 11 12 12 12 12 10 10 11
4 11 9 8 7 8 8 8 5 6 5 3 3 8 9 11 7 5 8 5 6 3 1 2 3 2 1 2 2 2 1 1 6 9 6 2 1 4 5 3 2 7 8 11 11 12 12 12 13 13 13 11 12 15
12 9 7 6 6 9 9 5 5 5 5 4 3 6 7 8 10 7 7 5 2 4 3 2 4 2 2 2 1 3 9 10 10 9 7 6 4 6 4 2 6 7 8 10 11 11 11 12 13 14 16 19 22 24
13 9 5 6 7 5 4 5 4 4 4 5 9 8 6 8 8 8 6 4 6 5 5 2 3 2 2 3 3 8 8 9 8 6 5 5 4 1 1 4 5 6 8 9 10 11 12 13 16 18 21 25 28 30
7 10 7 6 7 4 4 5 5 4 3 3 6 7 4 3 5 5 3 2 1 1 1 1 3 2 2 4 4 6 8 6 5 9 8 4 2 2 3 4 7 8 11 13 14 17 20 22 24 26 29 31 33 36
5 8 8 5 7 7 5 4 4 4 5 3 10 4 4 5 4 3 2 1 2 1 1 1 3 7 9 8 7 4 4 4 5 5 6 5 2 2 3 4 8 12 17 20 22 23 23 25 27 28 29 29 27 27
10 7 7 4 4 3 4 4 3 4 2 5 6 3 3 2 2 2 1 1 2 2 1 2 3 7 8 6 5 5 4 4 4 5 5 5 5 6 9 13 16 18 18 18 19 21 23 24 26 27 28 28 28 28
8 8 6 6 4 4 2 4 2 2 2 3 4 2 2 1 2 4 2 2 2 2 2 4 5 6 6 8 8 6 7 7 7 5 1 3 6 9 11 13 15 16 17 18 20 22 25 26 27 28 28 29 29 29
6 6 5 4 4 1 2 2 2 2 4 3 2 2 2 5 4 2 1 3 3 3 3 5 8 10 12 12 11 9 6 3 1 3 6 9 10 11 12 13 14 15 17 20 23 25 27 29 30 30 30 30 29 29
2 2 1 2 1 1 2 2 0 1 3 2 2 1 3 5 2 2 2 3 7 6 4 3 11 11 10 9 6 4 0 3 6 9 9 10 11 10 10 11 14 18 22 25 27 29 30 30 31 31 31 30 30 30
1 1 2 1 1 1 4 2 3 5 2 3 3 3 3 3 1 3 1 3 7 6 4 2 4 5 4 4 3 3 5 8 10 10 11 10 11 12 14 18 21 22 23 25 28 30 30 30 31 30 31 29 29 29
1 3 2 4 3 3 2 2 2 2 3 3 3 2 2 2 2 1 4 4 5 5 2 3 5 6 5 4 3 5 9 11 10 9 8 8 11 15 18 21 23 24 24 25 25 26 28 29 29 28 27 26 26 25
2 2 1 2 4 4 2 1 1 2 2 3 7 2 3 2 2 2 3 3 3 2 2 5 5 2 2 3 5 6 7 9 9 7 8 12 14 16 17 19 19 21 22 23 24 24 25 26 25 23 20 18 18 19
2 2 3 2 2 1 1 1 1 1 3 3 3 2 3 3 4 5 6 4 3 5 6 6 6 5 5 5 7 8 8 7 7 8 12 15 17 19 21 22 23 23 24 24 23 24 24 23 20 18 17 15 17 19
1 4 1 2 1 1 2 5 3 3 2 2 5 6 6 6 6 5 3 4 5 5 4 3 4 5 5 6 8 10 11 13 14 16 18 20 21 22 23 24 25 25 25 26 26 24 21 20 18 17 17 17 18 18
1 1 1 1 1 2 5 7 3 2 3 2 3 2 6 7 6 3 1 0 2 3 4 4 4 4 5 7 8 10 11 13 17 18 20 21 23 23 24 24 25 25 25 24 24 22 21 20 20 20 19 18 18 17
2 2 3 1 1 2 3 2 2 1 1 1 1 1 4 4 4 4 3 2 2 3 2 2 4 6 8 10 12 14 17 19 21 22 22 22 23 23 24 25 24 23 22 21 21 20 19 18 18 18 17 16 16 15
2 2 2 2 2 1 2 4 1 1 1 1 2 4 4 3 3 3 3 3 1 2 4 6 6 8 11 12 15 17 18 19 21 21 21 21 22 23 23 23 21 20 20 19 19 18 17 16 16 15 15 14 14 14

GFSWCAN_850_spd_030.txt.gz
Wind_Speed
45 43 41 39 37 34 31 29 27 25 23 24 26 27 31 33 31 22 8 9 5 7 8 7 8 10 10 9 5 11 6 1 4 4 3 3 3 5 2 4 6 7 6 4 3 2 7 8 4 7 6 5 15 20
42 40 38 35 34 32 29 27 26 24 22 23 23 25 29 31 26 24 12 11 11 8 10 12 11 9 8 9 13 19 6 6 8 4 1 3 2 2 2 3 1 2 6 5 9 6 5 15 7 13 4 6 15 20
39 37 35 33 32 30 28 26 25 23 22 21 22 22 24 24 24 24 19 14 12 19 12 8 9 10 9 9 10 9 6 8 8 6 9 3 3 4 4 5 3 4 6 3 2 4 11 18 22 29 14 16 14 14
36 34 32 31 29 28 26 25 24 22 20 20 19 21 21 21 19 19 16 14 11 10 6 4 7 7 6 6 9 6 7 14 13 8 5 3 3 8 3 3 3 4 7 4 5 12 16 21 19 19 25 23 18 16
35 34 31 29 27 25 23 22 22 21 20 19 18 17 19 18 17 17 17 13 11 4 6 8 9 7 6 6 6 5 8 13 8 5 3 3 5 4 2 2 3 10 7 4 6 17 9 13 15 10 12 16 17 16
30 30 29 27 24 22 20 19 19 20 19 18 18 19 18 18 17 17 7 8 9 10 6 2 3 4 7 7 9 11 10 7 5 4 3 5 4 4 4 3 14 14 19 20 13 14 16 16 15 17 16 13 14 16
29 27 27 25 21 19 16 17 16 17 16 16 16 16 15 15 14 6 6 10 10 8 4 4 3 3 5 6 5 4 4 3 2 3 2 3 3 3 3 4 6 12 16 18 18 17 16 16 14 11 11 14 14 14
26 25 23 23 20 16 15 14 15 15 15 14 14 13 13 12 12 12 12 11 10 6 4 4 2 2 3 2 2 1 2 3 4 2 2 3 4 2 3 6 14 13 12 10 11 11 14 14 9 11 12 15 20 23
25 24 23 21 23 21 11 13 13 14 15 14 14 13 12 8 5 9 10 8 6 4 5 3 4 3 2 3 2 2 2 3 1 1 1 3 1 3 5 19 20 17 13 15 13 7 7 6 10 12 16 23 20 17
25 23 23 22 22 23 15 13 13 14 14 15 15 5 5 8 14 11 4 3 3 4 4 4 3 1 2 2 3 2 4 1 1 1 1 2 1 4 18 14 13 14 11 11 4 5 9 15 17 20 19 17 17 11
27 26 23 21 19 17 19 17 16 16 16 12 4 5 14 14 5 3 4 5 4 4 4 3 3 3 2 2 2 3 2 1 2 3 2 1 2 6 13 15 15 14 11 11 6 10 12 17 20 19 17 11 6 4
23 20 23 23 20 18 16 15 16 14 8 7 11 15 9 3 4 5 2 2 3 2 2 2 3 3 3 2 5 2 2 1 3 2 1 1 2 9 15 20 21 21 23 26 23 21 19 18 16 14 8 2 3 6
21 21 18 16 17 18 16 17 15 12 16 11 4 4 3 4 5 3 4 1 2 2 2 3 2 2 3 2 5 2 3 3 4 1 1 2 7 8 8 14 17 18 19 19 20 20 15 11 8 5 5 6 7 8
21 20 19 16 13 12 13 14 18 15 6 5 4 4 2 2 2 1 1 3 3 4 7 7 4 3 2 3 1 2 1 1 3 2 1 1 1 8 8 11 11 12 10 8 8 6 4 3 3 5 7 8 10 10
15 15 14 17 14 12 13 13 15 10 6 5 4 3 3 4 4 6 8 6 5 6 6 6 5 3 3 2 2 3 2 1 2 3 0 3 8 13 11 7 9 9 9 9 8 7 7 8 9 9 10 10 11 11
11 11 15 14 10 8 8 9 10 8 5 4 4 3 5 5 3 4 8 7 5 7 7 4 2 2 1 2 2 2 3 3 2 3 8 9 8 7 5 5 3 4 8 8 9 10 11 12 12 12 12 11 10 12
6 16 14 11 9 9 10 10 5 7 5 4 4 9 7 10 7 5 6 4 6 2 1 2 3 3 2 2 1 1 3 3 11 12 8 5 3 2 3 2 1 3 5 8 9 10 10 10 10 10 12 13 16 18
14 11 10 9 9 9 9 7 6 6 6 6 4 5 8 7 10 7 6 5 2 3 2 2 5 2 3 4 2 3 7 14 13 10 4 2 2 1 2 1 3 3 6 8 9 9 10 12 14 16 19 22 26 28
16 11 7 6 5 5 4 6 6 5 6 5 8 9 8 9 8 7 6 5 7 5 5 1 4 2 2 2 3 9 10 11 8 6 4 4 4 5 4 2 3 4 4 6 8 10 12 15 18 21 24 27 29 31
12 11 7 7 5 5 4 5 6 5 4 3 5 5 5 4 5 5 2 2 3 2 1 2 2 1 3 6 6 6 7 7 9 11 10 7 5 4 2 1 2 3 6 9 13 16 19 22 23 24 25 27 29 31
9 13 11 8 10 8 6 4 5 4 5 4 7 4 4 4 3 2 1 1 1 2 2 3 6 12 12 11 10 8 7 6 8 8 10 9 7 3 1 3 6 10 13 16 19 20 21 22 24 26 28 29 29 30
11 10 8 8 6 5 6 6 5 4 3 6 4 3 4 2 1 1 1 1 2 2 2 4 8 10 8 7 5 2 3 3 3 5 7 7 3 3 6 9 12 14 16 17 18 20 21 23 25 27 29 30 30 30
8 6 6 7 5 6 4 3 2 2 3 4 5 3 2 2 2 2 1 1 2 1 2 4 6 8 6 7 6 5 4 4 5 5 3 0 3 6 9 11 13 14 15 17 19 21 23 25 26 27 28 29 30 31
7 4 5 5 7 2 2 2 2 2 2 2 2 2 2 3 4 1 1 2 2 1 2 4 6 9 9 8 7 6 5 4 3 2 1 4 6 7 9 11 13 14 17 20 22 22 23 25 26 27 28 29 29 30
2 6 5 5 5 3 5 4 4 3 1 2 1 1 3 4 2 2 2 1 3 3 4 5 6 7 7 6 6 4 2 0 2 4 5 5 6 7 8 10 13 17 21 22 23 24 24 25 26 27 27 27 28 28
5 6 3 2 3 2 2 1 1 3 2 1 2 2 2 2 2 1 1 3 4 6 6 5 4 5 4 3 2 2 3 4 5 5 5 5 6 8 12 16 18 18 20 22 24 25 26 26 27 27 27 25 23 22
3 2 3 1 1 2 3 3 2 1 1 2 2 2 1 1 1 2 3 3 3 4 4 2 3 3 2 3 4 4 5 6 5 4 4 6 10 13 15 18 20 20 21 21 22 24 26 27 26 25 23 21 19 20
2 2 1 2 3 3 2 1 1 1 1 2 4 2 1 1 2 2 2 3 3 2 1 3 5 2 0 1 2 5 6 5 4 4 7 11 13 15 15 17 18 19 20 21 22 23 23 23 23 22 21 21 21 22
1 3 3 3 2 2 3 3 3 4 6 1 2 2 3 3 4 5 5 3 1 3 4 5 3 2 2 3 3 3 4 5 5 6 9 12 13 16 19 20 21 21 22 22 21 22 22 21 21 20 21 21 21 21
2 4 1 2 1 1 2 4 4 6 5 1 4 6 6 6 6 5 3 2 4 3 1 1 3 4 4 4 5 6 8 9 11 14 16 18 19 21 22 22 22 23 23 23 22 20 19 18 16 16 16 17 17 16
3 2 2 2 1 2 5 8 3 1 1 2 4 3 6 7 7 4 2 1 0 2 3 2 2 2 4 5 6 8 10 12 15 17 18 20 21 21 21 22 23 24 23 21 20 20 19 18 18 18 18 17 16 16
3 3 4 2 1 3 5 2 2 2 1 2 1 2 4 4 4 4 3 2 2 4 3 3 3 4 6 8 10 13 16 18 19 20 20 19 19 21 21 22 22 21 19 19 18 18 18 17 17 17 17 16 16 16
2 2 2 2 2 2 3 4 1 0 1 2 3 2 3 2 3 3 2 1 1 2 3 4 4 6 9 12 15 17 19 19 18 18 19 20 20 21 22 21 19 18 18 18 17 17 17 16 16 16 15 15 15 15

GFSWCAN_850_spd_033.txt.gz
Wind_Speed
40 36 36 36 35 34 32 29 26 25 24 27 31 36 40 42 37 26 13 12 7 7 11 7 9 12 10 10 5 11 6 1 3 3 3 3 3 4 2 3 5 5 6 3 3 1 6 6 4 4 3 4 6 14
35 33 34 34 33 31 28 26 23 21 22 26 30 34 37 40 39 24 11 11 10 7 9 13 11 11 8 11 14 21 5 6 8 4 1 3 2 1 2 3 1 3 4 4 8 4 4 11 8 9 9 6 6 13
35 34 34 32 31 29 27 25 22 21 22 24 28 33 35 38 34 20 14 14 14 19 12 9 11 10 10 11 13 9 6 9 8 6 8 2 3 3 4 4 1 4 5 2 1 2 10 18 18 23 26 26 20 16
35 34 33 31 30 28 26 24 22 21 22 23 26 29 33 34 29 27 14 13 8 10 7 4 8 7 7 9 9 8 10 14 15 8 5 3 3 6 3 2 3 3 7 4 4 11 14 11 12 12 15 18 19 19
33 33 31 30 29 27 25 24 22 22 22 24 26 27 30 30 26 26 12 14 13 3 7 8 12 9 8 7 7 8 13 16 10 5 3 2 6 5 2 1 3 9 5 4 5 8 5 11 13 15 11 12 14 13
31 30 29 28 27 26 24 24 21 21 22 23 25 26 26 25 26 32 12 9 11 12 8 3 5 6 10 10 12 14 10 7 5 4 4 4 4 3 3 3 5 9 11 11 7 16 20 19 17 15 15 13 9 7
29 28 27 26 25 23 22 23 23 23 22 23 26 27 26 26 23 12 9 13 12 10 5 4 2 3 6 7 5 6 6 4 3 5 4 4 3 4 3 3 13 18 16 13 10 11 8 7 9 12 7 3 6 12
27 26 25 24 23 20 20 20 20 21 21 19 20 20 17 16 18 18 17 15 13 7 5 4 1 3 3 2 3 3 3 4 5 4 4 4 4 2 1 10 18 18 15 3 18 10 7 8 4 3 7 12 20 23
22 21 22 21 20 14 17 18 18 20 21 20 19 19 18 14 6 12 14 11 9 6 6 3 4 3 2 4 3 3 4 3 2 2 2 3 1 2 4 11 14 16 12 13 8 6 6 7 10 10 12 21 24 20
23 21 19 18 16 15 12 12 14 16 17 18 14 5 5 9 21 14 4 3 4 6 5 4 3 2 3 2 4 2 4 2 2 1 1 2 3 7 8 9 11 14 13 6 3 11 12 17 18 18 19 18 17 15
21 20 18 18 19 18 10 8 11 12 14 6 4 6 18 12 5 5 5 6 6 4 5 4 3 3 2 3 2 3 2 1 3 1 2 1 2 2 9 14 14 14 14 16 15 16 17 20 20 19 17 15 11 6
20 20 20 16 14 18 18 11 6 8 4 9 14 16 7 5 6 6 2 2 4 2 2 3 3 4 4 3 4 3 3 2 2 2 2 3 2 9 11 16 17 20 23 25 23 22 20 17 14 11 8 5 4 5
22 19 18 16 16 15 14 16 14 12 12 12 4 4 3 6 6 4 5 1 1 3 3 3 2 3 3 3 5 2 3 1 6 2 2 2 9 9 12 12 14 15 15 14 13 11 9 7 5 5 6 6 7 8
18 17 19 19 18 17 18 17 19 16 5 4 4 5 3 2 2 2 2 2 3 4 8 9 5 2 3 3 1 3 1 2 3 3 3 3 12 14 14 12 9 9 8 8 7 6 6 6 6 7 7 8 8 9
18 16 11 15 15 12 14 17 15 9 5 6 5 3 3 4 5 6 7 6 6 6 6 6 5 3 2 3 1 3 2 2 1 2 2 6 16 15 12 11 10 8 7 7 7 7 6 6 6 6 6 7 7 8
13 15 17 14 12 13 12 10 8 9 6 5 6 4 6 6 3 6 10 8 6 9 7 5 3 2 2 2 2 1 3 3 3 4 11 14 15 14 10 11 5 5 6 6 5 6 6 7 8 9 8 9 12 15
12 19 14 12 11 10 10 10 7 8 6 4 5 10 9 11 6 5 5 4 6 3 2 2 3 1 2 2 1 1 3 3 11 16 14 12 9 8 8 7 3 1 1 3 5 6 7 8 9 12 16 19 22 24
16 14 12 10 12 12 12 9 7 6 6 8 5 6 11 9 9 7 7 6 3 3 2 2 5 2 2 3 2 2 4 16 16 13 9 7 6 8 7 5 3 2 2 4 5 7 9 12 16 18 21 23 24 26
13 11 10 8 7 5 5 6 7 5 6 5 8 9 9 10 13 11 9 9 8 7 6 2 3 2 2 2 3 7 13 15 13 8 5 5 8 8 8 6 3 1 3 4 6 10 13 15 16 19 21 24 27 29
14 10 8 6 4 5 6 6 7 6 4 3 6 6 5 6 8 8 6 5 6 3 4 3 1 1 2 4 6 9 11 11 10 12 11 10 9 8 6 3 1 2 4 6 9 12 14 17 19 22 24 26 28 30
13 13 10 8 14 11 7 5 6 5 4 5 6 4 4 5 4 4 4 5 4 3 3 3 7 11 11 12 11 9 8 8 9 7 11 12 9 6 3 2 2 4 7 11 13 15 17 20 22 24 25 25 25 26
13 11 10 11 8 6 7 8 6 4 4 4 4 3 3 2 3 2 2 3 3 3 2 5 9 10 10 9 10 7 6 4 5 5 8 9 7 4 1 2 5 8 11 14 15 17 19 21 23 23 24 25 26 27
9 8 8 8 6 6 4 5 4 3 2 2 2 2 1 2 2 2 2 2 2 2 1 4 7 7 8 10 8 8 5 4 7 8 7 5 3 1 3 6 9 10 12 15 17 19 20 21 21 23 24 25 26 27
10 6 7 7 9 3 3 5 4 3 2 2 1 1 1 2 2 2 1 2 3 3 2 3 8 11 10 8 6 5 6 5 5 4 3 1 2 4 5 8 10 12 15 17 18 18 19 20 21 22 24 25 25 24
4 8 5 5 6 4 5 4 5 3 2 2 2 2 1 2 2 1 0 3 6 3 3 4 4 4 5 7 7 6 5 4 2 1 1 2 3 4 6 9 12 14 16 17 18 19 20 20 21 22 23 23 23 21
6 8 4 2 4 3 1 2 0 2 1 2 1 0 1 2 2 2 3 5 5 8 7 5 4 5 6 5 4 3 2 1 2 2 1 1 3 6 9 11 13 15 17 19 21 21 21 22 22 22 21 20 20 20
4 3 4 3 1 0 1 1 1 1 1 1 1 0 1 1 2 2 1 4 3 4 4 4 3 0 3 3 2 2 3 3 2 1 1 3 7 10 11 13 16 17 18 19 20 21 22 22 22 21 20 19 19 21
3 4 2 5 1 1 1 1 1 2 1 3 1 3 1 2 2 2 2 4 4 3 3 4 5 4 3 2 2 3 3 2 2 2 5 7 10 12 13 16 17 18 18 19 19 19 20 20 20 20 19 20 20 21
3 5 5 5 3 3 4 2 2 3 5 1 2 2 3 3 4 5 5 3 1 2 4 3 2 2 2 2 2 2 3 3 5 7 8 9 11 13 15 16 17 18 18 18 18 19 19 19 19 18 19 19 18 18
5 7 4 4 2 1 3 4 4 5 4 3 5 6 6 6 5 5 3 2 2 1 1 1 2 1 2 3 3 4 4 5 7 10 12 14 16 16 17 18 19 19 19 19 18 16 16 15 15 15 15 15 15 14
4 4 2 2 0 1 3 5 2 1 1 3 5 4 7 7 7 5 3 1 1 2 2 2 3 3 4 5 6 7 9 11 13 15 15 15 16 16 17 18 18 19 19 18 18 17 17 16 16 15 15 15 15 14
3 3 4 2 0 3 5 1 2 1 1 1 2 3 5 5 3 3 1 1 2 3 3 3 2 3 4 6 8 10 12 14 15 16 16 16 16 16 17 18 18 18 18 17 17 17 16 16 15 15 15 15 15 14
2 3 2 3 2 2 3 5 1 1 2 3 3 3 2 2 3 3 2 1 2 3 3 3 4 6 8 10 13 15 17 17 16 16 16 17 17 17 18 18 18 17 17 16 16 16 15 15 15 14 14 14 14 14

GFSWCAN_850_spd_036.txt.gz
Wind_Speed
32 33 27 32 34 35 34 31 29 30 32 34 35 39 46 51 41 20 19 15 11 6 8 8 10 9 8 10 6 12 7 2 2 2 2 3 2 4 3 2 4 5 6 3 3 3 4 5 6 3 4 6 6 5
29 32 34 35 31 29 28 28 28 29 31 32 34 38 44 46 35 23 16 15 12 7 6 10 11 14 14 12 11 19 1 7 8 4 1 3 2 1 1 3 3 3 3 1 6 1 3 7 6 4 6 11 10 8
39 35 34 33 31 30 28 27 27 26 27 31 35 39 45 48 31 22 16 16 13 11 9 6 5 9 11 13 15 8 6 8 7 7 6 2 3 3 4 4 3 4 4 3 1 2 7 9 10 11 11 15 14 14
36 35 34 32 30 28 25 24 24 25 27 30 34 38 43 47 28 17 16 15 13 9 6 4 7 7 7 12 12 11 12 16 16 8 4 3 3 4 2 1 2 3 8 4 4 10 7 2 5 7 13 12 12 10
36 35 33 32 30 27 24 22 21 24 26 30 34 38 41 43 27 16 18 11 8 3 6 7 11 9 8 9 6 8 16 16 9 5 3 2 5 4 1 0 1 1 3 2 2 7 5 9 12 13 12 12 11 8
34 32 31 29 28 25 24 21 20 26 27 29 33 36 38 37 29 20 15 14 9 12 7 4 5 6 12 13 14 15 13 8 5 5 4 4 2 2 3 4 4 6 5 6 6 14 11 10 6 11 8 8 6 7
32 31 30 28 26 27 25 24 26 32 31 33 35 37 37 34 25 19 8 13 12 9 5 4 3 3 7 9 7 8 7 5 4 5 4 3 2 4 3 3 7 9 8 4 8 10 1 11 7 10 10 12 11 15
29 29 28 28 28 25 22 24 27 29 32 32 31 29 25 29 23 18 10 15 11 6 5 4 2 3 3 3 3 4 3 4 7 4 4 3 3 2 2 6 8 10 11 2 10 7 6 8 10 12 12 12 19 23
28 29 28 28 28 29 24 28 27 28 30 30 28 27 27 19 11 15 17 14 9 4 5 3 4 3 3 4 4 4 3 3 3 2 2 3 2 1 2 5 7 10 8 3 8 11 12 13 14 15 19 21 23 19
25 24 23 25 24 21 24 24 25 20 25 26 19 9 5 9 24 16 4 3 3 6 6 4 2 3 2 2 3 2 3 2 2 2 3 2 2 4 2 2 4 6 7 9 7 11 14 18 20 20 20 18 15 12
15 15 19 20 19 14 18 15 14 17 19 12 5 5 18 13 4 3 4 5 3 3 5 4 3 4 3 2 2 2 2 1 3 3 3 3 3 4 6 7 8 9 12 16 19 20 20 20 17 15 12 8 5 2
16 13 10 10 11 13 16 16 7 8 5 10 16 15 6 4 4 6 2 2 4 2 2 3 4 4 3 3 4 2 3 1 3 4 2 4 4 11 14 14 16 17 18 17 16 15 12 9 7 5 4 5 6 6
19 17 15 13 12 14 16 18 12 13 14 12 6 5 6 7 6 2 4 1 2 2 3 4 3 3 3 4 5 2 3 2 8 2 2 2 15 15 13 14 12 10 11 10 9 8 7 6 6 5 5 6 6 7
17 13 11 14 13 12 14 16 16 9 5 6 5 5 4 2 3 2 3 3 3 4 9 10 5 3 3 3 1 3 2 3 4 4 3 6 19 17 13 11 10 9 9 8 8 7 6 5 4 4 5 6 7 7
20 19 13 14 14 15 15 17 12 10 5 5 4 3 3 3 4 5 8 6 6 7 7 7 6 3 3 2 1 3 4 3 1 2 4 13 17 16 14 11 10 9 8 7 6 5 4 4 3 3 4 5 6 9
12 17 20 17 15 14 11 10 8 7 6 5 6 4 5 5 3 6 9 8 6 7 7 5 2 2 2 2 3 2 3 2 3 3 9 17 17 19 16 11 9 8 7 5 4 2 2 2 2 3 5 9 13 17
14 16 13 14 15 14 13 14 9 8 6 4 5 10 11 11 6 5 6 5 6 3 2 2 2 2 2 2 3 0 2 3 11 14 14 13 15 16 15 12 8 7 5 3 2 2 1 3 5 7 11 15 18 20
18 13 13 13 12 12 12 9 7 6 6 7 4 6 11 9 10 8 7 5 3 3 2 2 4 2 1 2 2 3 5 13 16 17 14 11 11 13 12 9 8 8 6 3 2 1 3 6 9 12 16 19 20 22
13 12 9 7 6 4 5 7 7 5 6 5 7 10 11 12 14 13 12 10 9 8 5 2 2 2 2 3 4 9 16 18 18 14 11 10 11 12 12 11 9 7 4 2 1 3 7 10 12 14 17 21 22 23
11 9 7 4 2 5 6 6 6 6 4 3 5 7 6 6 8 9 8 7 6 3 5 3 3 3 3 4 6 8 13 13 14 13 10 10 11 12 11 9 6 4 2 1 4 6 9 11 14 16 19 21 23 24
10 8 7 7 15 11 7 5 6 5 5 5 6 5 4 6 5 5 6 9 5 4 3 4 6 9 10 10 10 10 12 10 8 6 12 13 12 10 8 6 5 2 1 3 6 9 11 13 16 18 20 21 22 22
11 8 9 11 8 6 7 9 6 4 4 4 4 4 4 3 3 4 4 7 5 4 3 4 6 8 10 12 12 11 9 6 6 7 9 11 10 8 7 4 2 2 4 6 8 11 13 15 17 19 20 21 22 22
9 9 9 8 6 6 4 4 4 4 2 2 2 2 3 3 3 4 4 4 4 7 3 3 6 6 8 10 10 11 10 7 8 9 9 8 8 7 3 1 1 3 6 9 11 12 14 17 19 20 20 21 21 21
11 7 7 6 8 3 3 5 4 3 2 2 2 2 2 2 2 2 2 4 6 6 6 3 4 8 10 10 9 9 8 6 7 8 8 5 4 2 1 1 4 6 8 11 13 15 16 17 18 19 20 21 20 20
6 9 6 6 7 4 4 3 4 2 2 3 1 2 2 2 2 2 2 3 9 9 7 4 3 3 5 6 7 7 7 6 5 4 4 4 2 1 2 5 7 9 12 13 15 16 17 18 19 19 19 20 20 19
7 10 5 4 4 4 3 2 2 3 2 2 3 2 1 1 2 3 2 5 6 8 9 8 5 4 5 6 5 5 4 3 2 1 3 2 1 2 4 6 8 12 14 16 17 17 17 18 19 20 19 18 18 18
5 5 5 4 3 2 2 2 2 1 2 2 1 1 0 1 2 3 2 3 2 4 5 5 4 2 4 4 3 2 2 2 1 1 1 1 3 5 7 9 12 14 16 17 18 19 19 19 19 18 18 16 16 17
5 5 4 5 3 4 2 2 2 2 2 3 1 1 1 2 2 2 2 3 4 3 3 4 3 3 3 2 2 2 3 3 2 1 3 5 7 9 11 13 15 15 16 17 18 18 18 18 17 17 17 17 17 17
4 4 2 4 3 4 4 3 2 3 5 3 2 2 3 3 4 4 4 3 1 1 3 2 1 2 2 2 2 2 2 1 2 3 5 7 9 12 14 14 15 16 16 16 16 16 16 16 16 16 16 16 16 16
5 7 3 3 2 2 2 3 3 4 2 2 4 6 5 5 5 5 4 3 2 1 0 0 1 1 1 2 2 1 2 3 6 8 9 11 12 14 14 15 15 16 16 16 15 14 14 15 15 15 15 15 15 14
3 3 1 1 1 1 1 2 0 1 1 3 5 5 6 6 6 5 3 1 1 1 1 2 2 2 2 2 3 4 6 9 11 13 13 14 14 14 15 15 16 16 16 17 16 16 16 15 15 14 14 14 14 14
4 3 3 1 1 3 4 1 1 1 1 2 2 3 5 4 3 2 2 2 3 3 3 3 2 2 3 4 7 9 10 13 15 16 15 15 15 15 15 16 16 16 16 17 16 16 15 15 14 14 14 13 13 13
2 4 3 3 3 2 4 5 2 2 3 3 3 3 2 3 3 2 2 2 3 3 3 3 3 4 6 9 12 14 16 17 17 17 17 17 17 16 16 17 16 16 16 16 15 15 14 14 13 13 12 12 13 13

GFSWCAN_850_spd_039.txt.gz
Wind_Speed
39 39 36 34 35 32 34 32 29 34 31 36 40 44 46 44 52 44 7 11 11 11 12 8 11 21 10 17 6 12 8 2 3 3 3 3 2 4 2 3 6 6 7 3 3 3 5 6 6 1 6 8 9 11
34 34 35 33 32 33 33 21 28 33 40 38 38 39 41 48 48 27 6 12 15 11 9 11 15 15 13 9 10 19 2 13 10 4 1 2 2 1 1 3 3 4 4 1 6 1 5 4 4 4 7 10 11 12
34 35 34 34 33 28 24 34 39 36 34 35 35 37 41 54 45 16 5 15 12 10 10 9 6 8 14 16 17 7 6 7 8 4 6 2 3 4 3 4 3 3 2 2 1 4 0 4 4 3 8 10 13 12
21 22 27 32 35 37 35 32 31 32 32 32 33 36 43 53 43 9 3 13 10 10 5 4 4 3 7 12 14 12 13 14 14 8 4 3 3 4 3 1 3 4 6 4 5 7 5 5 5 10 12 11 11 11
34 32 30 27 25 26 25 26 27 29 30 31 35 38 46 49 39 17 13 13 14 3 5 9 9 7 6 7 8 9 11 13 10 4 3 2 4 4 2 0 3 2 2 2 1 5 5 8 10 10 9 10 10 8
33 30 27 24 22 23 24 25 27 28 31 34 37 41 43 43 25 15 6 7 7 9 7 4 5 7 10 12 13 13 11 8 5 5 4 5 3 2 4 4 5 4 2 2 4 7 4 5 8 11 11 12 12 13
32 30 27 24 21 21 27 30 30 31 32 34 36 40 46 33 21 13 7 12 3 7 4 4 5 3 6 6 6 8 7 5 4 5 4 3 4 4 3 4 6 1 1 0 4 6 8 10 7 10 11 12 11 11
33 27 31 30 28 29 28 32 33 33 34 35 37 38 43 30 12 8 18 17 9 4 3 4 3 4 3 4 4 3 3 4 7 5 4 3 4 1 3 6 3 4 4 6 6 8 9 9 10 11 12 13 16 18
33 31 31 31 32 37 35 34 36 34 35 37 40 40 26 13 6 11 17 15 13 3 2 3 5 4 3 4 4 4 3 3 3 2 2 3 2 2 4 4 4 6 3 6 9 11 11 12 12 14 15 14 17 14
32 30 32 27 29 30 35 39 39 37 37 38 30 13 8 10 21 17 5 3 2 4 5 3 3 4 3 3 3 3 3 3 3 2 5 2 2 6 4 4 3 3 3 11 12 11 12 14 13 14 12 10 9 7
28 29 31 26 19 20 20 26 28 29 29 18 8 5 20 18 11 3 3 3 3 3 5 4 5 6 3 2 3 2 3 2 3 3 3 3 3 6 6 6 6 8 9 8 14 15 15 15 12 10 7 6 5 5
17 18 22 22 20 15 16 25 11 18 9 11 19 21 10 4 4 5 2 3 2 2 2 3 5 5 4 3 4 3 3 2 3 7 2 3 4 12 13 13 14 16 17 17 16 15 12 10 8 6 5 4 4 5
8 7 7 9 11 14 18 21 22 18 22 18 7 5 4 5 4 3 5 2 3 2 3 4 3 4 4 4 5 2 3 2 7 2 2 2 15 18 16 16 15 13 13 12 11 10 9 8 6 5 4 5 5 5
11 11 10 10 9 8 10 15 9 10 8 8 6 5 2 3 3 2 3 3 3 5 11 10 5 3 3 3 1 4 1 3 4 4 3 6 20 19 17 15 14 12 13 10 9 8 7 5 5 5 5 5 5 7
9 6 9 9 9 10 11 16 17 5 8 7 6 4 4 3 5 4 7 6 6 7 6 6 5 4 3 3 2 3 3 3 3 1 3 17 21 19 16 14 12 13 12 10 8 6 5 4 4 3 2 3 6 8
22 21 18 17 12 12 13 13 14 9 6 4 6 3 3 4 4 5 9 8 6 7 6 5 3 2 3 2 3 2 3 2 3 3 14 25 19 18 16 14 12 11 10 9 7 4 4 4 2 0 4 7 10 13
15 20 18 19 19 18 9 12 8 9 6 4 5 12 10 10 6 5 6 5 5 3 2 1 2 3 2 2 2 2 3 3 10 11 15 18 22 18 16 14 13 11 9 8 5 4 3 2 1 3 4 9 12 12
16 13 11 13 17 19 22 14 7 6 7 9 5 7 12 10 9 9 7 7 5 3 3 3 3 2 1 2 3 3 6 16 16 16 16 16 18 18 13 11 10 10 7 5 4 2 1 1 3 5 8 11 12 12
12 9 7 5 6 5 6 7 7 5 7 5 7 10 11 11 14 13 12 10 9 7 4 2 1 2 3 6 6 13 16 19 16 13 14 13 16 18 14 13 10 9 7 5 5 3 1 3 4 7 10 13 13 13
10 8 5 4 4 6 6 6 5 6 4 4 6 6 5 5 7 11 12 11 8 4 6 4 4 5 5 4 8 12 15 13 14 13 11 10 11 12 11 9 8 7 5 3 1 1 2 3 7 10 13 15 14 16
7 7 6 5 15 13 7 5 6 5 5 5 5 5 4 7 6 8 8 10 8 6 5 7 7 9 8 8 9 11 11 12 9 8 12 12 10 9 9 8 7 6 4 3 1 3 5 7 10 13 15 15 17 15
10 7 9 11 8 6 7 10 5 4 4 4 5 5 5 4 5 7 6 9 6 7 6 6 6 7 9 11 11 9 9 9 10 14 15 14 11 9 8 6 5 4 2 1 3 5 7 10 14 15 15 16 16 14
8 10 9 9 6 6 3 6 5 5 3 3 2 2 3 3 4 4 4 5 6 11 7 5 5 7 9 10 10 11 10 9 10 10 10 10 9 8 7 6 4 2 0 4 6 8 10 13 14 17 15 16 15 15
10 7 7 6 8 4 3 4 3 3 3 2 2 2 3 4 4 3 3 5 8 9 9 8 6 6 7 7 9 10 9 8 9 10 8 7 7 5 4 2 1 2 4 6 8 9 11 13 16 14 17 17 14 14
6 9 6 7 6 4 3 3 3 3 3 2 2 3 2 1 2 3 3 4 8 10 10 8 7 7 8 8 7 6 6 7 6 6 7 6 4 3 2 1 3 5 7 8 10 12 14 16 16 16 17 14 14 15
7 10 5 5 4 4 3 2 3 3 2 2 3 2 0 1 2 3 3 5 6 8 9 9 7 6 6 6 5 4 4 5 3 3 3 4 4 3 1 1 1 6 13 15 16 17 17 17 16 16 15 13 14 15
5 6 6 5 3 3 3 4 3 3 3 3 2 1 1 1 3 3 4 7 4 5 6 6 6 6 5 4 3 2 1 2 2 1 2 0 1 2 3 4 7 12 16 17 17 17 17 16 15 14 14 13 13 13
6 7 4 5 5 6 3 3 3 3 3 4 3 3 3 6 4 3 4 3 3 4 5 5 4 4 3 3 4 4 4 4 3 3 3 5 6 8 10 12 15 15 15 16 17 17 16 15 15 13 13 14 14 13
5 5 3 5 4 4 5 4 3 4 6 5 3 2 3 4 3 3 2 2 3 3 3 5 5 5 4 4 3 3 3 4 3 3 4 3 5 7 16 16 15 15 16 16 16 16 15 15 15 15 15 15 14 13
5 7 3 4 3 3 4 6 5 4 6 6 5 6 7 5 5 5 4 3 3 3 3 2 3 2 4 3 4 4 5 6 7 8 8 8 10 15 16 15 14 14 15 15 15 15 15 15 15 12 12 12 11 13
4 4 2 3 3 3 4 4 3 3 4 6 8 7 7 5 4 5 4 5 4 3 4 5 4 4 4 4 4 5 6 10 12 14 15 15 15 15 13 14 15 15 16 15 16 16 15 15 13 12 12 13 14 14
5 4 4 2 3 3 4 3 2 1 2 3 3 3 4 4 3 2 4 7 5 5 4 4 4 3 4 5 7 9 11 13 16 18 17 17 16 16 16 16 16 16 16 16 17 15 14 15 14 13 13 13 14 14
3 3 2 2 1 1 3 3 1 2 3 3 3 4 4 4 4 1 3 3 4 3 3 3 3 5 7 9 12 14 16 18 18 19 19 18 18 18 17 17 17 17 17 17 17 15 14 14 14 14 14 14 14 14

GFSWCAN_850_spd_042.txt.gz
Wind_Speed
34 36 38 38 38 38 36 37 39 36 35 33 34 33 38 46 47 35 51 37 33 25 30 35 26 24 22 25 10 15 8 3 4 3 3 2 2 3 2 7 7 6 6 3 2 2 5 7 6 2 5 6 9 10
31 33 35 36 35 35 35 36 35 33 33 36 38 38 45 52 51 41 44 25 28 23 12 27 7 9 12 21 16 18 9 11 8 4 2 3 2 2 2 2 6 4 4 4 7 3 7 5 6 5 6 6 10 11
29 31 32 33 33 32 32 31 30 35 36 35 38 39 48 52 47 57 58 21 1 17 16 16 4 6 12 16 11 6 7 10 9 7 5 2 3 3 3 3 4 4 4 2 2 4 7 4 8 12 10 9 9 9
27 28 29 29 29 28 31 34 30 32 33 32 36 49 40 42 41 56 43 14 4 11 5 6 4 1 5 17 10 12 16 13 15 13 4 3 3 5 2 1 3 3 7 4 4 3 3 14 13 10 9 8 9 9
27 29 30 32 32 30 28 20 21 29 31 37 44 38 32 34 34 36 22 20 13 6 5 8 7 7 2 7 7 9 15 19 11 5 3 2 4 4 2 1 1 4 1 3 1 8 4 14 10 10 11 11 11 10
31 26 19 16 14 16 27 32 35 36 36 36 33 31 29 28 27 20 7 8 12 12 10 3 5 7 9 10 9 9 10 9 7 5 3 5 2 0 3 3 6 8 7 6 5 4 8 12 14 12 14 12 11 13
21 23 26 28 32 32 34 32 31 31 32 32 31 28 32 30 27 13 4 8 10 10 7 4 4 2 9 10 10 8 7 5 6 5 3 4 4 4 3 2 12 7 6 6 4 5 11 6 11 11 12 12 12 15
38 30 24 23 24 26 29 31 31 33 33 32 29 31 29 27 15 3 10 13 12 10 6 3 1 5 1 4 4 4 4 5 7 5 3 3 3 3 2 10 11 6 10 8 9 13 17 15 14 13 12 13 16 16
45 47 45 34 27 27 29 32 33 33 33 33 35 35 33 12 3 8 14 15 5 10 3 2 4 4 5 4 4 4 2 3 3 2 2 3 2 2 6 11 10 6 7 13 12 13 13 15 14 14 15 14 14 14
43 40 40 45 39 34 31 33 35 35 37 39 40 20 7 7 16 16 6 4 5 8 5 2 2 3 3 3 2 3 4 3 2 1 4 2 3 10 7 8 7 7 11 13 15 13 14 16 15 15 13 12 10 9
29 38 34 36 35 32 31 38 41 43 40 27 9 4 16 18 4 3 4 4 3 2 3 2 5 5 4 3 3 3 2 1 3 3 4 3 3 6 8 7 6 8 13 9 13 14 15 17 15 11 9 8 7 5
25 23 29 28 23 25 25 29 35 22 16 12 17 22 9 5 4 5 3 2 2 2 1 1 5 5 4 4 4 3 3 2 3 7 2 3 4 14 13 13 14 17 19 21 19 19 17 14 11 11 9 7 7 5
15 15 18 21 18 18 19 24 22 26 34 29 10 5 4 6 4 3 3 1 3 1 2 4 3 4 4 5 5 3 3 2 8 1 2 2 13 17 18 16 19 18 19 18 16 15 13 13 11 8 9 9 6 4
18 16 11 10 14 16 13 10 11 14 16 7 6 6 2 3 3 3 2 2 2 4 10 10 4 3 3 3 1 4 1 3 3 4 3 4 18 20 19 18 19 17 17 16 15 13 11 10 10 9 8 7 4 4
14 14 10 13 12 8 9 12 10 9 9 7 6 4 4 3 7 4 5 5 6 8 6 6 5 4 2 3 2 3 3 3 3 1 3 16 24 19 20 19 18 20 18 14 12 12 11 10 7 6 4 3 5 6
17 13 16 13 13 13 9 9 11 9 6 5 7 3 3 4 5 7 9 7 5 4 4 4 2 3 3 2 2 2 4 2 3 3 15 27 21 20 19 16 18 16 16 13 11 10 9 8 6 3 2 4 8 11
18 24 21 21 10 11 12 18 10 9 6 5 6 11 9 10 7 5 6 6 5 3 2 0 2 4 2 1 2 3 3 2 9 15 20 22 23 20 20 20 19 17 14 12 10 8 7 5 4 3 2 6 8 8
20 16 18 18 18 15 18 12 8 7 7 9 5 9 16 12 10 12 8 9 4 3 3 3 2 2 3 2 3 3 7 15 15 18 23 22 21 20 18 16 15 15 12 10 8 7 6 6 4 2 3 7 7 8
13 10 8 10 10 8 6 7 7 5 8 5 9 11 12 15 17 15 13 12 14 11 5 4 3 3 3 5 5 15 18 18 20 18 15 16 17 16 18 16 13 10 11 10 9 6 3 2 1 2 6 9 10 11
12 11 9 9 7 7 6 6 6 6 4 4 8 9 7 7 11 17 17 15 14 7 7 4 4 5 6 10 11 16 15 15 18 19 18 18 19 16 14 12 12 10 9 7 6 7 4 2 4 6 10 11 12 14
8 9 8 7 17 13 7 5 6 5 5 5 6 5 5 10 11 12 13 11 12 7 5 9 11 12 12 13 14 16 15 11 10 11 16 15 11 13 12 11 10 9 8 8 4 2 1 2 5 9 11 11 14 13
11 7 10 13 8 7 8 10 5 4 4 4 4 5 4 4 6 10 8 12 7 8 8 11 11 10 13 17 16 13 10 9 11 15 15 14 13 11 10 8 7 8 6 5 2 1 2 7 9 11 12 14 13 11
10 10 10 10 7 7 4 8 5 5 3 2 2 3 3 4 5 4 6 7 6 13 10 9 9 10 12 11 12 15 13 10 12 12 12 12 11 9 9 10 9 6 2 1 2 3 6 8 11 14 13 14 12 12
11 7 7 7 9 4 4 5 4 4 4 3 3 3 4 5 4 5 4 5 9 13 13 10 7 9 9 8 10 12 12 10 12 12 9 8 8 7 5 4 4 3 0 2 4 6 8 11 13 12 13 14 11 13
7 10 7 7 8 4 4 3 4 4 4 4 2 3 3 3 2 3 3 5 12 11 13 12 10 11 10 10 9 9 8 6 6 8 8 5 5 4 4 3 3 4 4 5 8 10 12 13 13 13 14 12 13 13
7 11 6 7 5 5 5 3 4 5 3 3 4 2 2 1 3 4 3 10 10 10 11 12 12 9 9 8 7 6 7 7 3 3 5 6 7 5 3 3 2 8 11 13 13 13 13 14 14 14 13 11 12 13
6 6 6 7 3 2 4 4 3 4 5 5 2 3 2 2 4 4 6 8 6 7 7 7 8 9 7 6 6 6 5 3 1 3 4 3 2 1 1 2 5 10 12 14 14 14 14 14 13 13 12 11 12 15
6 8 5 7 6 8 3 3 4 5 4 7 5 5 4 6 4 4 5 4 6 8 8 8 7 6 5 5 5 5 7 7 7 6 8 9 11 9 10 11 13 15 14 16 16 15 14 13 14 12 12 14 15 12
6 6 4 6 5 6 8 7 5 5 8 7 5 3 4 5 5 5 4 3 3 4 4 6 9 10 10 7 4 5 6 6 5 4 4 3 3 9 16 16 14 14 14 14 12 12 13 15 15 14 14 15 14 13
6 9 3 5 4 3 5 7 6 6 9 7 6 8 9 7 6 5 4 4 6 6 6 5 5 3 6 5 7 8 7 7 8 7 6 7 11 15 15 13 15 15 14 14 14 14 14 13 16 11 9 13 14 15
5 6 3 5 4 4 3 2 4 7 6 8 12 10 8 7 5 8 10 10 6 7 6 7 4 4 5 4 4 3 4 12 14 15 15 16 15 15 13 16 16 15 16 15 14 15 14 15 14 13 12 12 14 14
5 5 4 3 5 4 4 3 2 3 4 5 4 4 5 5 4 4 7 9 5 6 6 4 4 5 6 7 8 10 13 15 16 18 19 18 18 17 17 17 17 15 14 15 15 15 15 14 16 15 14 13 14 16
2 4 4 3 2 2 4 3 1 3 5 4 4 5 6 5 5 2 7 7 6 4 4 5 5 7 9 10 13 15 16 17 19 20 21 20 18 18 17 17 17 17 17 17 17 15 14 13 14 15 16 15 14 15

GFSWCAN_850_spd_045.txt.gz
Wind_Speed
37 37 36 36 35 35 32 32 31 36 35 33 33 35 38 39 37 31 45 38 15 6 18 9 35 22 16 18 6 9 7 2 4 2 4 2 3 4 4 8 8 6 6 3 3 2 5 9 5 6 6 14 15 14
30 30 31 33 35 35 34 34 34 37 35 34 32 34 34 33 37 34 31 40 29 20 11 10 19 22 30 32 26 18 12 11 17 4 3 4 2 2 3 2 2 2 6 6 7 6 6 20 25 22 20 18 14 13
26 28 29 31 33 34 34 34 34 38 37 33 30 35 28 35 29 36 36 26 24 15 27 24 4 14 26 23 26 17 11 19 6 9 5 3 3 4 3 3 3 2 4 4 5 1 11 22 23 18 15 15 12 10
24 26 29 30 32 32 32 31 32 34 33 30 30 30 33 33 26 33 39 35 24 8 3 8 9 21 33 37 36 28 16 14 19 17 6 3 3 5 4 4 4 5 5 6 4 13 22 19 18 17 15 14 11 8
23 26 28 28 29 29 28 28 29 30 29 29 28 26 30 27 26 31 30 43 40 20 3 10 20 15 18 21 20 21 22 26 16 6 4 2 5 5 2 3 1 1 4 4 4 9 17 13 19 15 14 16 11 7
20 21 23 25 26 28 29 30 30 32 32 30 30 26 26 25 29 19 9 32 39 35 9 4 7 12 10 11 16 6 11 13 9 7 3 4 3 4 3 3 2 17 18 13 7 16 23 21 15 11 13 12 11 11
23 25 25 28 30 33 33 30 26 30 33 30 30 33 28 35 36 33 12 5 10 15 6 3 1 5 9 15 21 20 10 9 7 6 4 4 3 4 3 3 11 18 18 18 21 26 20 11 12 12 14 15 16 19
18 21 19 16 15 16 19 19 19 29 28 27 29 31 29 25 31 42 17 2 8 7 9 4 1 3 4 5 4 6 5 5 9 5 3 3 3 3 3 8 20 19 20 16 13 9 21 22 17 18 17 19 22 23
21 23 24 23 24 24 25 27 32 34 36 32 30 28 28 28 16 13 14 15 18 9 6 3 4 3 2 5 4 5 6 4 3 2 2 4 1 2 5 16 18 20 13 26 22 23 24 22 22 19 21 22 21 18
36 22 19 22 25 28 31 33 34 37 42 41 32 14 4 6 16 5 4 4 7 8 7 2 2 2 4 3 3 3 2 3 2 2 3 3 2 10 15 18 15 17 22 19 28 24 23 24 23 21 19 19 17 13
43 41 32 25 25 28 29 32 35 42 46 20 4 5 20 18 7 5 5 5 4 4 4 3 2 3 3 3 3 2 2 0 3 3 4 1 2 4 10 11 14 13 14 12 15 20 22 25 25 21 17 13 12 11
37 41 34 39 34 33 34 38 44 32 11 7 19 22 10 4 3 6 3 3 4 2 2 3 5 4 4 4 4 2 3 2 2 5 3 3 1 16 14 13 13 17 19 22 22 23 21 20 19 16 15 15 13 12
29 26 26 30 30 35 42 33 13 25 38 27 7 5 3 6 6 4 2 2 2 2 1 3 3 3 4 5 6 2 4 1 7 3 3 2 12 17 18 23 25 28 28 28 27 24 22 20 15 14 17 13 11 10
22 22 20 18 21 22 23 20 31 29 12 6 6 6 4 4 4 3 2 2 2 3 12 13 5 3 3 3 1 4 0 2 3 3 3 4 17 23 21 24 29 27 24 22 19 18 17 16 17 16 13 10 7 6
18 17 17 17 12 8 6 10 9 7 8 8 8 5 4 3 6 4 5 4 5 7 9 7 5 3 1 3 2 3 2 3 3 3 2 15 23 22 24 26 26 25 22 17 19 18 16 15 14 15 11 8 5 4
18 19 22 18 15 8 5 9 6 14 8 7 9 4 4 3 4 7 9 9 5 6 4 3 2 3 3 3 2 2 5 3 2 2 15 25 21 24 27 26 24 20 17 18 18 17 15 12 11 10 8 4 2 4
20 27 16 13 13 12 13 19 10 10 7 5 5 11 8 10 6 4 4 5 5 3 1 2 4 2 1 2 2 3 2 2 8 14 21 23 29 26 23 24 19 20 18 18 18 16 13 12 10 6 4 5 2 5
22 17 15 11 14 14 20 14 8 7 7 11 4 10 16 12 9 13 10 10 4 3 3 2 2 4 4 3 2 2 6 14 17 22 25 25 24 24 26 26 23 19 17 16 14 14 14 11 8 6 3 2 3 6
15 14 13 13 8 8 7 8 8 6 8 5 10 12 13 18 22 19 15 15 16 12 6 6 5 4 3 5 4 13 14 17 21 25 25 23 24 25 23 20 18 16 15 14 13 12 12 10 7 4 1 3 6 9
14 13 16 13 6 7 7 7 7 7 5 4 9 13 8 11 19 24 23 21 21 9 8 4 3 7 6 9 12 15 16 18 21 23 20 19 20 19 19 18 16 16 17 15 11 8 7 5 2 2 5 7 9 10
11 15 13 13 24 15 9 6 7 6 6 5 8 6 7 18 19 20 18 18 16 8 5 10 17 20 20 18 17 15 13 13 17 19 23 22 18 19 17 14 13 14 13 11 12 11 8 5 3 5 8 9 10 9
14 10 11 14 10 8 9 11 5 5 5 4 5 6 5 5 6 13 19 16 8 12 9 14 13 15 20 23 21 17 17 18 17 17 15 15 14 14 12 13 14 14 12 9 6 4 2 3 5 6 8 11 11 10
11 10 10 11 8 8 4 8 5 5 3 2 3 3 4 4 6 6 7 8 11 18 14 12 11 12 14 14 15 17 15 16 18 17 15 14 13 13 12 11 8 8 7 5 2 2 4 6 8 10 12 12 12 11
12 9 9 8 10 4 4 5 5 4 4 3 3 3 3 4 5 7 3 5 13 16 18 18 9 13 13 15 17 17 14 11 14 13 8 7 8 7 7 8 7 5 3 1 2 4 6 8 11 12 13 13 11 11
8 12 8 7 10 6 4 4 6 4 3 4 3 3 2 3 3 3 3 5 14 14 19 14 12 13 14 13 12 12 10 8 7 9 10 8 6 6 6 6 5 4 1 3 6 8 10 12 13 13 13 12 11 11
8 12 6 9 6 5 4 3 4 4 2 3 3 1 3 3 5 4 3 8 11 12 12 14 11 9 11 10 9 8 8 7 6 5 8 8 8 6 4 1 3 4 8 11 13 13 13 14 14 14 12 9 8 12
6 7 9 9 5 2 3 4 5 6 5 5 3 4 2 4 4 4 6 10 8 9 8 7 7 9 10 11 11 10 8 5 6 9 8 6 4 2 1 3 5 8 11 12 13 14 14 14 13 13 12 11 12 15
6 7 5 10 9 13 4 4 4 5 4 10 6 6 3 4 4 4 5 6 5 8 10 11 10 8 5 5 4 4 4 8 8 7 5 6 8 9 12 15 15 16 16 16 16 15 14 14 15 15 14 13 12 11
6 8 4 7 6 7 10 7 5 5 8 6 4 3 4 6 10 8 6 3 5 3 4 9 8 9 10 11 9 9 6 5 3 3 3 2 7 12 16 15 14 14 16 16 14 14 13 14 14 16 16 10 11 11
8 11 3 6 5 4 6 7 8 7 9 8 9 12 15 10 9 5 5 7 9 9 7 4 3 3 6 5 7 6 6 8 9 9 9 11 13 14 13 14 16 18 17 17 16 15 14 14 14 13 12 10 10 13
5 7 4 5 5 4 3 5 9 10 12 15 11 12 11 9 10 10 10 10 6 8 4 7 6 5 4 3 4 6 10 13 14 14 14 15 15 15 16 16 17 16 16 14 15 17 16 15 13 13 16 16 14 15
6 7 5 3 4 4 4 4 2 4 5 8 7 7 7 6 5 4 6 4 4 4 3 3 5 6 6 7 9 11 12 14 16 19 20 19 18 17 16 15 15 16 16 17 17 18 18 17 14 12 16 19 20 20
3 6 7 4 3 2 5 3 3 4 6 4 5 9 7 5 4 3 6 6 7 8 8 7 6 8 11 11 14 14 15 16 18 19 19 20 19 17 16 17 18 18 17 16 15 14 13 10 10 13 17 20 21 18

GFSWCAN_850_spd_048.txt.gz
Wind_Speed
38 39 38 37 35 33 33 34 35 36 35 36 38 38 36 48 52 52 36 34 15 5 13 4 16 20 34 30 9 7 6 1 3 3 4 4 3 5 4 6 7 7 6 3 3 3 6 8 5 7 7 15 19 16
35 34 34 33 34 31 30 31 32 32 34 35 36 38 49 47 53 42 25 27 26 13 9 16 14 21 22 38 25 18 5 8 9 4 2 2 2 2 4 3 3 2 7 6 8 5 3 3 12 23 25 24 16 16
28 29 27 30 30 28 27 24 27 29 31 31 31 43 48 41 44 40 21 24 23 16 24 23 17 9 26 31 36 13 6 11 8 8 4 3 3 4 4 4 4 1 6 4 5 4 5 19 22 23 21 20 17 14
25 25 26 28 28 25 25 24 26 30 31 28 24 33 31 31 33 37 26 13 20 4 2 10 6 10 17 28 39 35 20 20 20 16 5 4 4 6 4 4 5 6 8 6 5 2 15 13 18 22 21 18 15 14
24 26 27 29 29 29 28 26 28 29 26 26 25 31 28 30 32 24 17 22 18 14 2 10 14 10 15 28 32 28 26 30 18 6 4 3 4 3 2 3 1 4 6 5 5 19 9 10 18 20 18 16 15 15
24 27 29 30 31 30 27 27 29 28 27 24 24 28 22 30 27 20 11 26 33 26 6 3 8 9 15 16 21 20 29 17 9 6 3 4 4 4 3 2 1 5 8 17 10 25 19 24 19 15 16 16 15 16
23 26 27 28 30 29 28 27 27 27 26 23 23 21 21 28 24 23 7 10 35 23 3 4 3 3 18 17 11 11 11 12 7 3 3 3 2 4 2 3 10 15 17 20 28 32 23 22 14 17 17 18 18 22
27 26 26 27 28 29 28 29 30 28 27 25 20 17 20 24 25 29 14 11 8 20 4 4 3 4 11 4 4 6 4 8 7 6 4 2 3 3 2 5 22 25 27 28 24 5 22 24 23 21 21 26 29 29
25 29 29 31 31 30 31 30 28 28 26 26 29 28 21 28 18 27 25 19 13 13 5 4 3 3 6 6 6 6 3 3 3 3 1 1 2 1 1 16 23 30 13 25 19 22 27 26 25 25 27 28 28 25
21 17 18 23 22 24 30 32 31 33 35 33 34 14 6 12 15 28 15 7 11 10 7 1 2 2 4 3 4 3 5 2 2 1 1 3 2 3 10 18 21 15 26 29 32 23 26 26 29 29 25 23 24 21
27 24 21 22 25 30 35 39 41 47 42 26 9 4 8 18 16 13 6 3 2 2 4 4 5 3 5 4 2 4 2 2 3 2 3 1 2 3 14 19 21 24 24 17 12 24 23 28 31 28 25 21 19 17
31 30 28 27 31 32 35 40 47 47 19 13 13 16 14 8 7 5 2 2 4 1 3 2 5 6 5 4 3 3 3 3 2 4 3 2 2 15 16 16 19 21 18 19 22 26 29 27 26 24 20 19 17 16
36 34 33 33 37 42 49 35 17 27 30 10 4 4 5 6 7 4 2 2 2 3 1 2 3 4 4 6 5 3 4 2 2 2 4 1 9 18 16 19 25 25 25 27 29 29 29 26 21 18 21 18 17 16
31 37 35 34 41 47 11 34 34 20 7 6 6 6 4 3 3 2 1 2 2 2 12 10 4 3 4 3 2 3 1 1 1 2 4 3 14 20 25 29 30 31 29 29 29 27 25 21 20 19 17 16 14 12
21 22 21 23 20 20 16 22 9 3 6 7 7 5 4 2 6 4 5 5 6 6 7 6 6 4 2 3 2 3 2 4 4 3 2 14 22 27 28 32 32 33 31 29 26 22 22 21 20 19 16 13 10 8
17 20 18 14 12 10 11 9 7 7 7 6 9 4 5 3 5 8 9 7 5 6 5 4 3 3 2 3 2 2 4 2 1 1 14 24 27 30 32 31 30 25 24 25 24 21 17 17 19 17 15 10 8 5
17 23 17 13 10 9 6 7 9 11 8 6 5 13 7 8 6 5 8 8 5 3 2 2 4 2 1 3 3 3 2 1 5 14 20 27 30 31 31 28 24 26 24 22 19 19 19 17 15 14 12 9 5 1
25 14 10 12 15 10 23 15 9 8 9 10 5 13 19 17 9 14 14 10 3 4 3 3 4 5 4 3 2 2 5 13 16 21 25 27 29 27 26 24 18 20 21 21 22 19 18 18 15 12 9 8 4 3
19 14 9 7 7 7 8 9 8 6 10 6 14 16 15 18 25 21 17 17 19 14 7 6 5 3 3 4 5 10 11 14 20 24 25 24 25 23 21 21 21 23 24 23 21 20 18 14 11 9 7 6 6 5
14 18 14 8 6 7 7 7 7 8 5 5 14 21 16 15 19 25 27 26 23 10 8 5 4 9 7 9 8 10 17 21 26 26 24 23 21 23 23 23 22 21 20 19 18 17 15 12 9 6 5 4 5 7
12 16 13 23 30 16 8 6 8 6 6 6 8 9 10 24 29 25 26 23 21 8 6 12 15 21 20 16 14 14 14 16 19 22 24 22 20 19 19 18 18 18 19 18 16 14 10 6 3 3 4 6 8 9
17 12 15 16 11 8 10 12 6 5 5 4 4 6 5 5 10 16 21 17 10 12 12 15 18 21 24 24 19 18 16 14 16 18 18 18 18 16 14 13 13 15 14 11 8 7 5 2 3 5 7 8 10 12
13 14 12 15 9 9 5 9 6 6 3 2 3 4 4 5 6 7 7 10 11 22 15 17 15 16 19 18 19 19 17 17 19 16 14 14 13 13 13 12 10 9 9 7 4 2 0 3 6 8 10 12 13 13
14 10 9 8 12 4 5 7 6 5 5 4 3 3 3 4 6 7 4 5 15 18 20 15 14 15 16 19 21 19 17 12 14 15 12 9 10 10 8 8 7 6 5 2 2 3 5 8 10 12 13 14 13 12
9 12 9 7 10 6 5 5 7 5 3 4 4 4 3 5 3 4 3 6 16 19 17 16 15 16 17 16 15 15 12 10 10 10 12 10 9 9 8 7 5 4 3 3 5 8 10 12 13 14 14 14 13 12
7 10 5 8 5 4 1 3 4 4 3 4 3 3 4 4 5 4 3 8 12 13 13 13 13 13 16 14 12 12 12 11 6 8 12 8 6 5 5 4 4 4 7 10 11 12 13 13 14 13 13 12 12 12
6 6 7 9 4 3 4 7 7 7 4 5 3 5 3 5 4 3 5 9 9 10 8 9 10 11 11 11 11 11 10 9 8 10 9 7 6 5 4 6 7 9 10 12 13 13 13 13 12 12 12 11 12 13
7 9 5 12 9 14 4 4 4 4 3 9 4 6 3 3 3 4 7 5 8 8 10 12 11 9 8 7 6 5 5 7 7 6 4 5 6 9 12 14 13 13 13 15 15 15 15 16 16 16 15 16 13 8
7 7 5 8 6 8 9 5 5 6 9 5 3 3 4 5 11 10 7 5 2 3 5 5 6 7 9 8 8 9 7 4 4 6 7 9 12 13 14 14 14 15 16 17 15 16 13 13 15 17 17 15 14 12
8 10 3 6 5 3 6 7 10 7 13 12 11 19 20 16 12 6 5 4 5 7 7 5 3 2 5 6 6 5 6 7 8 9 11 12 13 15 15 16 16 17 18 18 19 18 16 16 15 13 12 12 13 15
4 6 5 6 4 7 14 12 15 17 17 12 13 19 14 11 14 11 12 9 4 4 4 5 4 4 3 4 6 9 11 12 13 14 15 16 16 16 16 16 16 16 17 17 17 19 20 19 19 18 16 13 15 16
6 7 3 3 4 6 7 6 4 11 9 10 10 9 8 4 4 3 7 6 4 3 6 6 4 5 5 7 10 14 14 15 17 19 19 19 19 18 17 16 17 18 18 18 18 17 17 17 17 15 14 13 16 17
5 7 7 4 3 3 4 1 4 5 5 4 4 7 6 4 4 2 4 4 5 5 6 6 7 9 10 12 14 17 16 18 18 18 18 17 18 18 18 19 19 20 19 18 16 16 14 13 13 14 14 15 17 19

GFSWCAN_850_spd_051.txt.gz
Wind_Speed
33 37 44 45 40 41 49 49 48 44 36 35 38 39 43 41 48 53 25 29 16 7 8 3 18 13 24 30 10 6 6 8 3 4 3 4 3 5 4 6 8 7 7 4 3 3 6 7 6 8 7 12 23 17
33 35 35 35 37 39 37 38 36 33 34 34 36 37 42 42 48 44 17 41 18 10 5 8 9 17 19 22 20 18 4 7 12 3 2 2 2 1 4 3 1 2 6 6 8 6 2 4 5 7 24 31 21 23
32 32 32 32 32 32 32 33 34 33 33 31 36 40 40 40 32 37 25 37 22 3 19 13 8 11 14 21 25 16 11 8 8 7 5 2 3 3 3 4 3 2 4 4 4 2 1 5 15 25 26 26 21 21
29 30 32 32 31 30 31 31 32 32 30 31 34 35 33 31 32 32 29 28 31 5 3 8 7 8 13 14 23 32 20 19 11 11 4 3 3 6 3 2 2 4 8 6 2 1 7 6 17 23 23 23 22 20
23 26 27 27 29 27 26 26 26 28 29 30 30 34 35 38 40 33 28 20 22 21 2 11 16 13 11 12 24 30 36 25 14 4 3 3 5 4 2 2 2 6 7 6 5 19 8 14 22 22 24 22 19 18
22 23 24 24 23 23 24 27 27 29 24 30 35 48 49 45 40 31 9 18 22 18 5 3 11 10 7 10 19 27 34 27 17 8 4 4 3 4 4 4 5 13 11 11 8 29 12 29 25 22 22 20 19 19
22 23 25 25 26 24 25 29 30 27 27 35 34 31 31 32 31 19 9 8 26 16 5 4 5 5 3 6 14 13 21 12 8 6 3 4 2 6 3 4 6 11 12 13 24 35 21 29 18 21 21 22 22 23
24 27 28 28 27 28 29 29 29 27 28 30 28 26 26 26 25 21 14 7 36 15 6 3 4 5 1 1 3 4 6 4 4 4 4 2 4 3 2 1 15 19 23 26 23 13 27 26 27 25 23 27 29 29
26 27 29 28 27 28 29 29 28 25 27 26 26 27 25 18 12 13 8 29 28 10 9 5 2 3 3 3 2 3 5 2 3 0 1 3 2 2 2 4 15 28 11 24 19 22 29 31 29 29 31 30 32 31
29 29 29 27 27 28 30 31 28 27 28 23 28 12 9 17 16 16 13 5 8 7 6 2 2 2 5 3 3 2 5 2 2 4 6 3 2 7 4 9 18 10 23 29 34 24 30 31 32 32 30 29 28 28
30 30 31 30 29 29 29 29 27 27 20 25 12 5 26 25 11 5 4 3 3 2 7 7 3 3 3 3 3 4 2 3 4 2 4 3 2 4 13 20 17 17 22 19 12 24 25 31 36 34 29 27 26 25
29 29 31 32 32 31 32 32 30 35 33 20 12 32 22 6 4 2 2 2 4 4 3 3 5 3 2 6 3 3 3 2 2 4 3 3 2 17 19 23 22 23 18 15 18 26 27 29 31 31 29 26 22 20
28 30 30 30 32 35 37 37 43 41 20 15 4 6 3 1 4 6 6 2 2 2 3 5 2 2 4 4 3 3 5 1 1 2 2 1 6 18 21 25 23 19 21 26 27 27 28 29 28 27 26 22 22 21
30 31 34 35 37 43 43 48 43 13 5 4 2 4 3 2 2 0 0 1 2 2 9 10 5 2 2 3 1 5 1 2 2 1 4 1 13 21 24 25 27 27 26 26 27 28 29 30 27 22 22 21 19 18
26 28 28 28 34 40 38 29 6 3 4 6 5 5 4 2 4 4 5 4 6 6 6 6 5 4 2 3 2 3 2 3 4 3 1 12 23 25 26 27 28 28 27 28 30 30 27 26 26 24 21 18 14 14
28 28 23 18 21 35 28 18 5 7 6 7 10 4 9 2 6 9 12 10 12 5 4 6 3 4 3 2 2 2 3 1 0 1 12 25 25 24 26 27 29 30 29 29 28 26 28 23 20 19 18 16 14 10
14 17 18 16 12 13 10 9 9 10 8 6 5 15 7 4 5 8 10 11 9 6 2 2 5 3 1 3 3 4 3 2 3 13 19 23 25 25 26 27 28 27 27 26 28 25 21 18 18 21 19 16 13 9
22 15 14 16 17 15 18 13 8 8 7 10 4 12 19 19 12 16 14 12 4 4 4 4 5 5 4 4 3 2 6 10 11 17 19 21 24 25 26 26 24 23 24 22 19 20 20 20 18 16 14 13 10 7
13 10 11 8 7 8 7 8 9 6 12 7 14 13 14 16 26 21 18 18 22 16 8 6 5 4 3 4 4 7 7 11 17 21 21 21 23 24 21 19 20 20 20 20 21 22 21 17 14 13 11 9 7 6
19 11 10 9 3 8 7 7 7 8 4 4 12 21 14 13 19 26 29 25 23 11 9 5 4 9 8 14 11 9 14 19 24 26 23 20 19 19 19 20 21 21 21 21 19 17 16 15 12 10 9 8 7 7
19 21 20 21 28 16 9 6 7 6 6 6 11 12 11 24 31 29 29 25 24 8 6 12 15 20 18 18 16 14 15 17 18 21 21 19 17 18 18 19 19 19 18 17 17 16 12 9 8 6 4 5 7 8
18 17 21 18 11 9 11 13 6 5 5 5 5 6 5 5 10 16 19 19 10 12 12 17 21 23 26 26 22 20 18 18 20 20 19 19 19 17 15 13 11 13 12 11 9 8 7 4 3 3 4 8 9 10
13 16 13 14 9 9 5 10 6 6 3 3 4 4 4 6 6 9 8 10 11 20 17 16 18 21 24 25 25 25 22 21 23 20 18 17 16 15 14 13 10 10 10 8 5 3 2 0 3 5 8 10 11 11
14 10 10 8 12 3 5 7 6 5 5 4 3 3 3 5 7 7 4 5 16 20 21 19 17 19 21 23 27 24 21 17 18 18 16 12 13 14 11 11 10 9 7 5 2 2 4 6 8 10 12 13 13 13
9 12 8 6 9 7 6 5 6 5 3 3 4 3 3 5 3 3 3 7 17 19 19 18 18 19 21 21 20 19 17 16 16 17 18 15 14 12 11 10 8 7 5 5 5 7 9 11 12 14 15 15 14 14
8 11 6 6 5 4 1 3 4 3 3 4 4 4 5 4 4 4 3 9 12 14 15 15 15 17 19 17 16 16 15 12 10 12 14 10 9 8 7 7 6 6 8 10 11 11 11 12 12 13 13 14 14 14
6 6 8 9 4 4 6 7 7 6 5 4 3 4 3 5 3 3 4 9 10 10 10 11 12 13 13 13 14 14 13 12 12 14 12 9 9 9 8 9 9 9 10 12 13 14 15 15 15 15 15 14 13 15
7 8 4 10 9 12 4 4 4 4 3 7 4 5 3 3 3 4 5 5 6 8 9 12 14 14 12 10 9 8 10 11 9 8 8 9 10 11 12 11 12 13 14 16 17 17 17 18 17 18 19 20 19 16
7 8 5 10 7 8 9 4 4 5 9 3 4 2 3 4 7 9 8 4 1 2 4 6 9 10 9 9 9 8 7 7 6 7 9 11 12 13 14 14 16 17 18 19 18 18 17 15 18 19 19 18 16 16
8 8 5 6 5 4 8 6 10 11 13 12 12 20 21 19 13 8 6 5 5 7 7 5 4 3 5 5 6 6 7 8 11 12 14 16 16 17 18 18 18 18 18 19 19 19 19 19 19 19 18 17 16 14
5 5 6 6 5 8 14 17 17 15 17 17 22 22 14 11 13 11 9 8 6 5 4 3 4 5 5 5 7 10 12 13 15 16 16 16 16 16 17 18 18 18 19 19 20 20 20 19 19 18 17 15 13 12
6 6 5 3 4 14 14 3 6 7 6 7 6 8 7 4 4 3 5 4 4 3 3 5 5 6 7 8 11 13 15 16 17 17 17 17 17 18 18 18 18 19 19 19 20 20 19 18 18 18 17 15 14 15
5 10 10 6 5 6 3 4 4 4 5 3 3 3 4 3 3 3 2 2 3 4 5 7 7 8 10 11 13 15 15 16 17 16 16 15 16 17 18 19 18 18 18 18 18 17 16 16 16 16 15 14 14 14

GFSWCAN_850_spd_054.txt.gz
Wind_Speed
16 16 20 24 29 42 49 53 46 47 47 50 50 56 58 48 50 51 37 31 10 6 6 3 10 16 18 30 7 8 6 9 3 6 4 4 3 7 4 3 6 7 7 3 3 3 6 11 7 9 8 3 25 25
31 36 39 45 48 43 41 41 42 44 46 47 44 50 51 44 40 44 23 28 26 14 5 6 10 12 21 31 30 19 9 8 14 4 2 3 2 1 4 4 1 3 6 6 9 7 3 16 6 16 7 9 24 26
28 30 31 32 35 39 38 39 41 44 43 42 43 47 45 42 37 38 30 33 22 14 15 17 12 7 16 22 24 17 13 6 8 9 5 3 3 4 4 5 2 3 3 4 4 5 5 10 15 11 15 21 26 26
25 28 30 33 35 39 45 45 43 48 43 40 36 38 38 37 34 33 28 33 28 14 3 7 7 12 14 15 24 27 13 27 15 6 2 3 3 7 3 3 4 4 7 6 3 3 2 10 15 17 19 22 24 24
24 24 24 24 25 27 29 30 30 31 31 33 35 35 32 37 36 28 35 22 32 21 5 5 12 11 14 18 20 22 30 27 9 4 2 3 3 5 1 1 3 7 7 5 6 11 8 10 22 22 26 26 25 26
24 26 26 26 26 26 28 29 29 29 28 28 38 34 40 36 33 39 14 31 39 18 4 2 6 5 7 11 21 30 28 32 22 9 4 4 5 7 4 4 5 19 17 20 5 13 13 20 27 26 26 25 23 22
22 22 21 24 23 24 25 25 26 26 28 30 32 32 32 33 34 13 7 17 23 16 1 3 4 3 5 2 9 10 23 17 15 12 6 5 3 7 2 4 3 11 16 16 15 24 13 27 18 25 25 24 23 22
21 21 20 26 25 23 24 22 23 22 28 38 36 36 34 36 22 13 17 25 20 10 5 1 3 5 3 1 2 6 8 7 5 7 6 3 3 1 4 2 4 8 12 17 25 15 20 28 30 27 24 25 26 26
26 26 27 30 32 31 31 38 34 35 41 44 45 50 41 22 14 14 15 9 22 6 6 4 2 2 0 0 1 3 3 2 2 2 2 6 2 5 4 5 13 14 8 20 15 13 25 33 33 30 29 29 31 32
25 27 29 31 30 30 29 32 33 36 42 45 42 15 8 18 18 18 16 11 12 5 3 2 3 2 2 2 3 2 4 2 2 2 8 3 3 3 3 7 16 16 9 21 29 21 31 32 33 32 30 30 29 32
26 26 27 29 29 29 29 32 32 36 43 19 6 5 20 24 13 5 5 6 6 4 8 8 13 2 3 2 1 1 2 1 3 3 3 2 3 4 12 16 18 12 15 21 11 21 25 31 36 35 33 32 32 31
24 24 24 24 26 26 27 27 30 25 12 4 13 24 23 8 7 4 3 2 3 5 5 3 6 11 6 4 3 2 3 2 4 3 3 3 1 8 22 27 19 18 19 11 14 24 24 29 31 33 32 30 28 29
24 23 22 23 23 21 21 18 22 13 20 9 6 6 3 1 3 4 4 2 2 3 4 6 2 4 5 3 3 1 2 2 1 2 1 1 1 13 18 23 25 23 20 21 25 26 27 27 27 29 32 31 28 25
26 23 23 22 21 21 21 23 18 16 6 4 3 4 2 3 3 1 1 1 2 1 4 8 5 1 3 3 2 2 1 0 3 1 3 1 9 17 22 24 27 25 23 25 25 26 27 29 30 30 27 25 25 25
23 21 20 20 23 22 20 18 20 12 1 3 5 4 4 3 5 5 5 5 7 5 4 4 4 3 3 3 1 2 2 2 2 2 2 5 16 20 22 23 24 24 25 25 26 28 30 31 29 26 25 24 19 18
20 22 21 27 26 31 30 22 7 3 5 6 10 5 10 4 7 11 14 9 11 5 3 4 3 3 3 2 3 3 2 2 2 2 6 15 16 18 21 22 24 25 24 25 26 29 29 26 27 27 24 19 15 13
18 14 22 24 22 23 19 21 5 5 6 6 5 19 9 6 7 8 11 14 9 3 2 2 4 4 1 3 3 4 3 3 5 7 9 14 17 18 20 21 22 24 26 28 29 28 29 26 23 21 19 16 15 13
19 18 23 28 30 24 19 4 4 8 8 11 5 15 20 19 16 16 16 17 5 4 5 4 6 6 4 4 3 4 7 11 10 12 12 13 15 17 19 23 25 27 28 28 27 23 20 19 18 17 16 15 13 11
18 16 18 20 7 6 6 7 8 6 13 8 16 14 16 22 29 25 23 20 23 17 9 6 6 4 3 5 9 16 7 7 16 23 22 19 20 24 25 24 23 23 23 21 20 20 19 18 17 14 12 11 8 6
13 14 13 12 6 6 7 7 7 8 6 7 12 23 22 18 23 29 32 28 25 11 10 5 5 9 11 17 16 9 12 15 23 27 26 24 22 21 20 19 19 18 19 18 17 15 15 14 12 10 8 5 3 3
19 21 20 17 29 16 9 6 8 6 8 8 14 14 12 25 34 33 31 24 23 9 6 12 16 18 18 17 16 16 15 16 21 23 22 23 19 19 19 17 16 16 15 14 13 13 10 8 7 5 5 5 5 5
20 22 23 16 10 8 10 12 6 5 6 5 6 6 6 6 10 16 19 19 10 12 14 16 19 21 25 29 27 25 23 24 24 24 23 22 23 22 21 18 14 16 15 13 10 8 7 4 2 1 3 4 6 8
12 15 12 12 9 8 4 7 5 6 4 3 4 4 5 5 6 9 8 10 10 18 17 15 17 22 26 27 29 29 27 27 30 28 25 24 23 21 19 17 15 14 13 12 8 6 5 4 5 6 8 10 11 13
14 10 10 8 12 3 5 7 6 5 5 4 3 3 3 5 7 7 4 5 15 19 21 19 18 21 24 27 31 27 25 22 24 24 22 19 20 21 17 16 14 13 12 9 6 6 7 8 10 11 12 14 14 15
10 12 8 7 9 7 6 5 6 5 4 3 3 4 3 5 3 3 2 7 15 18 18 19 20 21 24 23 23 23 20 20 20 22 22 19 18 15 14 13 12 11 9 8 8 9 9 11 12 13 14 15 15 15
8 12 6 6 5 5 2 3 4 3 3 3 4 3 4 4 4 3 3 6 10 13 14 15 15 18 21 20 19 19 19 16 14 18 19 14 13 12 12 10 9 10 11 12 12 13 14 14 15 16 15 15 15 16
7 6 7 9 5 6 6 7 7 6 5 4 2 4 3 5 3 3 4 6 8 10 10 10 11 12 15 17 17 17 15 13 15 17 14 11 12 12 11 11 11 12 13 15 16 17 17 18 18 18 17 17 18 18
7 9 4 10 10 12 4 4 4 4 3 6 4 5 4 3 2 3 4 4 6 8 9 12 15 14 12 12 12 11 11 12 13 11 11 10 11 12 12 12 12 13 14 16 17 17 17 18 18 19 20 21 20 18
8 7 4 10 7 9 9 4 4 5 6 3 4 2 3 4 6 8 9 5 1 2 4 6 9 10 10 10 10 10 9 9 6 8 10 11 11 13 13 14 14 15 15 15 16 17 18 18 19 20 21 22 21 20
7 8 6 7 5 4 9 6 8 9 10 11 10 16 17 15 13 10 8 6 4 4 6 5 6 5 5 5 6 6 8 10 12 12 13 13 13 14 15 15 16 16 17 17 17 17 17 17 17 17 17 16 15 13
4 4 6 6 5 5 11 15 17 19 21 20 21 20 14 9 9 7 5 5 5 6 4 4 4 4 5 5 7 10 11 12 12 13 13 12 13 14 14 15 17 17 17 18 18 18 19 19 19 19 19 18 15 13
6 6 5 4 4 18 6 4 4 5 4 4 5 6 6 4 3 4 3 5 4 1 2 3 4 4 5 7 8 10 11 13 13 14 13 13 14 15 16 16 16 15 15 15 16 16 17 17 18 17 17 16 16 15
7 11 11 6 6 7 7 3 3 4 4 3 3 3 2 2 3 4 5 2 1 1 3 5 5 6 7 9 10 12 13 13 13 14 14 14 15 16 15 14 14 13 13 14 14 15 15 15 16 16 16 16 16 16

GFSWCAN_850_spd_060.txt.gz
Wind_Speed
15 14 14 17 18 23 30 38 42 48 47 50 54 75 71 63 62 39 36 31 24 17 16 10 22 25 37 26 14 22 11 7 7 8 6 5 4 5 5 6 6 8 9 5 6 6 10 11 11 10 13 4 8 13
15 13 13 11 12 19 28 34 40 42 45 47 67 71 65 62 58 44 30 34 23 9 6 6 14 18 26 36 24 26 12 19 11 7 6 5 3 1 7 8 5 5 5 2 8 5 2 27 16 23 7 9 9 13
18 19 15 12 10 17 24 28 37 35 58 65 64 57 56 56 56 38 32 33 23 7 2 5 7 11 22 30 28 15 18 12 13 11 5 4 4 6 5 7 8 6 3 4 4 10 11 10 19 9 10 10 7 9
27 22 26 23 41 34 36 40 44 58 60 58 50 52 55 50 32 38 35 29 24 9 3 4 7 15 10 18 33 23 15 13 9 13 5 3 3 6 6 11 10 10 10 12 16 14 6 14 18 21 15 14 14 12
29 29 30 30 29 35 39 43 45 42 42 43 41 47 50 48 31 35 36 26 18 8 2 4 6 7 7 10 24 23 11 16 10 5 3 4 3 3 2 2 7 9 11 6 8 12 12 15 10 19 21 20 16 17
25 28 32 33 32 34 34 33 33 37 36 38 37 45 49 38 35 31 9 15 15 9 4 2 7 13 10 6 15 23 27 17 9 6 4 7 6 7 4 9 15 23 20 20 18 11 13 13 10 10 15 16 18 20
22 24 28 31 31 32 33 32 39 40 36 35 36 43 44 35 29 10 6 15 12 9 4 2 3 8 19 15 13 15 21 21 17 15 8 9 6 8 4 11 13 12 18 20 12 11 8 15 6 11 14 15 18 18
22 22 26 27 28 30 33 34 34 37 35 35 36 34 33 33 24 15 12 15 18 9 4 3 3 4 15 12 9 14 12 12 10 8 3 9 10 4 6 14 26 27 21 13 16 17 15 12 11 10 12 15 19 22
20 22 23 24 24 26 29 31 31 32 33 34 32 29 25 14 7 5 6 7 20 5 4 3 3 3 15 10 10 8 8 3 5 3 5 6 7 8 8 17 16 16 18 18 15 15 12 11 10 12 15 19 22 22
22 18 21 25 26 26 24 26 29 29 32 33 27 8 5 10 11 14 8 8 10 5 5 3 1 4 6 9 5 4 2 3 3 4 8 4 10 19 18 10 9 16 18 15 8 8 10 10 11 12 15 16 18 22
26 25 20 20 25 28 30 32 32 34 33 19 5 3 7 19 15 8 6 4 6 4 9 8 9 5 2 2 3 2 3 4 4 3 3 3 1 4 16 12 10 7 7 9 7 8 8 9 16 18 16 16 19 23
23 24 25 23 34 33 31 32 33 19 9 7 11 15 13 6 2 2 4 4 6 5 7 3 3 4 5 4 2 2 2 1 2 2 1 1 3 13 10 4 3 3 2 1 1 3 7 11 13 16 20 23 25 29
23 23 34 37 40 35 28 22 15 8 12 14 5 3 1 2 3 5 8 4 4 2 6 6 3 2 0 2 3 1 2 2 1 1 1 3 9 14 9 2 3 4 5 5 9 11 13 18 19 21 24 25 27 31
21 22 26 36 32 25 19 12 7 12 1 5 3 4 2 2 3 3 3 3 3 3 11 10 4 2 2 2 0 2 2 1 3 2 3 4 11 9 6 4 8 11 11 14 16 17 19 20 23 22 26 30 34 34
21 22 23 22 24 21 8 5 5 3 7 7 6 5 4 5 7 9 5 4 6 6 7 5 4 1 2 2 2 2 3 3 5 3 4 12 8 4 6 9 13 16 16 18 19 21 24 26 29 31 30 30 30 28
20 20 17 15 13 11 6 1 4 6 6 6 8 7 13 5 9 13 14 9 8 4 6 3 2 2 3 2 3 5 2 5 4 4 11 7 8 10 12 14 17 19 21 23 25 26 29 32 33 33 30 26 24 22
16 13 18 15 12 7 10 14 7 7 6 4 5 19 12 5 7 13 13 16 6 1 2 2 4 5 2 4 3 5 4 6 10 9 10 11 13 15 17 20 22 23 26 28 30 29 30 30 30 28 27 22 20 17
16 14 18 16 12 7 11 7 6 6 7 8 3 11 12 14 17 14 18 20 5 4 4 4 6 7 5 4 3 4 7 8 13 16 16 16 18 20 21 25 27 28 29 29 29 29 27 24 22 21 19 17 16 14
12 20 20 20 18 4 4 6 6 6 8 5 10 12 4 15 20 19 19 17 20 16 9 6 6 4 4 6 10 13 13 9 12 15 22 23 24 26 28 29 30 30 29 27 25 24 22 20 19 17 15 12 12 10
26 27 24 19 8 4 5 5 6 7 5 5 5 20 22 17 21 26 29 25 21 11 10 6 5 10 9 11 11 9 9 10 14 19 21 24 26 28 28 28 28 27 28 27 26 24 22 21 18 14 12 10 7 5
28 22 16 16 14 11 7 5 6 6 6 5 3 10 12 21 33 31 31 23 21 9 7 11 12 13 13 13 12 13 15 16 20 19 18 22 25 28 28 28 27 27 27 25 24 22 20 19 15 11 9 7 6 5
21 15 8 7 6 6 8 9 6 5 5 5 6 7 7 8 12 19 19 20 11 17 12 14 14 14 19 23 22 23 23 26 27 28 28 27 29 29 28 26 25 26 24 22 19 18 17 14 11 9 8 7 7 7
16 7 6 6 6 6 4 6 4 5 3 3 3 4 5 6 7 9 8 10 10 14 13 13 16 19 22 23 26 28 28 29 31 30 29 29 28 25 24 23 21 20 20 19 16 14 13 11 10 10 9 9 9 10
7 6 7 6 9 4 4 6 5 4 5 3 3 4 4 5 6 7 4 5 10 11 13 13 12 15 21 25 28 26 25 25 26 26 24 23 24 23 21 20 20 19 17 15 13 12 11 11 11 11 11 11 12 12
7 10 7 6 8 6 5 4 5 4 4 5 3 4 3 4 3 3 3 3 9 11 12 12 14 16 17 18 19 20 19 18 20 21 19 17 17 16 17 16 15 14 12 11 12 12 12 11 12 12 12 12 13 13
8 11 6 6 4 4 4 3 4 5 3 3 4 3 3 3 4 4 3 3 5 6 9 10 10 12 16 15 15 16 16 15 15 18 17 15 13 12 11 10 9 10 11 11 10 10 10 11 11 11 11 12 13 13
6 6 8 8 5 6 6 7 6 5 4 4 2 2 2 4 3 3 5 4 5 7 8 10 10 11 13 14 15 15 14 13 13 14 13 11 10 9 8 9 9 9 9 9 9 10 10 11 11 12 12 12 12 13
7 7 5 7 8 9 4 3 4 4 3 4 2 4 3 2 3 4 4 8 9 9 9 9 10 11 11 10 10 10 9 9 9 8 7 8 8 8 9 9 9 9 9 9 9 10 10 11 11 12 12 12 13 13
7 5 5 7 7 8 9 5 3 3 4 3 2 2 3 3 5 8 8 7 7 7 7 9 10 10 9 8 7 7 6 5 5 4 5 5 5 7 7 8 8 8 8 8 9 9 10 10 11 12 12 12 12 12
5 5 6 6 5 5 6 5 4 5 6 6 7 8 9 7 9 10 8 6 5 5 6 7 6 6 4 3 4 5 6 5 5 4 4 4 5 6 7 7 7 7 7 8 8 8 9 9 10 10 11 11 12 12
5 5 6 7 5 5 11 16 14 12 10 9 11 10 9 7 9 10 8 7 6 7 7 6 4 2 1 2 3 3 4 5 5 5 5 5 6 7 7 7 7 7 7 7 7 8 8 9 10 10 11 12 13 13
5 5 6 4 4 11 3 2 3 4 2 3 3 5 5 4 5 7 7 7 7 6 5 3 1 1 2 3 3 4 4 4 4 4 5 5 6 7 7 6 6 6 6 7 7 8 9 9 10 11 12 13 14 14
8 11 9 7 5 5 4 3 2 3 3 2 2 3 2 3 3 7 9 8 7 6 4 2 2 2 2 3 3 3 4 4 4 5 5 5 5 6 6 6 6 6 6 7 8 8 9 10 11 12 13 14 14 15

GFSWCAN_850_spd_063.txt.gz
Wind_Speed
25 22 20 22 26 23 8 33 43 46 42 43 50 52 57 59 74 50 36 40 25 14 19 8 20 23 28 36 15 20 15 14 10 10 8 6 4 11 12 15 12 10 9 5 8 9 11 7 10 13 15 19 9 11
24 19 21 13 17 17 19 30 41 43 42 46 49 47 49 67 71 47 34 37 32 8 8 10 9 18 19 43 29 22 18 17 12 9 6 6 4 1 8 11 11 8 10 9 9 5 7 20 16 25 14 10 9 11
25 27 15 9 17 18 25 32 36 38 42 44 45 49 49 68 64 40 34 32 28 12 5 8 13 9 18 14 15 24 29 21 25 24 7 4 5 7 6 10 15 13 7 4 6 11 12 13 15 17 9 12 10 9
29 29 21 16 17 20 27 30 31 35 39 42 46 44 65 57 37 43 42 32 27 10 4 6 8 14 19 11 14 15 25 20 19 19 7 4 4 7 7 10 10 11 8 10 17 19 22 13 12 17 17 16 14 11
28 29 28 25 22 23 20 26 31 34 33 41 50 59 66 45 33 37 35 26 18 9 5 9 7 7 23 17 15 15 16 21 17 9 3 5 9 7 5 7 10 15 13 9 9 11 12 18 20 13 20 23 17 15
29 28 30 29 42 40 36 41 45 49 51 50 49 49 53 40 34 34 9 18 17 14 4 4 4 8 11 14 13 24 23 15 20 14 9 12 16 13 4 9 12 21 24 20 16 21 19 12 15 15 11 15 16 15
26 29 28 30 31 33 37 42 41 41 46 48 48 40 40 35 26 14 8 17 21 12 3 1 3 11 17 10 12 15 29 22 15 10 5 9 12 8 5 10 11 13 17 23 21 17 12 16 11 7 5 6 10 11
22 26 29 31 32 35 36 36 37 39 42 39 43 40 31 30 21 12 14 23 15 7 2 2 2 3 18 11 8 17 21 25 16 11 8 9 8 5 5 13 26 25 27 27 23 15 17 14 9 5 5 6 7 10
20 24 27 29 30 32 36 37 43 43 41 40 36 31 20 13 8 8 22 16 10 2 4 4 3 3 6 15 9 13 14 8 7 7 9 7 8 8 6 17 18 18 17 19 22 22 15 13 11 8 6 6 10 12
20 20 21 25 29 34 36 37 41 41 40 38 26 8 7 6 24 17 6 2 3 2 2 2 4 2 3 0 5 2 4 6 5 6 9 5 10 17 7 14 15 11 14 11 7 9 8 10 9 7 6 7 9 13
19 22 22 21 25 29 31 33 36 34 19 7 5 6 16 17 5 3 4 3 3 2 6 6 10 2 3 2 1 4 2 2 4 4 7 3 3 6 16 15 12 11 9 7 5 7 6 5 5 4 5 7 10 13
19 23 27 28 27 27 29 29 18 9 6 9 16 17 10 2 3 1 4 3 5 4 6 5 7 5 1 7 6 1 4 3 4 6 3 3 2 11 13 12 11 9 6 3 4 5 7 9 10 13 15 17 19 21
28 32 30 30 32 30 26 16 13 15 16 10 6 4 3 2 4 4 6 4 3 2 3 6 4 7 5 15 1 3 3 2 4 3 2 3 9 12 11 8 7 3 2 5 9 11 11 15 16 15 21 20 22 25
30 31 28 27 23 16 9 11 13 8 5 5 2 3 3 3 6 6 5 5 3 2 7 11 4 2 4 1 1 3 3 1 2 2 4 5 14 11 9 8 8 12 13 16 18 18 20 21 22 21 22 23 26 29
25 24 22 18 12 9 6 10 5 13 6 7 6 4 6 7 10 9 15 5 8 4 2 6 4 1 2 2 3 1 3 4 6 4 4 12 11 8 9 11 14 17 19 21 22 25 27 28 30 30 28 30 32 31
23 19 14 11 8 5 4 5 8 11 6 6 10 6 15 5 9 14 12 11 12 6 1 5 2 2 4 2 3 6 4 6 4 4 11 9 11 12 14 16 19 20 22 24 27 29 33 35 37 37 32 29 26 25
16 14 13 9 6 6 5 10 9 8 6 6 5 16 13 7 11 14 13 12 12 8 4 3 5 5 2 4 4 5 4 5 11 12 13 13 14 16 18 21 22 24 27 29 31 33 34 33 31 29 28 24 23 21
12 16 14 10 2 13 25 14 8 7 8 10 4 12 13 13 17 16 14 20 7 4 5 5 6 8 6 5 4 4 9 9 13 16 18 18 21 23 25 27 28 28 29 29 31 30 27 26 27 25 23 20 20 18
17 16 13 15 11 7 6 7 7 5 7 5 12 12 6 14 22 20 19 19 23 18 9 6 6 4 4 6 9 12 12 11 13 16 21 23 24 26 27 28 29 30 29 28 27 27 26 24 21 19 18 16 17 14
14 19 16 9 8 5 5 5 5 6 4 3 5 16 19 15 19 26 28 23 20 10 9 5 4 8 6 9 9 8 11 11 13 18 20 22 23 26 26 25 26 27 29 29 27 23 22 21 20 18 16 15 13 12
22 21 15 15 8 8 6 4 5 6 6 4 4 11 11 19 27 24 26 23 18 8 6 11 11 12 12 12 12 12 14 18 19 18 17 20 21 24 26 26 26 26 25 23 22 21 20 19 15 13 13 12 10 10
22 16 8 6 5 5 7 7 6 4 4 6 8 7 6 9 14 16 22 18 12 18 12 12 11 12 17 19 20 21 22 24 25 25 24 22 22 22 23 21 22 24 23 20 18 17 16 14 12 12 12 11 10 9
13 7 5 5 5 6 3 5 4 4 3 3 4 4 4 6 7 8 7 11 11 15 13 13 15 16 18 20 24 25 24 24 25 24 23 23 23 22 21 21 19 18 18 16 14 14 13 12 11 11 10 10 9 9
5 5 6 6 8 4 4 5 4 4 5 3 3 4 4 5 6 6 5 6 9 10 11 12 10 12 15 19 21 19 18 19 21 22 19 19 19 18 17 16 16 16 14 11 11 11 10 11 11 10 10 10 10 10
5 9 6 7 6 4 4 3 4 3 4 4 3 4 3 4 3 3 3 4 8 10 11 10 12 13 14 15 16 17 16 15 15 17 15 13 12 12 13 13 13 13 11 10 10 10 10 9 9 9 9 10 10 10
7 11 6 5 4 4 3 3 3 4 3 3 4 3 2 3 3 4 3 5 6 7 9 9 9 11 13 12 11 11 11 10 10 14 13 11 11 9 8 8 7 10 11 9 8 8 8 8 9 9 10 10 11 10
5 5 8 7 5 6 6 8 7 5 4 4 3 2 2 3 3 3 6 5 4 5 7 9 9 10 10 10 11 11 12 10 10 10 9 9 9 9 8 8 7 7 8 8 8 8 8 9 9 9 9 8 9 9
7 7 5 6 8 10 4 4 4 4 4 5 2 4 3 3 3 4 5 5 6 7 7 8 9 8 8 8 7 6 6 8 9 9 10 10 10 9 8 8 7 6 7 7 8 8 8 8 7 8 8 7 8 7
7 5 6 7 7 9 9 6 4 5 5 4 2 2 3 4 6 9 8 7 7 7 7 7 8 8 7 7 7 7 6 5 3 5 5 4 4 6 6 6 5 6 6 6 6 7 6 7 7 7 7 7 7 6
5 6 6 7 5 6 7 7 7 7 8 7 7 11 12 9 5 8 6 5 5 5 6 5 5 3 3 3 4 4 4 3 2 4 1 2 1 3 4 4 4 4 4 4 4 5 6 6 7 7 8 8 8 9
4 5 7 7 6 8 10 10 11 10 9 10 10 10 10 6 4 5 5 5 6 6 5 5 4 2 1 1 2 2 3 3 2 2 1 1 2 3 3 3 3 3 3 3 3 4 5 5 6 7 8 9 10 11
6 6 6 4 5 6 3 2 3 3 3 3 4 5 4 4 4 4 7 6 5 4 6 4 2 2 2 2 2 2 2 2 2 2 2 3 3 4 3 3 3 3 3 3 4 5 6 7 8 9 10 11 12 13
9 11 11 7 5 4 3 3 2 3 3 3 3 3 2 2 2 5 9 10 11 8 5 5 5 3 2 3 3 3 3 3 3 3 3 4 4 4 4 4 4 4 5 5 6 7 8 9 10 11 12 13 14 15

GFSWCAN_850_spd_066.txt.gz
Wind_Speed
35 33 32 27 23 27 34 37 38 39 38 46 49 51 51 49 51 48 37 51 24 6 14 6 26 20 30 28 15 19 17 6 11 9 7 6 5 7 8 14 13 13 7 7 5 7 13 4 8 19 9 15 12 17
30 28 21 22 19 20 18 3 31 35 38 38 45 51 52 51 54 47 29 41 23 12 8 9 25 20 26 34 22 21 20 11 13 7 6 6 3 2 7 8 12 10 13 8 7 7 6 17 11 12 11 9 11 12
27 24 13 20 18 19 18 24 34 34 33 33 49 50 50 48 47 44 37 41 23 17 2 11 14 12 5 13 22 12 20 14 24 20 5 4 3 5 4 6 8 11 10 4 10 12 6 8 15 12 11 11 9 10
25 21 15 19 16 17 22 26 27 29 32 31 45 45 46 45 47 32 46 31 24 17 2 5 2 9 7 6 9 17 13 13 22 19 7 3 4 7 5 7 9 8 12 12 13 20 11 20 14 14 10 11 14 12
27 24 19 14 17 18 22 24 26 30 34 40 42 41 46 45 43 36 39 28 23 14 2 6 10 9 10 7 8 15 9 15 13 14 3 6 8 5 0 3 5 8 7 4 3 6 5 4 6 2 9 11 19 16
24 25 21 22 22 22 25 28 32 35 37 37 38 35 52 58 43 30 12 23 27 28 2 4 6 8 8 11 11 17 9 11 11 7 6 8 12 6 2 5 11 17 18 20 8 13 15 11 8 13 13 14 12 9
26 27 29 35 26 23 22 27 33 36 39 43 44 40 46 46 32 11 6 26 31 14 3 2 4 8 10 9 9 9 15 11 11 7 6 8 11 15 5 6 8 15 15 12 13 15 12 11 4 4 8 6 6 6
25 28 27 31 36 34 31 36 46 56 56 49 44 43 37 34 25 14 18 29 16 4 3 1 1 3 9 5 4 11 10 14 7 3 5 6 10 6 3 8 18 22 24 23 22 19 12 9 7 6 8 5 6 5
23 27 28 28 31 39 47 46 46 49 42 41 41 37 34 14 6 11 21 20 15 3 3 2 1 1 6 7 4 11 13 6 5 1 2 4 3 4 3 5 8 15 10 10 11 10 6 8 4 4 3 3 5 2
22 22 27 32 33 34 38 44 47 42 36 23 17 9 6 9 26 21 10 3 1 1 3 1 3 1 4 5 2 3 3 2 4 6 3 4 4 6 19 15 14 14 12 12 10 10 9 7 3 1 1 1 2 7
20 25 27 30 30 33 32 32 27 23 15 10 6 8 20 13 6 3 3 3 3 1 4 6 9 3 3 2 1 7 2 2 5 5 7 4 2 6 21 16 15 16 14 10 7 5 5 4 2 9 10 12 15 16
21 25 25 29 32 32 22 18 16 12 8 7 18 15 8 4 4 3 2 2 2 3 6 4 4 4 2 2 1 4 2 2 5 5 4 3 3 17 18 17 14 10 7 8 10 11 11 12 13 16 16 16 17 20
25 27 26 27 27 20 13 17 22 17 16 11 6 4 2 3 3 2 5 3 2 2 2 8 3 5 5 2 0 2 3 4 1 3 3 3 11 14 14 12 13 11 8 8 11 11 13 17 17 16 22 20 21 24
26 27 25 22 18 15 12 13 10 8 6 6 4 5 4 4 5 5 5 4 6 8 12 7 3 2 4 3 3 3 2 2 3 3 4 6 13 11 12 12 14 17 18 20 22 22 24 25 26 26 26 25 27 28
25 23 19 15 12 14 12 9 11 6 7 7 7 5 6 5 9 8 10 5 10 11 9 3 3 4 3 3 2 3 2 4 6 4 4 12 12 11 11 14 16 19 22 25 26 29 30 30 31 31 28 28 29 30
17 14 10 5 2 3 10 8 10 9 7 6 9 4 15 4 8 13 12 9 12 14 6 2 3 3 2 2 4 7 4 6 4 4 14 13 14 14 16 18 20 22 25 28 31 33 35 36 36 36 34 32 31 30
6 5 7 6 9 9 2 4 8 9 7 5 5 14 12 6 11 11 13 14 16 8 2 3 5 4 3 3 4 5 4 5 12 15 18 18 16 18 20 24 27 28 30 31 32 32 33 33 32 32 32 28 26 25
5 12 9 6 4 10 22 11 8 7 8 10 4 12 13 10 13 12 12 16 9 4 5 4 5 7 6 5 4 5 8 14 17 21 21 21 23 24 25 28 29 29 31 31 31 30 30 30 31 28 26 24 23 21
9 9 6 7 10 6 6 7 7 6 6 6 13 11 10 14 19 17 16 13 18 15 8 6 6 4 4 6 8 12 11 13 15 19 24 24 24 25 27 29 29 30 30 30 31 31 30 28 25 22 21 20 22 17
11 15 10 11 10 6 6 6 6 7 3 3 7 15 16 16 18 22 25 19 17 9 8 5 5 8 5 9 9 10 11 14 17 19 21 22 23 25 24 25 26 27 29 28 27 25 24 24 21 19 17 16 15 16
16 13 14 12 12 12 7 5 6 5 5 4 5 12 10 16 28 27 26 21 15 8 6 11 12 13 14 13 12 12 17 19 20 18 18 22 20 23 24 24 24 24 25 24 24 23 22 21 17 15 14 15 16 14
14 10 9 10 7 6 7 9 6 4 5 6 9 9 7 12 14 17 22 20 12 17 11 14 16 15 19 21 20 19 19 22 22 23 22 22 23 23 22 21 22 23 23 21 19 19 18 16 13 13 13 13 12 10
9 5 6 7 6 6 4 5 5 5 3 3 5 4 5 6 8 10 7 12 12 15 14 15 16 18 19 20 21 22 20 20 22 21 21 22 22 21 21 21 19 18 18 17 14 14 14 12 12 11 11 10 9 10
4 5 6 6 7 4 4 5 4 4 5 3 3 3 4 4 5 6 4 6 10 10 13 12 10 13 15 18 20 19 19 19 21 21 18 17 17 16 15 16 16 16 14 12 11 11 10 11 9 9 10 11 10 9
5 9 6 7 6 4 4 3 3 3 4 4 3 4 3 3 3 3 3 5 8 11 10 10 13 13 14 14 15 17 15 13 14 15 15 11 12 12 12 12 13 12 11 10 10 10 10 9 9 9 10 10 10 8
7 10 6 5 4 4 4 3 3 4 3 3 4 3 3 3 3 4 3 7 7 8 10 9 9 10 12 11 10 10 11 9 8 12 10 10 11 8 7 6 8 11 10 9 8 7 7 8 8 8 7 8 9 7
5 5 8 7 6 7 6 8 9 6 5 5 3 3 2 3 4 4 6 7 6 6 8 10 9 10 10 9 9 9 9 8 8 9 8 8 8 6 6 6 5 6 6 6 6 7 6 6 6 6 5 4 6 6
7 7 5 7 9 12 4 4 4 5 4 6 2 4 3 4 3 4 6 6 6 6 7 9 10 10 9 9 7 6 7 9 9 10 11 10 10 8 8 7 6 6 7 6 6 5 5 5 5 5 5 6 7 7
7 6 7 7 7 9 10 6 4 5 6 6 2 3 3 4 4 7 7 7 7 7 7 7 7 7 6 6 5 5 7 8 3 4 3 3 3 6 6 5 4 4 4 4 4 5 5 4 4 5 6 6 5 5
5 5 6 8 5 5 8 8 9 7 8 9 10 13 13 9 9 8 6 6 6 7 7 7 6 5 4 1 3 5 4 3 3 5 3 2 1 3 3 3 3 3 3 2 2 3 3 4 6 7 8 7 8 9
5 5 7 7 6 8 9 11 13 13 11 12 10 11 9 6 4 5 4 5 4 5 5 4 4 3 1 2 2 2 6 3 2 2 2 2 2 3 3 2 2 2 2 2 3 4 4 5 5 6 8 10 11 12
7 6 6 4 5 6 2 2 3 5 3 5 6 5 4 5 4 2 3 5 5 5 7 4 1 6 3 2 2 2 4 4 3 3 3 3 4 4 3 3 3 3 3 4 4 5 6 7 7 8 10 11 13 14
12 13 12 8 5 4 3 3 3 3 3 3 3 2 2 3 3 3 5 11 9 7 5 7 7 4 2 3 4 4 4 4 5 4 4 5 5 5 5 5 5 5 5 5 6 7 8 9 10 11 13 14 15 17

GFSWCAN_850_spd_069.txt.gz
Wind_Speed
34 35 34 27 27 28 30 32 36 40 42 42 42 41 45 47 46 48 25 48 28 21 18 17 27 16 24 27 12 4 6 10 2 5 6 4 4 6 4 4 7 5 5 3 3 5 13 6 4 7 6 17 22 14
32 32 26 23 22 24 26 24 31 43 47 45 45 42 42 48 46 47 26 34 35 16 11 23 31 26 21 11 16 27 9 3 5 4 5 4 3 1 6 3 4 5 6 5 7 4 6 12 11 18 4 5 6 4
30 25 19 17 19 18 23 15 11 24 41 41 37 44 44 46 44 48 33 40 31 9 10 11 17 31 16 6 12 15 21 17 15 13 2 4 4 3 5 9 5 5 4 4 1 5 2 13 15 25 14 8 8 5
26 23 17 13 15 15 16 19 20 25 32 33 38 42 44 43 47 40 32 42 30 6 4 3 9 24 27 10 7 12 11 18 23 20 4 4 4 6 4 5 5 5 9 7 3 3 7 6 13 26 21 15 21 15
23 22 18 17 14 16 19 20 22 22 32 36 39 43 43 42 43 39 28 39 27 5 3 3 8 14 22 11 7 8 8 8 11 3 2 4 4 2 2 1 4 4 6 5 5 12 13 11 16 13 15 28 19 15
22 22 17 20 21 21 26 31 33 33 36 38 42 47 51 45 38 34 11 36 24 9 6 2 5 14 8 6 4 6 6 5 10 7 3 6 13 5 1 3 3 4 4 6 3 7 11 8 19 8 5 2 5 6
28 21 23 22 23 27 27 32 35 37 40 44 45 45 40 30 34 12 8 24 21 12 8 2 2 4 4 6 6 5 8 4 7 4 4 1 15 4 2 2 3 6 9 10 10 14 5 8 7 7 4 1 3 2
21 22 22 23 26 26 28 30 34 35 37 43 47 42 37 32 24 19 17 28 23 12 1 2 1 4 11 4 4 9 9 6 5 6 1 2 8 3 1 4 8 15 17 12 12 8 8 9 6 3 3 1 5 6
20 26 25 35 40 39 35 38 39 36 40 47 47 33 25 19 12 20 26 23 13 3 3 2 3 2 5 2 4 9 9 2 5 3 2 2 3 1 8 15 21 25 18 18 12 15 12 13 10 12 7 5 8 11
21 28 30 37 46 46 43 37 34 34 29 29 29 9 6 11 26 24 8 5 5 4 2 1 2 3 4 4 3 2 3 3 3 5 8 2 2 13 19 15 15 19 19 17 16 10 10 13 13 10 7 9 12 13
20 24 35 35 32 31 27 26 21 18 18 9 8 10 28 19 5 4 4 3 3 1 2 2 3 3 2 3 1 3 1 2 3 3 6 4 2 5 16 14 13 11 11 11 9 6 3 3 10 11 12 13 14 15
21 26 28 29 27 25 27 26 26 19 14 14 21 17 6 4 5 5 1 2 1 1 2 2 5 5 3 4 2 3 2 1 2 1 4 3 3 11 12 13 13 9 5 3 3 4 5 9 12 14 17 19 20 22
24 25 21 19 23 26 20 20 22 24 22 12 6 6 5 6 6 4 2 3 3 6 9 2 2 1 2 1 2 1 2 3 2 2 3 4 10 13 11 13 13 11 8 7 10 10 12 16 17 17 20 19 22 25
22 20 19 18 16 17 18 14 10 7 7 8 6 6 4 5 4 3 3 3 5 8 16 9 3 1 1 1 1 1 1 2 3 4 3 4 12 13 15 15 16 18 19 20 23 23 25 27 29 27 28 27 29 31
18 15 13 16 13 13 13 11 8 2 7 8 7 5 5 5 12 8 10 6 9 12 9 2 2 1 2 1 3 3 4 5 5 3 3 12 15 15 16 18 20 22 24 25 26 28 30 31 32 32 30 30 30 30
11 6 8 8 8 8 6 7 11 11 7 7 10 5 13 4 6 11 11 8 13 14 5 2 0 2 4 3 4 6 3 5 3 3 14 15 17 19 21 23 25 26 27 29 32 34 35 36 37 37 35 34 33 31
4 4 9 14 14 9 3 6 9 9 7 6 5 16 10 5 7 11 13 15 13 7 3 3 5 4 3 4 4 4 4 3 9 15 20 21 22 24 24 26 28 30 31 32 34 35 35 34 34 34 35 31 29 28
2 6 5 5 7 12 24 12 8 8 7 9 5 12 14 14 13 13 13 19 8 4 4 3 5 6 5 3 3 2 7 17 21 22 23 25 25 27 29 31 31 32 33 33 34 34 34 33 33 30 26 24 23 21
5 5 5 5 5 6 6 7 7 6 6 5 9 12 12 15 21 18 16 13 17 14 8 6 6 4 3 5 6 11 10 15 17 22 24 24 25 27 28 29 28 29 30 29 29 30 29 28 27 25 24 21 22 19
5 5 8 8 6 5 6 6 6 8 4 7 9 17 19 17 21 25 27 24 22 10 9 5 4 8 7 13 12 16 18 17 20 22 23 23 22 24 25 26 27 27 28 27 27 25 24 24 20 18 18 18 17 18
11 9 10 10 17 11 7 5 6 7 11 5 10 9 9 22 32 31 29 21 16 8 5 13 18 19 15 14 15 19 20 19 23 22 20 23 21 23 23 23 23 24 25 25 25 25 24 22 19 15 14 14 14 12
9 8 7 9 7 7 8 11 7 7 6 12 12 7 6 8 9 15 27 21 11 14 13 17 16 18 20 21 19 19 20 20 21 22 23 23 24 24 23 21 21 22 21 20 18 18 17 15 13 12 13 12 8 7
6 6 7 9 7 7 4 7 5 6 3 3 4 4 4 4 6 8 7 12 11 15 16 17 18 20 22 21 21 20 20 22 24 23 22 22 21 20 20 18 16 16 17 15 13 13 12 10 10 11 10 9 8 10
6 6 7 6 9 4 5 6 6 5 6 4 4 4 4 5 6 7 4 5 13 14 15 14 13 16 19 21 23 22 20 20 21 20 17 15 16 16 15 16 16 15 12 9 9 10 9 11 10 8 9 9 9 9
6 10 7 6 8 5 4 4 4 4 4 5 4 4 3 5 3 3 2 4 12 12 10 11 14 14 17 17 17 16 12 12 15 18 14 10 10 10 12 11 12 13 9 9 9 8 9 8 10 10 8 8 9 8
7 12 6 6 5 4 3 3 3 4 3 3 3 3 4 3 4 4 3 8 9 11 12 8 8 10 11 9 10 11 10 7 7 10 11 8 8 7 4 6 9 9 8 5 6 6 7 7 6 6 8 7 5 4
5 5 8 10 7 7 6 9 10 5 5 4 2 4 3 4 3 3 7 7 7 7 9 10 8 9 10 10 11 11 8 8 9 10 9 7 5 3 2 4 6 7 6 4 3 3 5 6 4 3 5 5 5 5
7 8 5 8 10 15 4 4 5 4 3 8 4 5 3 3 2 3 5 4 3 6 7 6 6 6 8 9 7 7 8 8 8 7 8 8 9 6 5 5 5 6 6 7 5 6 5 5 5 4 4 5 5 6
7 6 8 8 8 9 10 5 4 4 8 5 2 3 3 4 4 7 5 6 7 7 7 8 8 6 6 5 3 3 3 4 4 3 1 3 6 5 4 4 3 2 3 4 4 4 3 3 3 3 4 5 5 6
5 5 6 8 5 4 7 6 10 8 13 10 9 13 17 15 11 8 8 7 8 8 8 8 7 5 0 4 5 4 3 3 3 2 5 4 5 4 3 2 2 1 1 1 1 2 3 3 3 5 6 7 7 7
5 5 7 7 6 6 14 17 16 15 15 16 9 13 10 8 8 7 7 7 6 4 5 6 6 4 3 1 3 4 3 1 1 2 2 3 3 3 2 1 1 2 2 1 2 2 2 4 5 6 7 9 11 12
6 5 7 4 4 8 7 5 3 4 5 6 5 7 6 5 4 3 6 9 7 5 5 4 4 1 2 2 3 4 4 3 2 2 3 4 5 5 5 4 3 3 3 3 4 4 5 6 7 9 10 11 13 14
15 16 14 8 7 7 4 5 3 3 4 3 3 3 2 2 3 3 9 9 8 10 8 8 5 6 4 3 3 4 3 3 4 4 4 4 4 4 5 5 5 5 4 5 6 7 8 9 9 10 11 13 14 15

GFSWCAN_850_spd_075.txt.gz
Wind_Speed
31 34 36 35 34 35 34 30 29 31 34 35 35 39 44 42 45 44 40 32 26 9 8 24 30 24 22 26 7 8 5 7 3 7 3 4 3 6 2 3 1 4 5 3 3 3 6 5 0 5 4 7 6 7
34 32 31 27 26 26 25 27 29 30 31 35 37 40 40 46 45 44 32 34 26 15 5 6 33 37 42 42 33 20 13 7 12 4 3 2 1 1 5 3 2 3 6 4 6 5 5 6 2 7 6 2 1 7
29 27 23 26 25 25 26 28 30 31 33 35 41 42 41 45 45 48 31 32 29 14 15 21 16 35 42 38 25 11 6 8 8 8 5 3 3 4 3 4 4 4 2 2 3 5 9 13 8 9 6 7 11 10
26 24 19 22 24 22 19 17 24 33 37 31 33 39 41 40 45 48 34 37 28 10 2 7 20 23 36 38 33 30 13 17 8 9 3 3 3 5 3 4 4 5 1 3 4 7 7 11 17 14 12 15 12 7
22 15 18 22 21 15 15 15 14 5 31 33 38 40 40 40 42 40 35 37 37 20 6 4 15 20 22 27 29 28 22 16 15 3 2 3 3 3 0 1 1 3 6 2 7 14 9 14 22 24 20 13 9 8
15 18 21 23 18 18 17 20 22 25 36 39 41 40 38 42 41 39 12 29 36 20 4 4 7 15 20 18 17 16 17 17 15 8 3 4 5 5 2 4 2 4 15 20 8 29 15 18 17 16 18 5 2 4
12 20 20 24 20 25 26 22 24 31 36 40 40 38 41 46 41 24 8 9 34 31 7 1 3 6 16 14 7 5 4 3 3 4 3 4 3 6 3 3 6 11 14 21 21 24 9 7 7 8 12 8 6 3
20 18 22 30 28 26 29 32 29 32 38 38 38 40 38 37 33 14 4 20 30 18 7 2 3 5 6 5 4 4 4 3 1 1 4 3 1 3 1 8 15 18 18 12 20 20 20 6 9 11 10 10 10 8
27 28 19 22 31 37 31 32 36 34 36 38 44 42 31 17 7 24 29 22 13 10 4 3 3 3 5 4 6 4 5 2 1 2 2 6 2 1 5 9 11 13 13 18 18 14 5 11 12 11 8 7 8 9
29 31 25 18 20 21 34 29 30 35 38 33 24 7 6 12 28 17 8 8 3 1 3 3 3 3 5 3 2 3 2 2 2 4 6 3 3 9 15 11 11 13 11 14 19 11 15 14 10 9 9 7 7 10
24 26 24 21 17 21 26 29 26 22 12 3 6 8 18 17 6 3 4 4 2 4 7 4 5 4 4 3 2 2 2 2 2 3 4 2 3 7 18 15 14 12 8 2 5 4 5 5 6 8 10 10 11 13
20 21 18 18 18 15 11 11 11 13 13 14 11 10 5 4 4 6 2 3 5 3 4 3 5 6 5 3 3 2 2 2 3 2 3 3 3 13 14 13 14 11 8 4 3 4 6 5 4 6 10 12 14 17
18 18 17 13 10 11 13 17 17 9 6 6 5 6 8 9 12 6 5 3 3 4 9 8 3 4 3 3 2 2 2 1 4 3 3 2 8 10 11 10 10 9 7 7 9 9 8 10 10 10 15 17 19 22
17 17 16 13 10 7 9 7 5 9 4 9 7 8 4 5 4 3 3 2 4 6 8 3 2 2 1 2 1 2 3 4 3 3 2 3 9 9 10 8 9 12 13 15 17 16 18 20 22 22 23 23 28 34
11 17 10 14 10 5 5 3 8 6 9 9 8 6 5 4 6 7 12 4 10 8 5 0 2 2 4 4 3 4 5 4 4 2 2 8 9 9 9 9 13 16 19 22 24 26 30 31 33 34 33 33 34 35
9 11 22 22 12 5 5 5 5 12 8 7 10 4 9 3 6 10 13 9 16 10 2 3 3 4 5 3 5 5 3 3 2 2 10 9 11 12 14 16 18 21 23 25 28 30 34 36 37 37 35 34 34 33
7 11 12 12 24 13 3 9 11 10 8 6 5 20 5 3 3 9 13 18 14 7 3 3 5 4 3 3 4 4 3 2 6 12 15 14 15 16 19 22 25 27 29 29 29 32 35 35 35 35 36 32 31 30
12 12 13 11 5 12 35 16 9 9 8 10 5 14 16 14 12 14 15 20 7 5 5 4 5 6 4 3 2 1 7 14 14 16 16 15 15 17 19 22 23 25 27 28 29 30 30 30 31 31 29 27 27 25
9 13 11 8 7 7 7 9 10 7 11 5 9 10 9 16 19 15 14 14 20 15 9 6 5 3 2 4 3 9 9 10 14 16 16 14 15 17 18 19 21 21 22 22 22 24 24 24 24 22 21 19 22 20
5 8 10 7 6 7 7 7 7 10 4 6 11 19 14 12 16 20 21 21 19 9 8 5 3 4 4 4 6 9 12 14 16 17 16 13 14 15 17 18 19 20 20 20 20 20 19 20 18 16 15 17 17 18
11 11 12 20 26 14 8 6 8 8 10 5 7 5 10 21 28 22 19 16 15 8 5 9 12 10 8 10 10 8 9 8 8 11 16 15 14 15 16 15 15 15 16 16 16 15 14 16 15 13 11 13 12 11
5 6 7 10 8 8 10 10 11 10 6 9 5 5 6 5 8 16 16 17 8 10 7 10 11 11 12 12 11 10 9 11 13 15 15 15 15 15 14 13 12 14 13 12 11 12 13 12 9 8 7 8 7 6
5 5 6 7 7 7 5 4 4 4 3 2 4 4 4 5 6 8 7 8 7 9 10 11 11 12 14 12 11 11 10 11 14 13 13 13 13 13 11 10 9 8 9 10 8 7 8 8 7 6 7 8 7 10
5 6 7 7 8 3 5 5 5 5 5 3 3 3 3 4 5 6 3 4 6 8 8 10 10 13 13 13 14 14 13 12 14 13 10 9 10 9 7 8 7 7 7 6 5 6 6 6 6 6 7 8 9 10
5 9 6 6 7 6 5 4 4 4 4 3 3 3 3 5 3 3 2 2 7 6 7 6 7 9 12 13 11 10 8 6 7 8 8 6 6 6 6 6 6 7 6 3 5 5 7 6 5 5 6 6 7 7
7 11 5 3 3 5 2 3 3 2 3 3 3 3 4 3 4 3 2 6 7 5 3 2 3 6 7 7 6 6 6 5 3 2 5 4 3 2 1 2 3 4 5 5 5 4 5 5 4 3 3 4 4 4
5 3 7 8 5 8 6 9 8 6 4 3 2 3 3 4 1 1 5 5 4 3 2 3 1 3 5 5 4 3 3 2 1 1 3 2 1 1 1 1 2 1 3 3 2 3 3 3 3 2 1 0 1 2
6 7 5 8 11 11 4 3 4 3 1 3 4 4 4 4 2 3 4 6 5 4 3 4 5 5 5 4 4 4 3 4 4 4 4 3 1 1 1 1 1 1 2 4 3 3 3 2 2 2 1 0 1 2
7 6 7 6 7 9 9 3 2 3 3 2 4 2 3 4 5 8 8 5 5 4 3 3 4 3 2 1 1 1 1 1 2 4 5 4 5 2 0 1 1 0 1 2 2 3 3 2 2 2 3 4 5 6
5 5 7 6 5 5 9 7 10 10 10 11 10 14 16 14 10 9 8 8 7 6 5 4 3 2 4 6 4 3 4 4 5 5 5 6 6 4 3 1 1 1 2 4 4 4 4 4 4 4 5 6 7 8
5 6 8 8 6 8 18 18 16 13 14 13 15 18 12 8 8 6 5 4 3 1 1 1 2 4 4 5 4 4 4 5 5 5 4 4 4 3 2 2 3 4 3 3 4 5 6 6 7 7 8 9 10 11
7 6 8 4 4 13 6 5 7 6 5 5 5 6 5 4 4 8 8 7 6 2 1 2 2 3 6 6 4 4 5 5 4 4 4 3 3 3 3 3 3 4 5 6 5 5 6 8 9 10 11 11 11 12
17 20 15 8 6 6 5 3 4 4 4 3 3 2 2 2 3 6 6 8 6 4 2 2 3 5 6 3 4 4 4 4 4 4 4 4 5 4 4 4 5 6 6 7 6 6 7 7 8 9 10 11 12 12

GFSWCAN_850_spd_078.txt.gz
Wind_Speed
27 31 33 34 33 33 28 29 33 37 38 38 40 39 40 39 39 39 38 35 33 4 9 22 26 22 17 23 6 9 5 5 3 5 2 3 3 5 4 5 0 5 5 4 3 2 5 3 3 4 5 3 3 7
31 33 32 32 31 29 32 31 31 31 34 35 36 40 43 45 41 41 29 33 31 13 2 18 18 21 39 39 28 24 12 8 12 4 4 2 2 1 4 3 2 3 5 2 6 5 4 4 8 3 7 7 6 6
29 30 29 25 26 31 32 32 28 31 34 35 34 33 40 40 42 46 30 35 30 12 15 17 13 29 33 32 28 13 10 10 9 12 5 4 3 4 4 4 3 5 0 2 2 3 4 15 21 17 11 15 15 13
23 19 19 25 27 23 21 22 25 26 36 37 34 34 36 34 44 44 40 37 31 9 2 5 16 29 31 34 33 28 17 15 7 10 3 3 3 5 4 4 5 5 3 4 5 5 16 18 21 22 21 20 17 12
18 19 22 19 21 17 17 20 21 25 32 38 37 36 37 40 38 44 35 36 32 14 7 5 8 21 29 32 39 33 23 17 7 3 2 3 2 3 0 2 1 2 5 3 4 6 3 16 31 24 26 24 15 8
16 20 19 18 19 13 18 18 15 8 29 37 33 37 36 33 44 40 11 34 34 29 3 2 3 16 21 23 33 38 33 24 17 6 4 4 4 4 3 3 3 7 7 5 5 17 23 32 29 24 25 11 10 5
15 14 18 20 22 19 21 22 27 30 29 31 32 35 41 46 45 24 6 17 41 21 4 3 3 7 18 19 15 17 22 15 12 2 1 3 4 5 3 2 3 8 13 14 6 21 16 14 21 20 5 9 8 7
14 17 18 23 23 22 25 28 32 34 36 38 40 42 48 43 31 8 3 16 40 16 2 3 3 5 19 7 5 7 7 7 3 7 2 2 3 2 2 8 11 13 18 5 13 13 9 13 8 6 2 4 5 5
16 14 20 22 26 24 28 29 31 33 36 38 39 40 33 18 9 9 19 33 27 7 4 2 0 3 10 5 6 4 3 2 3 2 2 4 2 3 6 11 12 14 13 18 20 9 7 10 8 7 5 6 7 10
20 11 13 20 21 25 27 30 33 34 42 41 35 10 6 12 20 30 15 7 8 7 2 2 3 3 4 3 3 3 3 2 3 4 6 3 3 7 15 11 11 14 15 15 17 13 14 12 9 8 10 8 10 11
21 20 12 15 26 25 24 25 27 23 21 7 5 5 28 37 17 3 5 3 4 3 0 5 8 4 6 3 3 2 2 1 2 2 2 2 3 6 16 13 14 13 12 10 7 6 7 5 4 2 8 9 12 14
19 16 17 15 10 7 15 13 12 7 14 14 12 10 6 5 3 4 1 2 4 3 5 3 4 5 5 3 4 1 2 1 2 2 3 2 3 10 14 14 16 14 11 9 7 5 3 3 1 6 10 11 13 16
19 16 13 12 13 22 22 11 7 6 7 4 3 5 7 9 11 6 5 3 2 4 8 7 4 4 4 4 2 2 2 2 3 3 3 2 7 11 12 12 13 12 9 8 8 6 7 8 8 11 17 17 19 22
18 17 12 11 11 7 2 7 10 3 2 7 6 7 4 4 4 3 3 2 4 5 7 4 4 3 3 3 2 3 2 3 3 3 2 3 10 10 10 9 9 12 12 12 13 14 15 14 17 19 21 21 25 33
14 17 11 7 5 8 8 12 11 4 9 9 8 6 5 4 7 8 10 5 11 7 5 2 5 6 4 4 4 3 5 4 4 2 3 10 12 12 12 11 11 12 13 17 18 20 22 24 27 29 29 30 32 34
9 14 22 16 4 1 4 6 9 12 8 8 11 5 8 2 6 9 13 10 15 7 4 7 4 4 5 3 5 5 3 3 1 2 7 8 10 11 13 13 15 15 17 20 22 24 27 29 31 32 31 31 31 32
9 12 10 14 23 10 1 5 11 11 8 6 5 15 6 3 4 8 13 17 12 6 3 3 5 2 2 4 3 4 2 2 4 7 8 9 10 12 13 14 16 19 21 23 25 27 29 30 31 31 32 29 28 29
11 11 8 5 3 10 29 14 9 9 9 11 5 12 17 14 12 15 17 21 7 5 5 4 4 5 4 3 2 2 4 9 9 10 10 8 8 10 12 15 17 20 22 24 25 26 26 27 29 27 26 25 25 24
10 11 6 6 6 7 7 8 9 6 10 4 6 7 7 12 18 13 12 13 19 14 9 6 5 3 2 4 4 10 10 7 12 12 11 10 12 13 13 14 15 16 17 18 19 21 22 21 21 19 18 17 19 18
8 9 7 4 5 7 7 7 7 9 4 5 8 15 9 8 10 17 20 20 18 8 9 5 3 4 4 5 5 6 9 11 13 14 13 12 11 12 14 14 15 15 16 17 17 17 17 17 15 14 14 14 15 16
9 10 13 19 25 14 8 6 8 8 10 6 5 3 7 18 21 18 16 16 14 8 5 9 11 10 9 10 7 7 8 6 6 6 13 12 11 12 12 12 12 13 14 14 14 14 13 15 14 12 10 11 11 11
8 8 8 10 8 7 9 10 11 9 6 7 4 5 6 5 8 15 13 18 8 10 7 10 10 11 12 11 10 8 7 7 10 11 12 11 12 12 12 11 10 12 12 12 10 10 11 11 9 8 6 8 8 9
4 5 7 7 7 7 5 4 5 4 3 2 4 4 5 5 6 7 7 8 6 9 9 10 11 11 13 11 11 11 9 9 12 12 10 10 11 10 9 9 8 8 8 9 8 7 8 8 7 6 7 8 8 9
5 5 6 6 7 3 5 5 5 5 5 3 3 3 3 3 5 7 3 4 4 6 7 8 8 10 11 12 13 12 11 9 11 12 10 8 8 8 7 7 6 6 6 6 5 5 6 6 6 6 7 6 7 7
4 9 6 6 6 5 5 4 4 4 3 3 3 3 2 3 3 3 2 2 3 4 4 4 5 7 10 10 9 8 7 6 5 6 7 6 5 5 5 5 5 5 6 4 4 4 4 5 5 6 7 7 6 5
7 10 5 3 3 5 2 4 3 2 3 3 3 2 3 3 4 3 1 6 6 3 3 2 3 5 5 5 4 4 4 3 3 2 2 2 2 3 2 2 3 3 3 5 5 4 4 4 4 4 3 3 3 4
5 3 7 8 5 8 6 9 7 6 5 3 2 3 3 5 1 0 5 5 5 4 4 3 2 2 3 4 4 4 3 2 2 3 2 1 1 2 1 1 2 1 0 3 4 4 3 3 3 2 2 2 2 3
5 6 5 7 10 10 5 4 4 3 1 3 4 5 4 4 2 3 3 6 5 4 4 6 7 7 6 5 5 6 5 5 5 5 5 4 4 3 2 2 2 1 1 1 3 3 2 2 1 1 1 2 3 4
7 5 6 6 7 9 9 3 2 3 2 2 4 2 3 3 5 8 9 6 5 3 3 4 5 5 5 4 3 3 2 2 2 3 3 5 6 4 3 1 0 1 1 1 0 1 2 2 2 3 4 4 6 7
5 6 7 6 5 5 9 7 10 10 11 12 10 14 16 13 10 10 9 7 6 5 5 5 3 3 5 5 4 4 2 2 3 4 4 4 5 4 3 1 1 1 1 2 2 3 4 4 4 5 6 7 9 10
5 5 8 8 7 10 18 19 18 16 14 14 17 18 13 8 8 7 6 3 4 4 2 2 2 3 4 5 5 4 4 4 5 5 4 4 4 4 3 2 2 2 2 3 4 4 5 6 7 8 9 11 12 13
6 6 7 5 5 9 5 3 4 5 5 5 5 6 5 4 5 8 9 8 4 0 2 3 2 3 5 5 3 4 4 4 4 4 4 4 4 4 4 4 4 4 4 5 5 6 7 8 8 9 11 12 12 13
14 20 14 9 5 4 3 3 4 4 5 3 3 2 2 2 3 7 6 8 6 4 3 1 2 4 4 4 5 5 4 4 4 4 4 4 4 4 4 5 5 6 6 7 7 7 7 8 9 10 11 11 12 13

GFSWCAN_850_spd_081.txt.gz
Wind_Speed
33 33 32 33 33 33 33 33 33 32 27 34 35 35 35 35 35 35 32 30 26 2 4 24 27 20 18 22 6 10 6 6 4 6 4 4 3 5 4 6 1 5 8 5 6 5 5 5 5 3 3 6 3 1
32 33 31 32 31 32 32 31 30 31 31 33 32 37 36 38 37 36 26 31 28 14 4 13 22 26 35 37 27 24 12 8 10 3 4 3 3 2 3 3 1 3 4 3 6 5 2 7 9 11 10 12 7 1
30 24 21 22 25 28 30 32 34 34 33 33 33 34 38 40 40 41 34 24 28 17 12 12 12 24 27 29 28 11 14 12 12 10 4 2 3 5 4 5 2 2 2 2 2 2 7 21 17 14 15 19 25 21
20 21 24 24 24 25 26 25 24 25 27 29 31 34 36 37 40 42 41 34 29 9 3 7 24 21 29 29 30 27 13 18 12 14 3 2 2 6 4 2 4 3 2 2 3 4 10 10 25 25 32 28 20 20
19 19 26 23 23 19 21 21 24 27 29 28 30 33 35 34 41 43 33 39 30 13 5 7 8 21 18 31 30 28 25 18 13 4 2 4 2 3 1 1 3 1 2 2 3 6 3 11 24 22 28 27 19 13
19 19 25 19 19 18 19 21 18 18 28 30 32 36 33 30 43 38 11 32 36 28 1 2 7 13 21 27 32 32 26 18 14 5 2 5 5 5 4 4 3 5 7 8 6 16 15 22 18 22 18 15 7 1
16 17 22 16 19 21 25 23 22 19 30 31 36 35 29 33 48 28 9 18 39 29 1 1 2 7 16 21 24 24 26 17 13 8 4 2 2 7 2 2 5 7 9 11 8 17 4 9 13 19 12 8 6 6
13 17 21 18 18 24 26 31 24 27 29 31 36 34 36 40 27 15 9 26 36 17 6 2 2 5 19 7 6 13 11 15 8 5 4 3 3 2 3 8 9 12 13 0 14 14 11 14 13 11 7 4 2 4
10 15 19 21 24 24 29 36 39 38 37 40 40 44 33 26 9 8 22 36 24 6 6 4 1 3 14 5 5 5 6 2 3 3 3 4 2 4 6 11 12 14 12 15 18 13 10 11 12 10 7 5 4 6
14 13 16 17 21 28 34 31 36 43 46 42 36 10 6 13 32 39 16 4 5 3 2 2 2 2 9 8 3 3 4 2 4 2 6 3 3 7 14 11 11 13 13 13 15 14 17 15 12 10 8 7 7 8
18 16 17 18 18 21 21 23 27 31 17 8 8 9 37 36 9 4 5 4 4 3 3 3 2 2 4 3 3 3 3 2 3 2 2 2 3 7 14 13 14 14 12 11 8 9 9 9 7 5 6 7 8 9
13 14 14 11 14 16 27 26 17 14 17 17 20 26 14 4 5 3 2 2 2 2 4 1 4 5 5 3 3 3 3 1 3 3 3 3 3 12 14 14 15 15 12 10 8 6 5 4 2 2 6 8 10 16
12 11 16 15 11 10 10 10 12 14 12 7 4 5 3 7 9 5 3 2 2 5 8 7 4 3 3 6 3 2 3 4 3 4 3 3 10 12 12 11 11 12 10 8 8 6 4 5 6 7 12 14 16 20
14 10 10 9 5 2 2 6 2 10 3 7 6 7 4 5 4 3 3 3 4 5 10 7 4 4 6 4 3 4 4 4 4 3 3 4 9 10 10 9 9 11 10 10 10 10 11 12 16 16 18 19 21 27
14 16 10 7 3 5 9 8 3 6 7 7 7 5 4 4 5 7 7 3 10 9 8 3 5 6 4 5 4 3 4 4 4 2 2 5 7 8 9 10 10 10 10 12 12 15 17 19 21 24 22 23 26 28
4 9 20 20 10 4 4 5 8 10 8 7 10 4 8 2 7 12 14 9 14 9 4 5 3 4 6 3 5 4 2 2 2 2 3 4 6 7 10 10 11 12 14 16 17 20 22 24 27 30 30 29 30 30
6 6 6 7 18 11 1 2 9 10 8 6 5 13 5 3 3 7 12 16 12 6 3 3 5 3 2 4 3 4 2 2 4 6 7 7 7 8 10 10 13 16 17 19 22 24 26 26 28 30 31 28 27 27
9 8 5 5 2 5 26 13 9 9 8 11 5 10 16 14 10 12 15 19 6 4 4 4 4 6 4 3 2 2 5 7 9 9 10 9 8 8 10 13 14 16 19 21 22 23 24 25 27 27 26 24 23 22
9 8 5 6 5 6 7 9 9 7 8 4 5 7 6 11 18 15 13 13 18 14 9 6 6 3 3 4 4 7 6 5 7 10 11 10 10 11 12 12 14 15 16 17 17 19 20 20 21 19 18 17 19 18
11 10 5 3 5 7 7 7 7 9 4 5 6 12 7 7 11 18 21 22 21 9 9 5 4 4 3 6 5 5 8 9 10 11 12 10 9 9 11 12 13 14 15 15 16 16 16 17 16 14 13 13 13 15
8 10 12 17 22 13 8 5 7 8 9 5 3 3 6 14 19 17 17 17 15 8 5 8 9 10 10 9 8 7 7 4 3 3 10 10 10 10 11 12 11 12 13 13 13 13 12 13 13 11 9 10 10 11
9 10 10 11 8 8 9 10 10 10 6 7 4 5 6 5 7 13 11 18 8 9 7 9 10 11 12 12 11 9 8 8 10 11 11 10 11 11 11 10 9 11 11 11 9 8 9 9 8 7 6 8 8 10
4 5 7 7 7 7 5 4 4 4 3 2 3 4 4 5 5 6 7 7 6 9 10 11 11 11 13 12 12 11 10 10 12 12 11 11 11 10 10 9 9 8 7 8 7 6 6 7 6 5 7 8 8 9
5 5 6 6 7 3 5 5 5 5 5 3 3 3 3 4 4 7 4 4 5 7 9 8 9 11 12 13 14 13 11 10 11 11 10 7 8 8 7 7 6 5 5 5 5 5 6 6 7 7 8 8 9 8
4 10 6 6 7 6 5 4 4 4 4 3 4 3 3 4 3 3 2 2 5 7 7 7 9 10 11 11 10 9 7 7 6 6 8 7 6 6 5 5 5 4 5 4 4 4 5 6 7 7 8 7 6 6
7 11 6 3 4 4 2 4 3 3 3 4 3 2 3 3 4 3 2 3 5 5 5 5 5 5 5 5 4 4 4 4 4 3 3 3 3 3 3 3 3 3 3 5 4 4 5 6 5 5 5 5 4 3
5 3 7 7 5 8 7 8 7 6 4 3 1 3 3 5 1 0 4 4 4 4 3 2 2 2 4 4 4 4 3 2 2 3 3 2 1 1 0 0 1 2 2 2 4 5 4 4 4 3 3 2 1 0
5 6 4 6 10 9 5 4 4 3 1 2 4 5 4 4 2 4 4 7 6 5 5 7 7 7 6 6 6 6 5 5 5 5 4 4 4 3 2 2 1 1 2 2 3 3 3 3 3 2 1 0 2 3
7 5 6 5 7 10 9 3 2 3 2 2 4 2 4 4 7 11 12 8 7 5 5 5 6 6 4 3 2 2 2 3 3 3 3 3 3 3 2 1 1 1 2 3 2 2 2 1 1 1 2 3 4 5
5 6 7 6 5 5 8 7 10 11 11 11 10 14 16 14 12 9 8 8 6 4 5 6 4 4 4 4 3 3 2 2 3 4 3 3 3 2 2 1 1 1 1 1 2 2 2 2 3 4 5 6 7 9
5 5 8 8 6 9 17 20 19 15 13 14 17 19 14 9 11 12 12 10 8 5 4 3 2 2 2 4 2 2 3 3 4 3 3 3 2 2 2 2 2 2 2 2 3 3 4 4 5 6 7 8 9 10
7 6 8 5 4 9 4 3 4 5 4 5 5 6 6 5 5 9 8 7 5 3 3 3 1 1 4 3 3 3 3 3 3 4 4 4 3 3 3 3 2 2 2 3 4 4 5 6 6 7 8 9 10 11
13 20 14 9 5 5 4 4 4 4 4 3 3 3 2 3 4 7 9 9 6 5 3 1 1 2 2 3 3 3 3 4 5 5 5 4 4 3 4 4 4 5 5 5 5 5 6 6 7 8 9 9 10 11

GFSWCAN_850_spd_084.txt.gz
Wind_Speed
34 34 34 34 33 33 30 29 30 31 31 30 29 30 31 30 32 32 31 28 14 15 17 21 28 31 23 23 9 9 7 5 3 7 6 5 5 8 7 8 4 7 9 8 10 6 8 15 2 6 2 19 9 6
33 31 21 20 20 22 25 27 28 30 30 31 32 28 32 34 33 34 24 25 27 8 6 16 24 29 31 29 24 21 12 9 11 7 6 4 5 3 9 4 3 6 6 3 5 5 5 12 9 8 13 14 14 14
30 25 23 23 25 23 24 25 27 29 30 30 31 31 31 38 37 38 30 23 22 14 9 9 13 28 24 22 27 16 21 11 11 10 3 4 5 6 7 9 6 3 4 4 3 8 5 9 7 14 16 18 19 17
22 22 27 26 28 22 22 23 23 25 28 31 34 35 32 37 41 39 36 29 27 8 3 2 11 19 23 28 24 25 12 16 7 8 3 3 4 6 6 9 6 4 1 3 5 6 13 5 16 22 23 21 21 18
20 23 24 24 19 21 22 23 25 24 26 27 27 35 38 33 39 41 37 32 25 12 5 8 4 18 21 20 23 21 14 13 14 6 4 5 6 3 3 3 8 4 5 4 3 4 7 12 22 19 21 21 20 16
18 24 22 17 18 23 25 19 19 23 27 30 29 29 32 36 35 41 14 28 29 17 4 5 8 11 17 20 22 21 22 12 8 5 3 6 6 6 3 5 6 6 6 8 5 14 15 14 13 18 19 17 15 11
13 17 13 17 20 22 17 19 14 11 28 31 29 31 35 36 46 31 8 15 33 23 3 2 3 11 17 17 20 20 20 12 8 4 5 6 3 5 3 2 8 9 9 6 9 14 5 12 12 17 16 13 9 8
12 11 11 14 20 20 20 20 27 32 35 32 32 33 35 39 39 16 8 23 39 16 3 2 2 5 20 9 9 13 11 12 9 4 3 4 3 3 2 6 8 12 11 3 14 12 9 11 12 12 11 10 6 6
12 8 15 21 23 28 28 28 31 35 38 38 40 42 37 28 10 14 22 37 29 5 6 4 3 3 15 5 6 6 6 3 6 4 4 1 2 3 5 9 11 13 10 13 15 11 9 10 12 13 11 9 5 5
7 9 14 15 20 22 38 44 43 42 42 43 35 10 7 17 39 39 16 5 4 3 2 3 4 3 10 5 3 5 5 3 4 4 5 3 3 9 9 9 10 12 12 12 12 10 14 12 10 11 9 7 5 4
9 7 9 11 14 19 25 29 20 10 10 8 7 12 38 35 9 5 5 4 4 3 6 5 9 2 6 4 3 5 3 3 4 3 2 3 3 6 9 10 11 11 11 9 8 8 8 8 7 5 5 3 3 5
8 10 13 26 24 20 14 6 12 16 13 17 22 25 11 5 5 3 3 3 2 2 1 1 4 7 5 6 3 4 2 2 3 2 3 3 4 8 10 10 10 11 10 8 7 6 4 2 2 1 3 3 5 9
5 9 9 6 6 9 11 13 27 33 27 20 7 5 7 6 5 2 3 3 2 4 4 1 3 5 5 4 2 2 2 4 3 3 3 3 7 9 10 9 9 9 8 8 7 7 4 4 4 6 9 10 11 14
7 5 4 2 6 4 3 11 9 10 4 7 5 5 4 3 3 3 2 2 4 5 9 7 5 3 3 3 3 4 3 1 3 3 3 3 7 8 8 8 8 10 10 9 9 9 9 9 11 11 12 13 17 22
13 13 3 3 1 8 8 10 9 6 6 6 5 5 4 3 4 5 5 2 7 9 8 2 5 6 5 5 4 3 3 4 4 3 3 6 6 5 7 8 8 8 8 9 9 11 13 14 16 19 18 20 23 25
1 4 12 14 2 2 9 8 10 8 7 6 8 3 6 2 6 7 11 7 11 9 4 3 3 4 6 3 4 5 2 3 3 3 5 4 6 7 9 10 10 10 11 12 13 14 16 19 21 23 23 25 26 25
3 1 3 7 16 5 6 4 7 9 7 6 5 9 5 4 6 8 10 13 12 6 3 3 5 6 2 4 4 4 3 5 7 7 7 8 7 8 8 8 10 11 13 14 15 18 20 21 23 25 27 25 25 25
3 3 2 1 1 4 20 10 8 8 8 9 5 8 12 10 8 11 12 16 9 5 5 4 4 5 5 3 3 4 6 8 8 8 8 8 8 7 8 9 10 11 13 15 17 18 19 20 21 22 21 20 21 20
5 3 5 5 2 4 6 8 8 7 8 5 6 6 7 7 13 12 12 12 13 12 7 5 6 4 4 5 8 9 7 6 7 8 9 9 9 9 10 11 11 12 13 14 14 16 17 17 16 15 15 14 15 14
10 7 5 4 3 6 6 6 7 8 4 5 7 10 6 6 8 12 17 15 16 8 9 5 5 7 7 8 7 8 8 8 8 8 8 7 7 8 8 9 10 12 13 13 14 14 14 14 13 12 11 10 10 10
8 8 11 15 20 12 7 5 7 7 8 6 5 5 7 13 18 15 15 13 14 8 6 9 9 8 8 8 8 7 6 5 3 4 7 7 7 8 8 9 9 9 9 10 10 11 10 9 9 8 7 7 8 8
10 11 11 11 8 7 8 8 9 8 6 8 5 5 5 5 8 12 11 16 8 11 6 7 8 7 9 10 9 9 9 10 10 10 10 9 8 7 7 7 7 8 8 8 7 7 6 6 6 6 5 7 8 9
6 5 6 5 7 6 5 3 4 4 3 3 3 3 4 4 5 6 7 8 7 8 7 8 9 10 11 11 11 11 10 10 10 9 9 8 8 8 7 7 6 5 5 5 4 4 4 4 4 4 6 7 7 9
5 5 5 5 7 5 5 4 4 4 4 3 3 3 3 4 4 6 4 4 5 5 6 6 6 8 9 10 10 10 9 8 9 8 7 6 6 5 5 4 4 3 3 4 4 4 4 4 5 6 7 7 8 7
4 9 6 7 5 4 4 3 3 3 4 3 3 3 3 2 3 3 3 4 4 4 5 6 7 7 7 7 7 7 7 6 5 6 6 5 4 4 3 3 2 2 4 4 4 4 4 5 6 7 8 7 6 6
7 10 5 4 3 4 3 4 3 3 3 3 4 3 2 3 4 4 3 5 4 3 4 5 4 4 5 4 4 3 3 4 4 2 2 2 2 2 2 1 1 1 2 3 4 4 4 5 6 6 5 5 5 4
5 5 7 7 5 7 6 8 6 5 4 3 2 2 2 4 3 3 6 4 4 3 4 3 3 4 4 4 4 3 2 2 2 2 2 1 0 1 2 2 2 2 2 2 3 5 4 5 5 4 4 3 2 2
6 6 4 6 8 9 4 4 4 3 3 3 3 4 3 2 3 5 4 7 6 6 6 7 7 7 6 5 5 5 4 4 4 3 3 3 2 1 1 1 2 2 2 2 3 3 4 4 3 3 3 2 3 3
6 4 5 5 7 9 9 4 3 3 2 2 3 3 4 4 6 8 9 9 8 7 6 6 6 5 3 2 2 1 1 2 3 3 2 2 3 2 1 0 1 1 2 2 3 4 4 4 4 4 3 4 4 4
4 4 6 6 5 6 8 6 7 8 9 10 9 11 11 10 13 12 9 8 6 5 6 6 4 3 2 2 1 1 2 2 2 2 1 2 2 2 1 1 1 1 2 2 2 3 3 3 4 4 5 6 7 8
4 4 7 8 7 9 13 19 18 17 15 11 14 13 11 7 8 8 9 8 8 7 6 4 2 2 1 2 1 2 3 3 3 2 1 1 1 1 1 2 2 2 3 3 3 4 5 5 5 6 7 8 9 9
5 5 7 5 6 8 6 4 5 6 5 5 5 6 6 4 5 10 11 9 6 4 4 4 2 0 2 1 2 2 2 2 2 2 2 2 2 2 2 2 2 2 3 3 4 4 5 5 6 7 8 8 9 9
11 13 11 9 6 5 4 5 4 4 4 3 2 3 3 3 4 9 11 11 8 6 5 3 1 0 1 2 2 2 2 2 2 2 2 2 2 2 2 3 3 3 4 4 5 5 5 5 6 6 7 8 9 9

GFSWCAN_850_spd_087.txt.gz
Wind_Speed
29 30 33 30 23 20 21 22 25 28 29 29 29 28 30 29 29 30 26 26 29 6 21 21 26 28 19 13 6 11 6 3 3 5 5 8 6 5 7 9 6 9 10 7 12 10 13 11 2 2 2 7 9 14
30 34 29 26 23 23 22 23 24 24 28 31 31 31 30 33 33 32 23 25 26 7 9 21 22 19 23 25 20 14 9 8 11 6 7 4 6 2 8 6 13 7 9 3 4 6 4 10 15 12 14 12 16 18
30 27 25 24 26 26 28 27 27 25 27 27 30 34 34 30 36 35 31 24 22 14 5 12 22 30 21 18 16 18 15 13 10 16 3 5 7 5 5 9 5 4 12 5 3 5 6 10 10 15 16 16 19 19
25 26 23 26 28 25 23 22 24 24 28 30 31 30 34 32 33 37 35 29 23 7 4 5 14 20 23 22 21 26 10 14 11 11 6 3 4 4 4 8 6 4 3 8 6 13 13 11 14 12 16 17 20 20
26 22 23 26 23 24 26 27 26 25 25 29 32 33 32 31 30 38 38 33 23 13 4 12 3 15 15 23 23 20 23 14 14 5 4 4 8 5 5 5 6 9 7 4 4 8 8 11 15 15 18 19 18 18
25 17 19 25 28 31 27 23 23 24 26 31 30 33 35 35 33 39 10 31 25 23 3 3 13 15 17 20 22 23 19 13 8 5 4 9 14 6 3 4 7 9 9 11 7 14 12 9 6 17 19 19 17 15
15 13 17 19 25 25 19 19 23 25 26 31 29 30 32 36 44 34 8 10 33 19 2 3 3 15 16 20 19 17 19 10 5 3 4 5 6 6 2 1 6 10 10 7 11 16 7 15 12 18 18 17 14 12
11 10 15 21 18 19 15 18 14 23 29 31 30 29 32 39 41 22 10 15 32 12 4 2 2 8 18 9 8 14 8 9 7 4 6 7 4 5 3 6 7 11 11 7 15 12 8 12 14 16 16 15 12 12
3 6 13 16 20 28 25 24 30 33 34 32 28 39 45 25 12 14 18 35 27 7 4 3 3 3 16 4 4 10 6 3 7 4 4 3 1 4 5 7 9 11 10 13 14 9 8 10 11 12 13 13 11 11
2 6 13 11 20 24 29 31 37 40 41 45 39 15 7 11 37 39 18 4 5 5 4 3 6 3 4 6 3 4 4 3 3 5 4 2 3 7 5 6 7 9 10 11 13 10 14 13 13 11 10 9 7 6
2 5 5 10 11 13 12 20 21 16 16 8 6 12 44 35 15 4 5 5 6 3 7 5 9 4 4 7 3 4 3 4 4 3 5 4 3 4 5 7 8 9 9 8 8 8 9 10 10 8 6 6 5 2
9 15 15 13 10 11 14 16 12 7 10 18 27 27 8 3 4 4 3 2 4 2 3 3 4 5 4 3 3 5 2 2 2 3 4 5 4 6 7 8 8 10 11 10 10 9 8 7 6 3 3 4 5 4
5 5 6 6 5 10 18 27 32 32 32 16 6 5 5 5 3 2 6 3 4 2 2 2 3 5 4 3 3 3 4 3 5 2 3 4 8 8 8 7 8 9 10 9 9 8 8 7 4 4 5 7 8 10
4 2 3 7 5 7 15 20 19 11 3 7 5 5 5 3 3 3 4 4 4 4 4 3 3 2 4 2 2 3 2 2 2 3 4 5 9 7 8 8 8 10 9 9 9 9 9 9 9 8 9 10 13 16
10 9 3 2 7 9 10 9 8 1 7 6 5 4 4 1 4 4 4 2 7 7 8 3 4 3 4 5 3 3 3 4 5 4 4 9 7 7 9 10 9 9 9 9 9 10 11 13 14 16 15 16 18 20
1 3 11 9 7 7 7 5 6 8 6 5 7 1 5 1 7 9 11 9 11 8 6 2 3 4 4 2 4 4 2 4 3 4 9 8 8 9 10 10 10 10 9 11 11 11 13 14 16 17 18 19 21 22
6 1 4 14 9 8 8 8 7 8 6 4 5 10 5 6 9 10 12 14 13 8 3 3 5 5 2 3 4 5 4 5 10 10 8 8 9 9 9 10 9 9 11 12 13 14 16 17 18 19 21 20 20 20
3 1 1 1 6 10 14 8 6 7 7 9 6 10 14 11 10 11 13 16 10 5 6 4 4 5 5 4 3 4 9 10 9 9 10 9 8 9 8 9 9 11 12 13 14 15 15 15 17 18 18 18 18 16
3 5 5 6 5 4 5 6 7 6 7 7 8 8 8 11 13 12 12 11 11 11 6 5 6 4 4 7 9 10 9 8 10 9 9 9 9 9 9 11 11 10 10 11 11 11 12 13 12 11 11 10 11 10
9 7 6 6 6 5 6 6 6 7 4 6 8 12 10 8 10 13 14 15 15 8 8 5 5 10 11 11 10 10 9 8 8 9 8 7 7 8 8 7 8 9 10 10 11 11 10 10 10 10 9 9 8 8
8 7 9 7 8 10 7 5 7 8 8 6 8 9 7 14 17 16 17 13 15 8 6 10 11 10 9 9 9 7 7 6 6 7 7 7 7 7 7 7 7 7 7 7 8 9 9 9 7 7 7 7 7 7
8 8 5 8 7 6 7 9 9 8 5 8 6 6 5 8 10 13 14 15 9 13 9 9 9 8 9 9 9 10 10 10 10 10 9 8 7 6 6 6 6 7 7 7 6 7 7 6 5 5 6 7 7 7
9 5 6 5 6 6 4 2 4 3 3 3 3 3 4 4 5 7 7 9 8 9 8 9 9 10 10 11 11 11 10 9 9 8 8 7 7 7 7 7 6 5 5 5 5 4 4 4 5 5 6 6 6 7
6 4 5 4 6 5 4 3 4 4 4 3 3 3 3 4 4 6 4 5 6 6 6 6 6 8 8 8 8 9 9 7 7 7 6 5 5 5 5 5 5 5 5 4 4 4 3 3 6 5 6 6 6 6
4 7 4 5 4 4 4 3 3 3 4 3 3 3 3 2 3 3 3 4 5 5 5 6 6 6 6 6 6 6 7 6 5 5 6 5 4 4 4 4 4 4 4 3 3 3 3 4 4 5 5 5 5 5
6 8 4 3 3 3 3 4 3 4 4 3 4 4 2 2 4 4 3 6 5 5 4 4 4 4 4 4 3 2 3 4 3 2 3 3 3 2 1 1 2 3 2 3 2 3 3 3 4 4 4 4 6 4
4 4 6 6 5 8 7 9 9 5 4 3 3 2 2 4 4 3 6 5 5 4 3 3 3 3 3 3 3 2 2 2 3 2 1 1 1 1 2 1 1 1 0 1 3 2 2 3 3 3 3 2 2 2
6 6 4 5 8 9 5 4 4 3 3 3 3 4 3 3 3 5 5 6 6 6 6 6 6 6 6 5 4 4 4 4 4 4 4 5 3 3 2 1 1 2 2 2 2 3 3 3 3 3 3 2 4 4
6 6 7 7 8 9 9 5 4 4 3 2 3 3 4 5 7 9 9 8 7 6 5 5 4 3 3 1 1 1 2 2 1 2 2 1 2 4 3 2 1 0 1 1 2 3 4 4 4 4 4 3 4 5
4 4 6 7 5 6 8 8 11 10 10 10 11 15 16 11 8 9 7 7 6 5 5 5 4 3 2 2 1 2 3 3 2 1 2 1 1 3 2 1 1 1 1 1 1 1 2 3 3 4 5 5 5 5
4 5 7 8 7 11 14 14 15 14 13 15 16 16 13 8 5 6 6 6 5 6 4 3 2 2 2 2 1 1 3 3 3 2 2 2 2 2 2 3 3 2 2 2 3 3 4 4 4 5 5 6 7 10
6 6 7 5 7 8 6 6 6 7 6 6 6 6 6 5 4 4 8 7 5 4 5 3 2 2 2 2 2 2 2 3 3 3 3 3 3 3 4 4 3 3 3 4 4 4 5 5 5 6 6 7 8 9
12 15 14 10 7 6 4 5 4 5 4 3 3 3 3 2 3 5 12 11 11 7 5 5 3 2 1 1 2 2 2 3 4 4 4 4 4 3 3 4 4 4 4 4 5 5 5 6 6 7 8 9 9 10

GFSWCAN_850_spd_093.txt.gz
Wind_Speed
25 22 24 23 24 24 25 24 23 19 18 19 21 24 24 24 25 26 24 20 35 13 13 14 19 18 17 16 2 2 5 1 1 2 3 3 2 3 3 9 7 5 6 4 3 2 6 17 8 5 4 16 18 16
23 24 24 23 24 24 24 27 22 21 22 21 20 22 26 25 26 28 23 24 19 19 8 18 31 32 30 20 12 5 1 3 9 2 3 2 2 2 2 3 3 1 5 4 6 4 4 17 16 15 17 13 15 18
24 24 23 23 24 27 26 21 22 23 25 23 21 21 27 28 27 30 31 20 21 17 17 24 33 29 25 29 22 7 3 6 6 4 1 2 1 1 2 2 2 3 8 2 2 9 10 16 13 11 13 16 14 15
25 23 22 25 27 27 24 24 25 24 22 19 22 25 23 29 30 29 30 26 26 4 4 13 19 21 24 22 22 20 10 9 7 2 2 0 1 5 1 4 3 3 5 4 5 13 17 17 14 11 11 14 13 14
21 19 22 26 25 23 26 29 31 30 28 26 22 24 25 29 31 29 29 31 29 17 3 7 16 19 11 18 21 21 17 11 3 3 2 2 3 2 2 1 3 5 4 4 3 10 13 10 10 13 14 14 13 11
15 19 24 18 20 25 27 30 28 27 28 28 27 27 25 30 31 29 13 35 33 30 6 3 6 9 17 16 22 19 21 14 5 3 2 4 6 1 1 2 6 13 13 16 4 9 13 11 12 13 15 17 10 10
15 20 15 16 20 21 25 27 26 24 23 27 29 29 28 30 37 30 8 6 36 27 4 3 2 5 15 14 15 16 17 8 5 5 4 1 2 4 1 2 6 9 11 14 11 12 10 13 10 9 8 14 8 8
15 16 11 15 18 28 19 24 23 21 26 25 29 29 27 30 32 30 9 4 30 25 4 2 3 3 17 8 7 8 8 8 8 7 4 2 5 3 3 7 9 10 7 13 11 14 10 10 13 13 9 8 11 10
15 8 10 12 16 14 17 20 12 22 30 27 32 27 32 30 16 23 15 14 32 8 4 4 2 2 9 4 5 5 4 2 3 3 3 4 3 4 4 7 10 11 10 11 11 10 9 13 12 10 8 10 9 8
7 3 7 6 12 21 23 18 23 27 32 37 33 15 7 17 26 24 18 7 8 5 4 2 3 1 1 2 3 4 4 2 3 4 1 3 3 8 9 11 10 9 9 8 9 12 11 9 8 5 7 7 5 4
3 4 4 10 10 18 28 22 26 30 35 21 6 6 40 34 22 4 4 4 5 3 6 6 4 3 2 2 2 4 2 3 2 3 4 3 3 4 11 11 8 7 7 7 5 4 4 5 6 6 4 4 2 2
4 8 5 8 7 3 6 20 13 17 5 12 25 29 21 7 4 4 3 3 4 4 3 2 3 5 3 2 1 2 3 2 3 3 2 3 3 10 12 11 9 8 7 7 6 5 5 4 3 2 4 6 8 8
11 8 5 8 12 12 19 20 39 33 37 27 7 5 1 2 3 3 6 2 3 3 3 2 2 3 3 2 1 1 3 3 6 3 3 2 10 10 9 8 7 8 6 6 8 8 9 9 7 8 9 10 12 15
9 7 10 16 20 22 23 19 12 12 8 5 4 5 3 4 4 3 2 2 3 5 7 7 5 2 2 1 1 2 2 2 3 3 2 3 12 11 9 7 7 8 7 8 10 11 12 12 13 12 11 10 11 14
11 11 10 18 16 7 9 9 10 6 6 7 7 4 3 4 10 11 7 5 4 3 2 3 4 2 1 2 2 1 2 4 4 2 2 12 11 7 7 8 8 8 8 9 8 10 11 12 14 16 16 16 16 17
8 10 10 16 13 5 5 6 14 12 7 6 8 4 6 5 6 9 11 7 5 2 3 1 2 2 3 2 4 4 3 4 2 4 13 10 10 8 8 7 8 9 10 10 10 11 11 13 15 17 17 16 16 15
10 6 13 13 9 4 4 5 7 9 6 5 5 14 12 8 8 8 9 11 8 3 2 2 3 4 2 3 3 4 3 4 12 14 13 10 9 9 9 10 9 8 10 11 13 13 15 16 16 16 18 16 14 13
8 10 14 14 14 10 13 9 7 7 7 11 5 10 16 12 9 12 11 15 6 4 4 3 5 5 4 3 2 3 11 18 15 13 11 10 11 9 8 10 10 13 15 15 16 15 14 14 15 16 14 12 11 10
9 10 11 9 9 7 6 6 7 6 7 7 9 10 10 14 15 14 15 11 15 12 7 5 5 3 3 5 8 15 14 13 13 12 10 9 10 10 11 11 10 10 11 10 11 13 11 9 10 9 8 7 8 7
18 18 13 10 8 6 6 6 6 7 4 6 11 13 9 11 15 18 19 19 15 8 8 4 4 8 10 19 18 15 8 11 16 15 12 10 9 9 9 8 11 11 11 11 9 8 8 9 8 7 5 4 4 4
16 12 10 12 14 10 7 5 6 7 10 5 10 4 9 20 20 17 14 15 14 7 5 11 16 15 15 14 12 12 15 17 16 13 12 11 9 8 8 9 10 8 5 5 7 6 4 5 3 2 2 2 1 2
11 6 5 6 6 6 7 7 10 10 6 8 5 5 5 5 7 10 15 15 8 12 11 16 12 10 12 14 14 13 12 13 14 13 11 11 11 10 8 5 4 7 7 5 4 4 3 1 1 2 2 4 5 6
8 4 6 6 6 5 4 4 3 4 3 5 5 3 4 3 5 7 7 7 7 11 12 15 16 16 16 13 12 13 10 11 11 8 7 8 7 6 7 8 6 4 4 3 2 2 2 4 3 1 2 3 5 6
3 4 5 4 5 4 4 3 4 4 4 3 3 3 3 3 6 6 3 4 8 8 7 10 12 14 10 8 11 13 10 6 7 11 9 4 3 4 3 4 4 3 2 0 1 1 1 3 5 3 2 4 4 3
3 7 5 4 4 4 4 2 2 3 3 2 3 3 0 3 3 3 2 5 9 8 7 10 11 7 8 9 7 7 10 9 4 5 7 5 3 2 4 5 3 1 2 2 1 3 1 3 4 5 6 4 5 3
6 8 5 2 2 4 3 3 3 3 3 3 2 3 2 3 4 3 2 12 10 9 10 9 7 7 9 9 6 0 3 6 4 2 1 4 4 6 4 3 2 2 1 2 2 3 2 1 3 4 5 4 5 3
4 3 5 5 4 7 5 8 9 5 4 3 2 2 3 4 3 2 10 11 12 9 8 7 9 8 4 3 1 4 5 4 2 2 4 4 2 3 6 6 5 4 3 6 5 2 3 3 2 3 2 3 6 5
5 4 4 7 9 10 4 3 3 2 2 3 5 4 3 3 2 7 9 13 10 9 10 9 7 5 5 6 5 4 5 6 6 5 4 5 8 7 5 1 3 4 5 5 5 7 5 3 2 3 3 3 5 6
4 5 8 6 8 9 10 3 2 3 2 2 4 3 4 5 11 18 13 10 8 7 8 8 8 6 5 3 1 0 1 4 6 3 2 2 3 7 9 5 0 1 4 4 1 4 7 7 6 6 5 6 7 7
3 4 6 7 4 4 7 5 7 6 6 13 13 26 25 21 15 12 14 12 10 9 7 8 6 4 3 1 5 4 4 2 3 4 4 5 5 7 7 5 2 4 3 2 4 2 2 2 3 3 2 2 3 4
6 5 6 6 5 10 21 22 24 23 22 18 16 23 17 14 14 13 12 11 10 6 6 7 7 7 7 5 3 4 3 3 2 2 3 5 5 5 5 4 4 4 4 5 5 6 5 3 2 1 3 6 9 10
4 4 7 4 5 14 8 4 6 8 5 6 6 10 12 6 5 9 10 9 11 9 9 6 4 2 3 3 4 4 3 3 2 2 3 5 5 4 4 3 3 3 2 2 3 3 3 2 6 8 8 10 10 11
17 21 17 10 6 7 6 6 4 5 5 4 4 4 5 4 5 7 14 12 13 14 9 8 6 4 2 1 1 2 2 2 2 3 3 3 4 4 4 4 3 4 2 2 2 3 3 2 3 4 6 7 7 7

GFSWCAN_850_spd_096.txt.gz
Wind_Speed
23 23 27 23 21 21 21 22 21 21 21 21 16 17 20 23 22 26 28 30 34 15 19 10 22 18 9 6 2 5 6 2 1 2 2 3 2 3 3 2 3 4 4 3 3 3 6 9 1 3 5 3 9 13
23 24 27 20 22 22 22 22 21 23 23 20 19 18 17 22 24 27 24 20 18 17 8 14 28 24 23 19 7 3 4 0 3 0 2 2 2 2 2 3 3 3 2 4 5 3 6 17 16 13 11 10 10 9
24 26 23 21 23 21 22 23 24 23 21 19 20 18 18 21 25 29 26 19 17 14 18 25 25 23 26 27 29 10 8 6 5 5 2 2 2 1 1 2 1 1 5 1 2 6 11 13 13 16 14 11 8 8
25 25 23 21 21 23 24 26 24 22 21 20 19 20 21 21 26 27 31 26 23 6 4 9 9 13 13 19 28 28 22 17 13 10 4 1 1 0 2 2 2 4 5 4 5 6 13 14 13 10 12 10 8 10
25 23 20 19 21 26 24 21 22 24 25 24 22 19 23 23 26 29 27 29 27 14 3 7 17 17 14 11 23 25 18 18 9 1 1 2 3 1 1 2 3 7 4 1 2 9 8 9 10 11 14 11 9 9
22 17 17 21 23 20 22 24 25 27 26 24 27 26 20 26 29 28 13 29 28 25 4 3 6 10 8 13 22 27 27 19 6 4 3 3 4 1 1 2 3 10 11 14 3 1 12 10 12 13 13 8 8 8
17 17 18 21 18 21 20 29 32 30 29 27 27 29 27 27 36 32 8 6 29 24 3 3 4 4 5 18 20 19 18 10 7 4 2 2 3 4 1 2 4 9 9 10 14 6 8 9 8 9 6 6 7 7
16 16 17 16 17 20 26 26 29 29 27 27 30 31 31 30 32 26 7 9 28 22 5 2 4 4 3 7 7 13 11 11 6 6 3 3 3 3 3 7 8 8 4 8 11 11 10 9 7 6 5 3 4 7
14 13 13 10 13 13 13 20 18 15 29 31 33 32 31 35 23 24 10 15 29 8 6 4 2 2 1 3 5 4 6 2 6 3 3 5 2 3 4 9 8 9 6 6 4 4 4 7 8 7 5 6 5 7
8 10 5 5 10 3 6 11 15 22 31 36 38 12 7 23 26 25 17 9 8 4 3 2 3 2 4 6 3 5 3 2 2 3 4 3 2 11 10 10 8 7 6 6 2 5 7 6 5 3 5 6 5 4
8 8 5 0 5 15 22 26 27 34 38 23 5 6 41 37 19 6 5 4 5 3 6 6 7 1 1 1 2 3 2 2 3 3 2 2 2 4 9 9 6 6 6 5 3 0 1 2 1 2 4 5 4 1
6 9 3 1 1 20 22 22 26 25 6 12 21 28 18 6 4 4 3 4 3 5 3 2 4 5 2 1 1 4 3 3 3 6 3 2 3 11 9 6 5 6 6 5 5 4 2 0 1 2 2 2 3 4
11 9 7 1 2 15 13 18 20 25 36 31 7 5 3 5 4 3 5 2 3 3 2 2 3 4 3 1 1 1 3 2 4 3 2 2 10 10 7 4 5 5 5 5 5 5 4 3 3 4 6 7 6 8
12 14 15 17 22 27 20 24 32 23 8 4 4 5 3 3 2 1 1 2 1 3 6 8 4 2 2 2 1 2 1 2 3 2 2 2 11 8 5 4 3 4 5 5 6 6 6 6 7 8 9 8 8 11
16 20 23 21 15 11 14 26 14 7 5 5 5 4 3 5 8 7 5 4 4 3 5 4 5 3 2 3 3 2 4 3 3 2 2 10 9 8 7 6 5 4 3 4 4 6 8 8 10 12 10 9 9 10
17 20 20 15 11 12 15 11 10 8 6 6 8 5 9 7 6 6 8 5 3 4 3 3 2 3 3 2 4 2 2 1 1 2 13 11 9 7 7 7 8 7 6 7 7 8 9 9 11 13 12 11 10 9
15 15 17 14 11 6 6 8 8 9 7 5 5 13 12 8 6 7 8 7 2 1 2 3 4 2 2 3 3 3 1 2 11 14 11 8 9 10 9 8 8 9 11 12 12 13 13 12 11 11 12 11 9 9
21 20 18 15 13 13 13 10 7 7 7 9 5 9 16 13 9 12 9 9 4 4 4 3 4 5 3 2 1 2 9 15 14 13 11 10 8 7 7 9 11 11 11 11 11 11 11 11 11 11 10 8 6 6
17 15 13 13 10 7 6 6 7 6 6 7 9 10 12 12 17 12 10 14 17 14 8 5 4 3 2 5 8 15 16 16 15 12 9 7 7 9 11 9 8 9 9 9 7 8 7 6 6 6 5 4 4 5
16 13 10 8 6 6 6 6 6 8 4 5 9 13 8 7 10 15 19 19 17 8 8 4 3 4 6 16 13 12 11 13 18 16 12 10 10 9 6 5 7 6 7 8 7 5 5 6 4 2 1 0 0 1
17 15 16 16 20 11 7 5 6 8 10 5 12 5 10 20 16 14 14 13 13 6 5 7 17 18 15 15 13 9 16 16 11 11 12 11 9 7 6 9 8 8 5 6 5 4 3 3 3 3 3 3 2 1
12 7 6 8 7 6 7 7 11 11 5 7 6 5 5 4 5 10 12 16 7 9 6 13 13 13 14 14 14 14 15 13 11 11 10 9 10 7 6 7 9 6 5 5 4 3 3 3 2 0 0 0 2 2
7 4 6 5 6 6 4 5 4 4 4 6 6 4 3 4 5 6 7 7 6 10 12 15 15 13 15 13 13 12 8 7 10 9 8 7 6 5 4 5 4 4 4 3 3 4 4 3 1 1 1 2 4 4
4 5 5 4 6 2 5 3 4 4 5 3 3 3 2 4 6 6 3 3 10 11 13 14 12 12 10 9 11 11 9 5 8 8 6 2 2 2 2 4 4 3 2 1 2 1 3 4 3 2 2 4 4 3
3 7 5 5 4 5 4 3 3 3 3 2 3 2 1 4 3 3 2 6 9 6 7 14 9 5 10 11 9 8 7 5 4 4 4 3 3 4 3 2 1 2 2 3 1 3 2 5 5 4 5 4 3 3
6 8 4 1 1 4 3 3 3 4 4 3 1 4 3 3 4 3 3 15 15 12 11 11 11 11 8 6 6 4 6 3 3 1 2 4 3 5 7 6 3 2 4 5 4 2 2 2 4 5 5 5 5 5
4 2 5 5 3 6 5 7 7 5 4 4 3 2 3 4 2 2 15 17 17 14 12 9 8 7 5 5 3 3 5 4 4 2 1 1 1 4 4 5 6 6 4 5 5 4 2 2 2 4 4 3 7 5
5 4 4 7 8 9 4 3 3 2 2 4 5 4 4 6 4 9 12 18 14 12 10 8 6 4 4 5 5 5 5 4 3 2 2 1 3 4 4 2 4 5 5 5 5 5 4 3 3 3 2 2 2 3
5 4 6 5 7 7 7 2 1 2 2 3 4 2 3 4 11 18 21 16 12 10 11 11 9 7 5 3 2 2 3 5 5 4 3 3 3 4 5 5 4 4 3 1 2 5 7 6 5 5 5 4 4 4
3 4 6 5 4 3 8 4 4 6 9 13 12 24 24 22 18 14 14 13 13 12 11 10 9 8 7 6 2 2 2 4 6 7 7 5 6 7 6 5 5 5 4 4 2 1 2 4 6 7 6 4 4 5
5 5 6 6 4 11 17 19 20 20 23 18 15 23 17 14 14 14 12 8 7 7 7 9 8 5 4 2 1 1 2 3 3 3 4 4 5 6 6 6 6 6 7 8 8 5 4 4 5 7 6 6 7 8
4 4 7 4 4 18 5 5 8 10 8 6 5 6 12 6 6 14 16 15 13 11 9 8 7 7 6 3 3 3 3 3 3 3 4 4 5 4 4 4 4 4 5 5 5 5 5 5 6 8 9 9 9 10
16 20 19 9 5 6 4 5 5 5 4 3 3 4 3 5 6 12 17 17 16 11 7 6 5 4 4 3 3 2 2 2 2 3 3 4 4 3 3 1 1 1 1 2 3 3 2 1 2 3 4 5 5 6

GFSWCAN_850_spd_099.txt.gz
Wind_Speed
24 24 24 23 23 25 21 20 19 20 20 20 18 19 21 18 22 24 26 27 33 16 20 8 20 18 10 6 2 4 6 2 3 2 1 2 0 3 2 1 4 4 5 4 3 3 6 9 3 3 3 3 4 8
25 24 24 24 24 26 20 20 20 19 20 20 20 20 16 15 21 26 24 22 24 18 8 9 21 31 21 19 3 4 2 3 5 1 1 2 2 2 2 3 1 3 3 3 4 2 5 16 15 13 7 9 9 9
25 24 24 24 26 23 21 21 21 20 21 22 21 19 17 18 21 27 25 19 23 14 15 21 20 19 23 29 23 9 5 6 5 6 2 2 3 2 2 2 3 3 5 1 3 7 10 15 18 15 11 13 9 8
24 25 26 25 26 21 21 21 21 23 22 22 20 19 19 19 20 25 27 26 21 4 3 7 4 10 6 15 27 32 30 18 15 11 4 1 2 3 2 1 1 2 8 4 4 4 7 17 14 11 12 10 9 9
27 25 26 26 25 21 22 24 24 23 22 21 19 18 18 18 21 24 25 26 24 13 2 7 15 16 9 17 19 21 26 26 18 3 3 3 3 1 1 1 2 5 4 3 1 4 7 7 11 8 9 10 9 7
26 25 24 23 20 21 23 24 24 22 22 21 21 22 20 17 25 26 13 28 26 23 5 3 5 10 11 9 15 19 24 18 8 3 3 1 2 1 1 2 4 8 10 13 5 7 13 12 12 8 8 8 8 8
26 24 23 21 21 22 24 24 24 19 23 24 23 21 25 19 34 27 8 7 25 22 4 4 4 3 3 9 10 12 18 13 8 2 2 2 1 2 2 2 4 6 8 10 10 7 9 9 7 8 8 7 7 8
24 23 21 20 21 22 21 24 26 29 30 29 25 23 26 22 30 28 9 7 24 21 5 3 4 4 3 6 5 11 9 13 6 4 1 2 3 3 2 7 5 3 2 10 11 11 10 5 3 6 8 9 8 8
21 20 20 18 18 16 20 25 27 30 31 28 26 26 26 27 19 25 11 6 31 8 5 3 2 2 1 2 5 6 6 2 4 2 3 2 2 2 3 7 7 9 7 7 5 4 5 6 3 5 7 7 7 7
20 19 15 12 13 16 8 12 14 16 26 32 34 15 7 18 24 24 17 12 10 5 6 3 5 3 2 5 2 5 4 3 3 4 6 3 2 8 8 8 6 6 7 8 4 5 6 6 6 5 5 6 7 5
16 13 11 11 10 7 9 13 15 32 43 32 9 6 32 38 21 6 6 5 6 2 6 7 11 2 3 2 3 4 3 3 2 2 2 2 3 4 7 7 5 6 7 6 4 3 4 4 2 4 5 6 5 4
11 9 10 9 10 18 17 14 26 22 14 9 23 33 22 6 5 4 3 4 3 5 4 3 4 5 3 4 2 4 3 2 4 6 3 2 3 11 8 6 5 5 6 5 4 4 2 1 1 3 3 4 4 3
8 12 9 8 16 18 19 18 12 35 43 35 10 5 3 5 4 5 6 3 3 0 4 5 2 3 2 1 1 1 3 3 4 3 2 1 10 8 5 4 4 4 5 4 4 4 4 4 3 4 5 6 5 5
15 11 7 12 21 24 29 28 32 29 6 5 4 6 3 2 1 2 1 2 2 2 7 10 4 2 2 2 2 3 2 1 3 3 4 1 8 6 3 3 3 4 4 5 6 6 5 5 6 7 7 8 6 7
17 20 27 24 24 31 27 29 23 5 5 6 6 4 3 3 6 6 4 4 3 4 5 6 4 2 2 3 3 3 4 3 2 2 2 8 7 4 3 3 3 3 4 6 7 7 8 7 8 9 9 8 7 7
22 24 23 17 18 31 17 11 7 6 6 6 8 5 4 5 5 6 9 6 4 4 5 5 2 4 3 2 5 3 1 1 2 1 11 9 6 4 4 4 5 6 6 7 7 8 9 9 10 11 10 9 8 7
17 16 20 21 18 13 11 9 5 7 6 5 5 12 10 7 6 6 6 5 3 3 2 3 4 1 1 3 3 3 2 2 10 12 9 7 7 7 7 7 8 9 9 9 10 9 9 9 9 8 9 9 8 8
16 19 16 18 13 16 17 9 7 7 7 9 6 11 17 10 7 12 8 6 3 3 4 3 3 4 3 3 1 1 6 13 11 10 10 8 7 7 6 8 8 8 10 11 10 10 10 8 8 8 7 6 5 5
19 17 14 12 10 5 5 7 7 6 7 8 10 12 12 11 16 13 12 15 15 13 8 5 5 3 2 3 5 13 15 13 14 11 9 8 7 9 10 10 9 8 8 8 8 8 7 6 6 6 6 5 5 5
17 14 12 10 5 6 6 6 6 7 4 4 7 11 7 6 6 15 17 15 15 8 7 4 2 2 2 10 9 10 10 12 14 14 11 9 7 5 4 3 4 4 4 4 3 2 1 1 1 2 3 4 5 5
16 17 14 12 14 10 7 5 6 7 8 7 12 5 8 17 11 10 11 10 10 6 4 6 14 15 12 9 10 11 13 13 9 7 11 10 7 5 5 6 5 4 3 3 2 1 2 2 2 3 4 4 4 3
15 8 9 9 7 6 7 7 10 10 6 8 6 5 5 4 5 8 5 13 6 7 6 17 14 13 12 13 11 13 12 7 8 8 7 7 7 4 4 6 5 3 3 3 3 3 4 4 4 3 2 2 1 0
8 4 6 5 6 5 5 4 4 4 3 5 4 3 3 4 4 5 6 6 5 9 13 14 13 10 12 12 11 11 8 6 8 7 7 5 4 3 2 4 3 3 4 4 4 4 5 5 2 3 2 1 1 1
4 5 5 4 6 3 6 3 4 5 5 3 3 2 2 4 4 5 3 3 9 13 13 13 11 12 11 9 9 9 8 5 6 6 4 1 2 3 3 3 3 3 3 2 2 2 2 3 2 1 0 2 2 2
3 8 5 4 4 5 4 3 3 3 3 2 3 1 1 4 3 3 3 9 16 15 13 11 7 4 8 9 8 6 5 3 1 1 2 2 1 1 1 0 1 2 2 2 3 5 3 2 3 4 4 3 3 2
6 8 4 0 1 4 3 3 3 4 3 3 1 4 3 3 4 2 5 18 18 14 16 16 10 9 7 6 6 4 3 3 2 2 2 4 4 5 7 7 5 3 4 5 5 3 3 2 3 4 5 5 5 5
4 3 5 5 3 6 5 7 5 5 4 4 3 2 3 3 3 3 14 19 19 15 11 10 8 5 4 6 6 5 5 6 5 4 3 2 3 5 7 7 8 8 7 6 4 3 3 3 3 4 4 4 6 5
4 4 3 6 7 8 4 3 3 2 2 4 5 3 6 7 4 10 13 20 17 15 13 12 9 6 5 5 4 3 4 3 3 2 1 1 2 2 2 3 5 6 6 6 5 5 5 3 2 3 4 2 3 4
5 3 4 5 6 7 7 2 1 2 1 3 4 3 4 4 10 14 22 21 18 15 15 15 13 9 7 6 5 4 3 3 3 3 3 5 5 4 6 5 3 4 4 4 3 4 6 6 6 5 4 4 5 5
3 4 6 4 4 3 5 3 3 4 6 9 9 11 13 12 16 20 20 17 15 12 10 9 9 8 6 5 3 3 2 2 3 4 6 6 5 6 6 5 4 3 4 4 4 3 2 3 5 7 7 6 5 5
4 4 5 5 4 6 15 18 16 15 14 15 21 21 16 12 14 13 11 11 11 13 14 14 12 10 7 4 2 2 1 2 3 3 4 4 4 4 4 5 5 5 4 5 5 5 4 5 6 7 7 7 8 8
3 3 6 4 3 16 4 4 6 9 7 6 5 6 10 6 7 15 17 14 12 11 9 8 8 7 7 5 3 2 3 3 2 2 3 4 4 4 4 4 4 4 4 5 5 5 5 5 4 5 6 7 8 9
8 11 11 8 6 7 6 5 4 5 4 3 4 7 2 5 5 14 19 20 15 8 8 9 9 6 5 4 3 3 3 3 3 3 4 5 4 4 3 3 3 3 3 2 1 2 2 2 2 2 3 5 6 7

GFSWCAN_850_spd_102.txt.gz
Wind_Speed
26 26 23 20 22 22 21 21 21 22 19 19 20 19 14 16 17 23 25 22 24 9 18 9 14 17 7 3 1 8 8 2 3 2 1 2 1 1 2 1 3 3 3 3 3 3 6 11 5 1 2 12 13 13
30 27 25 22 19 23 22 23 23 21 20 22 20 17 16 15 15 18 23 21 17 20 7 7 15 26 24 22 19 7 3 2 1 3 1 2 2 3 2 1 2 1 2 2 4 2 6 11 9 11 10 14 12 13
29 29 28 25 21 22 22 24 23 20 19 20 18 18 18 16 15 18 25 21 19 13 16 22 21 18 25 28 26 9 7 6 2 1 4 2 4 2 1 1 3 3 3 3 4 4 9 10 15 16 17 18 15 14
27 28 27 25 22 23 24 24 23 20 21 20 20 19 18 15 16 17 27 23 20 4 3 9 8 11 6 11 23 31 30 11 9 5 3 3 3 2 2 2 2 4 6 5 4 5 6 13 11 11 14 13 15 15
29 27 27 25 23 26 25 23 22 21 21 21 21 19 17 19 17 18 26 25 22 14 2 6 14 17 17 18 18 18 29 30 17 4 3 3 4 1 2 1 2 4 4 3 2 7 6 6 9 10 12 14 14 12
25 28 28 26 21 24 25 22 23 23 22 21 19 19 18 17 11 27 9 21 21 20 4 3 5 7 7 9 11 21 19 19 13 6 4 4 4 0 1 1 4 7 7 12 4 10 16 11 12 12 12 12 12 11
28 28 26 25 23 24 22 23 24 22 19 19 19 19 20 18 17 27 9 5 17 21 2 3 5 2 2 7 7 11 12 9 9 4 4 3 3 2 2 1 4 7 8 9 10 7 8 12 7 8 10 11 10 10
26 26 26 24 24 23 23 23 23 22 21 19 19 19 16 13 21 26 10 6 23 20 5 2 4 4 5 5 5 8 8 10 7 4 4 3 2 1 1 4 3 4 2 8 10 11 10 9 6 7 7 8 9 9
25 26 25 25 24 24 26 24 25 24 25 23 23 20 16 21 15 20 15 6 21 7 5 3 2 3 3 6 5 8 8 3 4 2 3 1 1 1 1 7 6 7 5 6 4 4 5 5 6 6 7 8 8 8
25 25 25 22 25 23 22 22 24 27 27 27 24 16 9 14 20 26 15 11 8 6 6 3 5 3 3 3 4 6 5 3 3 4 8 2 1 7 7 7 6 5 6 7 3 3 6 6 6 5 7 7 6 5
22 21 22 23 19 16 18 9 15 19 25 28 15 6 25 39 20 10 6 5 6 3 6 6 16 4 5 2 2 7 3 3 3 2 4 2 3 4 7 6 5 5 6 6 4 3 3 4 3 3 5 5 6 5
20 22 18 15 13 14 10 12 13 24 19 18 23 36 23 7 5 4 3 4 5 5 6 4 6 9 5 4 3 4 3 2 3 4 3 2 3 11 9 6 4 5 5 5 4 3 1 3 3 3 3 5 6 6
17 16 12 12 12 10 17 12 19 41 42 46 20 5 5 1 4 6 7 4 3 4 7 6 2 5 3 3 4 1 3 2 4 3 2 1 11 8 6 4 5 5 6 6 7 7 7 8 7 8 8 10 9 9
10 14 15 12 16 15 16 31 37 31 16 7 3 5 2 2 1 3 1 2 2 4 8 10 4 2 1 1 2 2 2 1 2 1 2 0 8 6 4 3 3 5 6 6 7 7 8 8 9 10 11 11 9 9
12 12 16 26 28 24 23 20 11 10 7 6 5 4 2 2 4 2 3 3 4 5 6 7 5 2 3 3 3 2 4 3 2 2 2 6 6 5 4 4 4 5 6 7 8 9 10 9 9 11 12 10 10 10
27 30 26 34 27 30 27 16 9 9 7 6 8 5 4 4 4 6 6 5 4 6 7 5 3 4 4 2 4 2 1 1 2 0 8 7 6 5 5 5 6 7 7 8 9 10 12 11 11 12 11 10 9 9
20 18 22 31 26 24 22 11 6 9 6 5 5 11 9 8 6 5 4 4 4 3 2 3 4 1 1 3 2 3 2 3 7 10 7 6 6 7 6 8 8 8 8 9 10 11 11 11 11 10 11 11 10 9
26 27 35 28 22 18 14 8 7 7 8 9 6 6 15 9 6 10 6 5 3 4 4 3 4 4 2 3 2 2 5 12 10 9 8 7 6 7 6 7 9 9 10 11 10 10 10 10 9 9 9 8 7 7
25 24 23 19 7 5 5 6 7 6 7 8 11 11 11 10 14 10 10 13 14 12 9 5 5 2 1 1 4 13 16 13 14 12 9 7 7 9 10 9 9 9 9 10 9 8 9 8 8 8 7 7 7 7
20 19 19 9 5 6 6 6 6 7 4 4 6 7 6 6 7 14 15 14 12 7 7 4 2 2 3 9 9 11 10 11 13 13 11 9 7 5 5 5 5 5 5 5 5 4 4 3 3 4 5 6 7 7
20 19 14 11 14 11 7 5 6 6 8 6 10 5 7 10 6 8 9 9 9 5 4 6 11 12 12 12 11 11 12 10 8 7 12 11 8 6 5 5 4 4 2 2 2 2 2 3 3 4 4 5 4 3
15 13 13 9 7 6 7 6 10 10 6 9 8 4 5 3 4 5 5 12 5 5 7 16 14 12 12 13 13 13 11 6 6 6 7 6 5 3 2 3 2 0 1 2 3 3 4 4 5 3 2 2 1 0
9 5 6 5 6 5 5 4 4 4 3 5 4 3 3 3 3 3 6 5 5 12 14 14 12 11 13 13 12 10 7 7 6 6 6 4 3 2 1 2 2 2 2 3 4 5 5 5 3 4 3 1 1 1
5 4 4 4 5 3 6 3 4 5 5 3 2 2 1 4 4 5 3 3 10 13 13 13 13 14 13 11 11 10 8 5 6 6 4 2 1 2 2 2 2 2 3 3 3 3 3 3 3 2 1 1 2 2
3 7 4 4 4 4 4 3 3 4 3 1 3 1 1 3 3 2 3 8 19 16 16 14 11 8 10 12 11 10 9 5 2 1 2 2 1 1 1 1 1 2 2 3 3 5 4 3 3 4 3 3 2 2
6 9 4 0 2 4 3 3 2 4 3 2 1 3 2 3 3 2 4 23 24 23 21 16 12 12 10 8 7 6 4 4 2 0 0 2 3 4 4 5 5 5 5 6 6 4 4 3 3 4 5 5 5 5
4 3 5 6 4 6 5 7 5 4 3 4 3 2 3 3 3 3 12 22 22 18 14 11 8 5 5 7 7 4 4 4 4 3 2 2 2 3 5 7 8 7 8 8 7 6 4 3 4 2 2 3 5 5
4 5 4 5 7 7 4 3 2 2 2 3 6 2 6 7 4 9 10 22 20 18 17 15 12 8 6 5 5 5 5 3 2 1 0 1 2 2 3 4 5 5 5 5 5 6 5 4 2 1 2 2 1 3
5 4 3 5 6 7 6 2 1 2 2 3 4 2 3 3 8 12 22 23 20 18 17 16 15 11 8 7 6 5 3 2 2 2 1 2 3 3 4 5 3 2 1 2 2 2 4 6 6 6 5 5 5 6
3 4 5 4 4 3 4 3 2 5 5 8 7 8 9 9 12 20 21 19 17 14 11 10 9 8 7 5 4 3 2 1 2 2 3 3 4 5 5 4 3 3 3 2 2 2 2 2 3 5 5 6 6 6
3 3 5 5 3 5 13 15 12 9 6 9 14 15 11 11 17 18 17 15 14 13 13 14 13 11 8 6 5 4 2 1 2 2 3 3 3 4 4 4 3 3 3 3 4 3 3 4 5 5 5 5 6 7
3 4 6 3 3 13 2 2 4 5 5 6 5 4 8 6 8 17 18 16 15 14 13 11 9 9 10 7 4 3 2 2 2 2 2 3 4 4 4 4 4 3 2 2 2 2 3 3 3 3 5 6 7 8
4 5 7 7 6 6 7 4 3 4 3 3 3 6 1 5 5 15 21 20 14 12 12 13 13 11 10 8 6 4 2 2 1 2 3 3 4 4 4 3 3 3 3 2 2 2 2 3 3 3 4 4 5 6

GFSWCAN_850_spd_105.txt.gz
Wind_Speed
25 25 27 25 24 21 17 18 19 18 18 21 16 16 18 14 14 14 24 22 20 8 15 12 15 14 12 6 3 6 7 3 3 2 1 1 2 1 3 2 1 1 2 2 3 3 6 12 2 1 6 10 9 12
24 26 24 26 24 21 15 16 20 19 20 22 19 17 17 17 13 15 20 26 21 16 8 7 13 19 22 21 11 3 2 4 1 3 3 4 2 3 3 2 3 1 1 3 2 1 4 10 13 12 9 10 8 11
21 23 25 23 24 22 18 16 21 19 19 21 20 19 16 16 15 13 20 19 22 14 13 21 22 15 19 25 17 12 6 6 3 1 2 3 3 1 2 1 2 1 4 2 3 5 7 13 16 17 15 16 11 11
25 23 24 24 25 25 20 16 20 21 19 21 19 17 16 15 14 14 17 17 21 4 3 7 10 12 6 7 15 24 23 5 3 5 3 2 3 2 2 3 2 3 6 5 2 4 8 18 14 13 13 12 11 10
26 26 24 25 25 24 20 19 20 23 20 20 20 19 17 16 15 15 18 20 19 13 2 6 14 12 16 18 14 12 21 24 16 5 3 3 4 2 2 2 2 4 3 3 2 7 8 9 10 10 13 11 10 9
24 27 26 26 26 26 22 19 22 22 21 20 22 21 18 16 14 15 8 24 21 17 3 3 5 4 3 4 11 16 15 14 10 6 5 5 6 3 1 1 4 6 6 7 2 11 17 14 12 10 11 11 12 12
24 25 27 26 27 26 22 18 22 20 24 22 19 16 18 17 17 17 5 3 23 20 3 3 4 1 0 7 7 7 10 6 7 4 5 3 3 1 1 2 7 6 7 8 8 5 10 6 6 7 9 12 11 11
24 24 25 24 26 24 21 19 19 21 21 21 15 15 19 15 14 18 17 6 24 20 5 2 3 3 7 5 4 8 9 10 9 4 3 3 2 0 2 6 4 3 2 8 10 11 10 8 6 8 8 7 9 10
24 25 24 26 26 24 22 21 23 22 24 18 15 15 17 12 13 19 11 16 24 6 5 4 2 3 5 7 6 7 7 3 6 3 3 2 1 2 3 7 7 9 6 6 4 6 5 6 6 6 6 8 9 9
26 26 24 25 25 25 23 23 26 26 21 18 12 9 6 10 12 23 18 17 8 5 6 4 5 2 5 2 6 5 5 3 4 4 6 2 2 8 7 9 7 6 6 5 6 3 5 5 5 7 8 7 6 5
24 24 25 26 25 24 23 26 27 23 20 17 13 8 14 36 17 10 6 5 6 3 7 7 15 3 5 3 2 7 3 3 4 4 5 3 1 4 7 8 6 6 6 6 4 3 4 4 3 3 5 5 4 4
23 24 25 24 22 25 24 22 22 20 23 21 12 23 30 8 5 4 4 5 5 5 7 5 7 11 5 6 2 4 3 3 3 5 3 3 2 8 8 6 5 4 4 5 4 3 3 4 3 2 2 4 5 6
23 22 20 23 23 21 18 16 17 20 27 31 11 9 6 2 4 8 8 4 4 5 8 7 3 7 5 5 4 2 3 2 6 2 2 2 9 6 5 4 4 4 4 5 5 6 6 6 6 7 7 8 8 9
20 20 21 20 17 15 12 14 23 40 21 7 7 5 1 3 2 2 2 4 4 5 12 11 4 2 2 2 1 1 2 1 2 2 2 3 8 6 4 2 2 4 5 6 7 8 8 8 9 10 10 10 8 10
17 16 14 14 11 24 34 28 18 11 6 6 4 3 1 3 3 3 7 6 5 8 11 7 5 3 2 1 2 1 2 2 2 2 2 6 7 5 4 4 5 6 7 8 9 9 10 10 10 12 12 11 10 10
10 16 13 27 30 30 20 15 11 7 6 5 8 4 4 4 2 5 6 6 6 8 7 4 2 3 3 1 3 2 0 1 2 2 7 8 7 6 6 7 8 9 9 11 11 12 12 11 11 11 11 10 10 10
27 24 27 33 27 23 12 9 5 8 7 5 4 12 10 10 6 4 4 4 5 4 2 2 3 1 2 3 2 2 1 1 6 9 9 8 8 9 8 9 10 10 12 12 12 12 12 12 12 10 11 11 10 10
37 36 31 26 19 18 9 9 7 8 8 10 6 5 13 9 7 8 5 5 3 4 3 3 4 3 2 3 2 3 4 12 12 12 11 10 10 10 9 11 12 12 12 12 11 11 11 10 9 10 10 10 9 8
39 36 28 23 19 10 6 7 7 6 7 8 9 10 11 10 13 9 10 12 12 12 10 5 5 2 2 2 5 13 16 13 14 13 12 11 11 11 11 11 11 12 11 11 10 9 8 8 8 8 8 8 7 7
35 27 18 14 11 6 6 6 6 8 4 4 7 7 7 7 8 12 12 11 10 6 7 4 1 3 5 11 13 15 12 13 14 15 13 12 10 9 9 8 8 7 7 6 5 4 4 4 4 5 5 6 6 5
24 21 16 17 17 11 8 5 7 6 8 6 9 4 6 7 6 7 8 8 8 5 3 5 10 13 16 16 14 15 14 11 9 9 13 11 9 7 7 7 6 5 4 3 3 3 3 3 4 4 4 4 4 3
16 11 9 10 8 7 8 8 10 9 6 9 7 4 5 3 4 5 4 10 5 3 6 15 17 18 18 18 18 15 13 11 11 10 9 7 6 5 5 5 3 1 1 1 2 3 3 4 5 3 3 2 1 1
11 8 7 6 6 6 5 3 4 4 4 5 5 3 3 3 3 3 5 4 5 13 17 17 16 16 17 18 16 11 10 7 8 8 8 6 5 4 4 3 3 2 1 2 3 4 4 4 2 2 2 1 2 2
6 5 5 4 5 3 5 3 4 5 5 2 2 3 2 4 5 4 3 3 11 15 15 16 16 19 17 14 12 12 9 6 7 7 6 4 2 3 3 3 2 2 2 2 2 3 3 3 2 1 1 2 2 3
4 7 5 5 4 4 4 3 3 3 3 1 3 1 2 4 2 2 4 8 20 19 18 17 14 13 16 16 14 12 11 8 5 4 5 5 4 4 3 2 1 1 1 1 2 4 3 3 3 3 3 2 2 1
6 8 4 1 2 4 3 3 3 4 3 2 2 4 3 2 2 3 3 21 26 26 24 21 19 17 15 12 13 12 9 7 5 3 3 2 3 3 3 4 4 4 4 4 5 4 3 2 2 3 4 5 5 4
4 3 5 5 4 6 5 6 5 4 3 4 4 2 3 3 3 2 11 22 25 25 20 16 13 11 13 14 12 9 7 5 4 2 2 1 1 2 3 4 6 5 6 6 5 5 5 3 2 1 2 3 4 5
5 5 4 4 6 6 4 3 2 2 2 3 6 2 6 5 4 8 10 23 25 25 22 18 14 10 10 10 8 7 7 6 4 4 3 2 1 1 1 3 3 4 4 3 3 4 4 4 3 2 2 1 1 1
5 4 2 5 5 6 6 2 1 1 1 3 3 2 3 3 9 13 24 25 24 23 22 20 16 12 10 10 10 9 7 5 4 3 2 1 1 2 3 3 2 2 2 1 1 1 2 4 4 3 3 3 3 3
4 5 5 4 4 2 3 2 3 5 5 7 7 7 6 8 11 22 27 25 23 20 17 14 12 11 10 10 9 8 6 5 3 2 2 2 1 2 2 3 3 2 2 1 1 1 1 1 2 3 4 4 4 4
3 3 5 4 3 4 11 12 10 8 5 6 8 10 10 9 16 23 24 21 19 18 18 18 16 14 12 10 9 8 6 4 3 2 1 1 1 2 2 2 2 2 2 1 1 2 2 2 3 3 3 3 4 4
3 3 5 3 2 11 2 2 3 3 3 3 4 5 8 6 8 19 22 22 20 18 16 14 14 14 13 11 8 7 5 3 2 1 1 0 1 1 1 1 1 1 1 1 2 2 2 2 1 1 1 2 3 4
3 4 5 5 4 4 6 4 2 3 3 3 3 7 3 7 5 16 22 22 18 15 16 16 16 15 13 11 9 6 4 3 2 2 1 1 1 0 0 1 1 1 1 1 2 2 2 2 2 2 3 3 4 4

GFSWCAN_850_spd_108.txt.gz
Wind_Speed
20 19 21 22 23 21 20 17 15 14 19 18 16 20 15 19 16 14 24 21 19 9 15 11 12 12 10 8 6 9 7 1 3 3 3 4 3 3 3 4 3 5 4 1 3 3 3 19 2 5 5 10 10 12
20 20 22 21 23 21 22 18 14 15 18 17 15 23 16 18 18 14 12 15 21 18 8 9 12 21 19 14 11 5 5 7 3 3 3 4 3 4 5 2 3 1 5 4 5 4 7 11 11 11 8 9 10 11
19 20 21 22 20 19 24 19 13 14 18 17 16 24 19 17 17 16 13 13 21 12 17 18 18 16 22 22 15 7 6 5 4 2 3 3 4 1 3 3 4 2 6 3 4 7 8 11 13 13 12 12 10 10
20 21 18 19 19 18 19 20 15 10 18 18 16 22 21 16 16 15 15 14 12 4 4 7 10 13 9 11 17 21 15 5 3 3 3 3 4 3 4 5 6 4 6 5 2 5 6 12 11 9 10 10 11 12
19 21 22 20 18 20 22 21 17 13 17 19 16 21 19 17 16 14 15 17 15 14 3 5 11 13 12 11 11 12 15 15 11 3 3 4 6 5 4 4 2 4 4 4 3 8 6 6 7 8 10 12 11 8
21 21 22 23 21 20 22 23 19 17 15 21 17 23 19 16 14 12 11 21 16 18 2 3 4 2 3 8 11 12 10 9 7 5 4 5 5 3 3 2 5 6 5 7 3 10 14 10 9 9 9 9 9 7
23 22 21 21 23 20 22 22 19 18 17 19 21 20 18 17 17 17 4 3 18 22 3 4 3 3 4 7 7 7 10 6 7 5 6 6 7 7 2 3 6 6 6 7 6 5 7 4 5 6 7 7 7 7
24 23 22 21 23 21 22 23 19 15 15 18 20 17 15 18 19 19 20 5 11 15 4 3 3 3 9 5 6 7 6 8 9 5 4 3 3 3 2 6 5 3 4 7 9 7 10 7 5 6 4 4 5 5
25 25 23 20 22 21 25 22 17 13 16 19 18 18 13 19 14 18 13 9 16 7 4 4 3 1 6 5 4 8 8 4 6 4 4 3 3 3 4 5 5 6 4 3 3 6 6 6 5 5 4 4 3 4
26 25 23 23 22 22 23 20 16 15 20 17 18 9 7 14 12 16 15 13 10 5 6 4 6 3 8 7 6 5 5 3 3 5 4 4 2 7 6 6 5 5 6 7 3 2 4 4 4 4 5 5 4 3
26 26 24 26 22 23 24 21 15 21 15 17 8 7 15 28 17 7 6 6 7 4 7 7 13 5 7 3 3 6 2 3 3 4 5 4 3 4 6 6 6 6 6 7 6 4 3 3 3 3 4 5 5 5
28 27 25 25 23 25 23 21 21 27 16 12 7 14 26 8 6 5 6 6 5 5 8 5 6 11 4 4 3 4 3 5 4 8 3 3 4 8 6 6 6 6 6 7 6 5 5 6 5 5 5 5 5 6
25 25 24 24 24 24 22 21 26 26 23 11 9 8 7 5 6 7 10 4 5 6 9 9 5 7 4 5 3 2 5 3 10 3 1 3 9 6 5 5 6 6 6 6 7 7 7 6 6 6 7 8 8 8
25 23 25 24 22 22 25 28 25 22 17 8 7 5 5 5 5 3 5 6 4 7 14 14 6 3 3 4 0 4 2 3 4 4 2 4 7 5 5 5 4 5 5 6 7 7 8 8 8 8 9 9 7 8
22 22 21 23 26 26 19 22 24 30 10 3 4 5 4 2 3 5 7 7 6 14 16 7 5 3 1 2 0 2 3 2 2 3 3 8 6 5 5 5 5 6 7 7 8 9 9 9 9 9 9 9 9 8
20 20 24 22 21 20 25 31 39 14 5 3 4 4 6 7 5 5 7 7 8 14 10 4 3 3 2 0 2 0 2 1 3 3 8 7 7 5 5 5 6 7 8 9 10 10 11 10 9 9 9 9 8 8
18 11 18 32 33 39 26 20 9 6 4 4 3 7 5 9 7 4 4 4 9 4 2 2 3 2 3 2 3 2 2 4 11 10 7 7 7 7 7 8 8 9 10 10 10 10 10 10 10 9 9 9 8 8
24 36 37 36 31 26 14 6 7 6 6 6 4 6 9 7 7 6 4 6 4 4 2 2 4 2 2 3 3 5 10 12 11 10 9 9 9 9 8 10 11 10 10 10 10 10 9 8 7 6 7 6 6 5
38 35 31 26 18 6 5 6 6 6 7 8 8 7 8 8 9 7 7 9 10 9 8 3 3 2 2 3 11 15 15 13 14 11 10 10 11 12 13 12 12 10 10 8 7 5 5 6 5 4 4 4 3 3
29 22 18 14 11 5 6 6 5 7 5 5 6 7 7 6 5 7 8 8 7 4 5 3 3 4 6 11 13 15 14 14 15 15 12 10 12 11 9 8 7 7 6 5 4 4 2 2 2 2 2 2 2 1
23 21 17 13 12 10 7 5 7 7 8 6 8 5 6 6 5 5 5 5 6 4 3 5 9 10 14 16 13 14 15 12 11 10 13 12 10 8 8 7 6 5 4 3 2 1 2 1 1 1 1 1 1 1
21 17 14 10 7 6 7 8 9 8 5 9 6 5 5 3 3 3 3 6 4 3 5 11 14 17 18 18 17 14 15 13 13 13 13 12 9 8 7 6 5 3 3 2 1 1 1 1 2 2 1 1 1 2
11 7 6 5 6 5 5 4 4 4 4 7 5 4 3 3 3 3 4 4 3 7 12 15 19 18 21 21 17 16 14 12 11 10 9 8 7 6 5 4 3 3 3 2 1 2 2 3 3 2 2 2 2 2
5 4 5 4 5 4 6 3 4 5 6 3 3 4 3 4 4 2 3 4 10 13 15 20 19 19 17 15 12 13 12 9 10 10 8 7 6 5 5 4 4 3 3 2 2 1 2 3 3 2 3 3 3 3
3 7 4 5 4 4 4 3 3 3 3 3 4 3 4 5 2 3 4 9 18 16 16 16 15 14 15 13 13 13 12 10 8 8 7 7 6 5 4 4 4 3 3 2 2 3 4 4 4 4 4 4 4 4
6 6 4 2 2 2 3 4 3 4 4 3 2 5 4 3 3 3 5 20 23 22 21 19 18 16 14 13 14 13 12 10 8 7 7 7 6 4 4 4 3 4 5 6 5 4 5 4 4 4 5 6 6 5
4 3 4 4 3 5 4 5 4 2 3 4 5 5 4 4 3 4 10 18 20 22 21 19 18 15 17 18 16 14 12 10 8 7 5 5 5 5 5 4 4 6 6 6 6 5 4 5 4 4 4 5 6 5
4 4 2 3 5 5 3 3 2 2 2 3 7 4 5 2 3 8 9 23 25 28 26 23 20 17 17 16 14 12 11 10 8 6 5 4 3 3 3 3 4 5 4 4 4 5 5 5 4 4 3 3 4 4
5 3 2 4 4 5 4 2 2 2 2 3 2 2 2 1 8 10 24 28 31 31 29 27 23 20 18 16 14 13 11 10 9 8 6 5 4 4 3 2 2 2 2 2 2 3 5 6 6 6 5 5 4 4
3 4 3 3 2 3 3 2 2 4 4 5 4 4 4 5 10 22 27 31 31 29 25 23 20 19 18 17 16 15 13 11 9 8 6 6 5 4 3 3 2 2 2 2 2 2 3 3 4 4 5 5 5 5
2 2 4 4 3 3 5 9 9 7 4 3 5 5 6 6 12 22 26 28 28 26 24 23 21 18 17 17 16 14 13 11 9 7 6 5 5 4 4 3 3 3 3 3 3 3 3 3 4 5 5 5 5 6
4 3 2 2 3 6 3 2 2 2 2 2 2 4 6 5 7 18 24 24 25 25 24 22 20 19 18 16 15 13 11 9 8 7 7 6 5 4 3 3 3 3 3 3 3 2 2 2 2 3 3 4 4 5
2 3 3 4 4 4 3 2 1 2 2 2 2 5 3 5 5 15 22 25 24 21 19 19 18 17 16 15 14 12 10 9 8 7 6 5 4 3 3 3 3 3 2 2 2 2 2 1 1 2 2 3 4 4

GFSWCAN_850_spd_111.txt.gz
Wind_Speed
25 22 23 23 22 21 19 17 13 11 13 15 16 16 19 16 17 14 13 14 15 7 17 16 13 13 14 10 6 11 9 1 5 4 4 5 5 5 5 4 2 4 4 2 4 5 2 22 5 5 1 7 9 12
20 25 21 21 20 23 23 18 17 14 11 16 17 15 21 16 19 16 13 11 13 14 13 12 13 17 16 17 10 5 9 10 5 4 4 4 5 5 9 4 5 2 5 3 6 4 7 12 11 11 10 8 10 10
20 18 20 20 20 20 20 19 19 14 11 16 17 16 21 19 16 20 14 12 11 14 22 20 17 10 15 17 13 10 5 5 6 7 7 3 4 3 5 4 8 3 7 3 6 6 6 11 10 10 10 10 10 10
18 21 20 19 19 20 19 23 20 15 12 15 17 16 17 22 15 19 15 14 10 3 4 7 4 11 9 11 17 18 17 12 10 8 5 3 3 8 7 9 8 5 9 6 2 4 2 8 10 9 9 9 10 11
18 21 19 19 18 17 19 17 22 16 12 12 17 15 15 23 15 18 16 16 15 9 3 7 12 13 10 7 11 13 12 12 9 5 3 4 7 6 5 5 3 6 4 4 3 9 4 7 7 8 9 11 11 9
18 18 20 20 19 17 18 19 20 18 13 10 15 15 14 21 15 12 6 17 21 17 4 3 1 3 4 10 11 12 11 8 4 4 4 5 8 2 3 2 3 6 5 5 2 7 9 6 7 8 9 9 10 10
17 19 19 19 19 19 17 17 20 20 16 14 11 15 19 20 19 12 5 2 8 18 3 4 3 4 6 6 5 5 7 4 6 5 7 12 11 8 3 2 6 5 6 7 3 1 3 5 4 6 8 8 11 10
20 20 21 18 18 20 18 15 18 18 15 13 13 13 20 18 17 20 23 12 15 16 5 3 4 4 10 6 6 9 6 7 7 6 6 4 5 4 1 7 5 3 3 5 6 6 5 3 4 6 6 6 6 8
24 21 20 21 19 19 21 15 20 18 14 10 11 13 15 19 15 21 17 16 16 8 4 3 3 1 8 6 3 7 8 5 8 5 8 5 4 3 5 7 5 4 2 2 2 4 4 5 5 7 7 7 5 6
27 24 20 21 19 20 21 18 20 16 11 14 16 10 7 11 13 14 14 17 12 7 5 5 11 4 7 5 4 6 6 4 3 6 6 4 2 7 7 8 5 4 5 5 4 1 3 4 5 5 6 5 5 4
29 26 22 22 21 20 21 21 22 14 17 18 10 7 6 21 21 7 6 6 7 5 7 10 16 8 7 4 3 6 1 3 3 4 4 4 3 5 6 6 5 5 6 6 5 4 4 4 4 2 3 5 5 5
30 27 24 25 23 21 22 23 23 18 15 13 8 9 18 8 7 6 6 6 6 5 10 6 9 12 4 3 3 4 3 3 5 8 3 2 4 9 7 6 5 5 6 6 6 5 5 5 5 4 4 4 5 5
30 26 26 24 24 23 23 24 21 15 15 11 6 7 7 6 6 6 9 4 6 6 10 11 5 9 4 5 3 2 4 5 3 3 1 4 10 7 6 5 5 6 6 6 6 7 8 7 7 7 7 7 6 6
31 28 27 25 25 23 25 21 17 20 17 5 5 5 5 5 6 4 5 8 5 8 16 17 11 4 4 5 2 4 1 3 3 4 3 5 11 7 5 4 3 5 7 7 7 7 7 7 8 8 9 7 6 7
26 27 26 26 25 25 22 19 23 22 9 4 5 4 5 3 3 3 5 8 6 14 19 9 4 4 2 2 2 2 3 2 3 4 3 10 8 7 5 5 6 6 7 7 7 8 8 9 9 9 8 7 8 7
27 26 25 27 26 22 24 24 23 20 5 3 4 2 2 5 4 5 7 8 15 14 11 5 3 3 3 2 4 1 4 3 3 4 9 9 8 7 7 7 8 8 8 8 8 8 8 8 9 9 8 8 8 7
27 18 28 27 27 25 25 27 16 7 6 4 3 2 2 5 7 6 6 5 15 10 2 3 5 2 3 2 3 2 2 4 11 11 9 9 8 8 8 9 9 9 9 9 8 8 8 8 10 7 7 7 8 8
28 27 25 31 32 35 19 7 7 5 3 2 4 5 4 6 9 6 4 8 5 4 3 2 3 3 2 2 3 4 12 12 11 10 10 10 9 9 9 9 9 9 8 8 7 7 7 9 6 5 6 6 9 8
21 24 31 40 39 18 6 4 3 4 4 6 7 6 6 8 8 7 7 6 6 6 7 3 2 1 2 2 11 14 14 13 13 12 11 10 10 11 10 10 9 8 7 7 6 4 3 4 4 3 3 4 3 2
38 44 46 36 19 6 5 4 5 6 4 6 7 7 6 6 6 8 7 6 5 4 4 2 2 3 6 11 13 15 14 14 15 15 12 10 9 10 9 7 6 6 5 4 3 4 2 2 2 2 1 2 2 2
26 23 21 13 4 6 6 6 5 7 9 5 12 6 6 7 5 4 4 3 3 3 3 4 11 11 13 14 14 15 15 13 10 10 12 12 9 8 7 6 6 4 3 2 2 1 1 1 1 2 2 2 1 0
16 16 11 6 4 5 6 6 9 10 5 10 9 5 6 5 5 3 2 4 4 3 5 11 14 16 16 16 15 14 14 14 13 13 11 11 9 8 6 5 4 3 2 1 1 0 0 1 2 2 1 2 1 1
17 11 5 4 5 5 5 3 4 4 4 8 7 5 3 4 4 5 3 3 4 8 13 16 16 16 17 16 16 16 16 13 11 11 10 9 7 6 6 5 3 3 2 1 1 1 3 5 2 1 2 0 1 2
6 4 4 4 5 5 5 3 4 6 6 4 4 4 4 5 6 4 3 5 10 15 15 18 18 20 17 15 14 13 11 10 11 10 8 7 6 5 5 4 3 3 2 2 1 1 1 2 4 1 2 2 2 2
3 5 4 4 3 4 4 5 3 3 3 4 4 3 4 6 4 4 4 9 19 20 20 20 19 17 17 15 13 12 12 10 10 9 7 7 7 6 5 4 3 3 2 1 2 2 3 2 3 3 3 3 4 4
5 5 3 2 3 2 4 4 5 5 4 4 3 6 5 4 4 3 4 20 25 25 26 23 21 18 16 14 15 13 12 10 10 8 7 7 7 5 5 5 4 4 5 4 4 3 4 3 3 4 4 6 8 6
3 3 3 3 2 5 4 4 5 3 3 4 5 6 4 5 4 3 8 19 24 23 21 20 18 17 17 17 15 14 14 14 12 11 10 9 8 8 6 5 5 10 10 6 5 4 4 5 4 4 4 5 5 5
4 4 2 2 3 3 2 2 3 2 2 3 8 4 5 1 2 7 13 19 22 23 21 19 16 16 18 17 17 17 16 14 12 9 8 7 7 7 7 7 7 7 6 5 5 5 4 4 4 4 4 3 6 5
4 3 2 3 3 4 4 3 2 2 1 2 2 2 3 3 4 6 16 20 25 24 23 21 19 19 19 19 17 16 14 14 12 12 9 6 6 6 6 5 4 4 3 3 4 4 5 5 5 5 5 3 5 5
4 5 2 3 2 3 3 3 2 2 3 4 3 4 4 4 5 20 19 23 23 20 19 19 20 20 21 20 19 17 15 15 12 8 7 7 6 8 6 6 5 5 3 3 2 2 2 2 3 4 5 5 4 4
2 3 3 4 3 3 3 4 5 5 3 3 4 4 7 5 7 18 17 16 16 18 18 19 19 17 19 19 18 18 16 14 13 11 9 8 7 7 7 6 5 4 4 4 4 3 3 3 3 4 4 5 6 7
4 3 2 2 3 3 2 1 1 1 2 2 2 3 4 6 6 9 20 21 21 16 15 17 16 16 17 17 17 16 14 13 13 11 10 9 8 7 6 6 5 5 4 4 4 4 3 3 4 3 4 5 6 6
2 3 3 3 3 3 2 1 1 2 2 2 2 4 3 3 4 6 15 19 13 13 14 14 15 18 18 17 15 15 14 12 12 11 10 9 7 7 6 6 5 5 4 4 4 4 3 3 4 4 5 6 6 7

GFSWCAN_850_spd_114.txt.gz
Wind_Speed
20 22 24 23 27 31 23 18 15 12 12 13 14 12 18 17 15 12 6 6 7 4 16 16 13 13 13 11 4 14 9 9 6 5 4 5 5 6 7 7 5 3 3 4 6 4 0 26 8 6 3 7 10 9
17 15 16 17 19 22 21 19 16 12 12 13 13 13 15 17 16 15 7 7 9 14 14 14 17 22 15 12 12 6 8 11 4 4 4 5 6 4 10 4 9 3 5 2 4 3 6 11 13 13 13 11 13 11
19 20 21 22 21 20 21 20 18 16 13 9 15 14 13 18 14 16 11 10 9 12 19 13 5 5 5 13 14 11 4 4 4 9 5 3 4 5 6 5 9 3 14 3 4 5 6 10 11 14 15 14 12 12
18 20 22 21 19 20 21 24 20 18 13 10 14 15 14 15 18 13 16 15 11 2 5 6 3 2 5 6 12 14 14 8 11 7 4 3 3 8 8 8 6 7 6 6 4 4 3 12 12 11 12 13 12 11
18 18 19 18 18 18 18 17 20 20 13 11 13 14 14 11 20 13 15 15 12 8 5 11 18 16 9 5 8 12 12 9 7 4 3 3 7 6 7 5 3 7 3 3 2 7 5 6 8 10 10 10 12 10
18 19 17 19 18 17 18 18 16 20 15 11 14 14 12 10 19 11 4 15 17 14 4 4 3 4 4 5 8 9 10 7 5 3 6 6 12 7 3 2 5 5 5 4 2 4 8 6 7 9 10 11 9 10
17 16 17 21 19 18 17 17 20 19 17 12 12 10 12 11 20 14 5 2 9 18 3 5 4 2 4 4 5 3 4 3 6 3 7 15 16 5 3 3 7 4 5 5 3 3 5 8 6 7 7 7 8 9
16 17 17 18 19 19 18 16 18 21 19 14 9 8 9 13 18 20 16 9 6 16 5 3 4 5 8 4 3 7 5 4 6 7 8 8 8 6 2 8 6 3 4 5 6 6 4 4 5 7 6 7 6 9
18 16 17 17 17 18 20 17 15 17 19 14 9 7 7 11 10 10 11 9 10 11 4 4 3 1 7 6 5 6 7 4 7 4 7 5 4 2 5 9 8 6 3 3 2 4 5 7 7 8 8 9 9 8
18 19 16 18 18 18 20 19 17 20 17 13 12 7 5 11 15 8 4 8 12 8 7 4 10 4 7 6 6 4 6 3 3 6 6 5 3 11 10 10 8 7 6 8 1 3 6 7 7 7 9 9 9 8
19 21 19 17 20 18 21 21 19 21 16 15 9 6 7 12 14 7 7 7 8 4 8 10 16 8 6 4 3 4 1 3 3 3 4 4 3 5 9 9 8 7 7 8 7 7 8 7 7 6 7 9 8 7
23 22 22 19 20 20 23 23 25 22 13 15 9 7 10 9 7 5 5 5 6 6 9 7 8 12 4 3 3 5 2 2 4 3 2 2 4 10 9 9 8 7 7 8 9 7 6 7 8 8 7 6 6 5
27 25 25 20 22 21 22 24 26 17 12 14 5 4 6 9 7 6 10 4 5 5 8 9 4 6 5 5 1 1 3 5 9 2 2 3 12 9 7 7 7 7 7 7 7 7 7 6 4 5 5 6 5 6
29 28 27 22 23 23 21 23 27 14 14 4 6 6 5 5 6 4 6 6 7 9 15 15 10 4 3 3 1 3 3 3 3 3 3 5 12 9 7 7 5 5 5 5 6 6 7 8 9 8 7 7 6 7
31 30 25 24 23 24 22 24 24 17 8 4 5 5 4 3 6 3 4 8 7 15 18 11 3 3 2 3 3 2 3 4 3 3 3 12 10 9 8 6 5 6 7 7 7 8 9 9 8 8 8 7 7 7
33 27 26 25 26 25 27 24 21 14 4 4 4 5 4 1 2 3 7 8 8 16 16 4 3 3 4 2 4 3 3 3 3 5 12 12 11 9 7 7 7 7 7 8 8 7 8 8 9 10 9 10 9 8
33 22 29 30 28 26 25 21 13 8 6 4 4 5 7 5 4 4 6 7 13 11 2 4 6 3 3 3 2 3 3 5 13 13 11 11 11 9 9 10 10 9 9 8 8 7 8 10 9 6 7 8 10 11
27 23 33 32 32 29 26 12 5 5 5 4 4 4 1 4 5 4 5 11 8 4 2 1 3 3 3 3 4 5 11 13 13 12 11 11 11 11 11 11 11 9 8 8 9 12 11 8 7 6 10 9 9 9
24 27 35 35 31 20 6 8 5 4 1 3 3 5 3 2 4 6 9 7 5 3 3 2 1 1 2 3 12 16 15 16 16 13 13 12 12 13 12 12 10 8 9 9 4 4 2 4 3 3 4 4 3 3
23 27 29 30 29 5 4 3 7 4 5 6 6 7 4 4 5 7 6 5 5 4 2 1 3 3 5 11 16 18 17 18 18 17 13 11 11 12 11 10 7 7 6 4 4 4 2 1 2 3 3 3 2 2
32 30 30 34 17 4 4 6 6 6 7 5 10 9 4 7 5 5 5 4 2 2 4 4 11 12 15 17 18 18 18 16 13 13 15 14 12 9 8 7 7 5 3 2 3 2 2 2 2 4 3 4 4 5
40 46 39 22 3 4 2 3 9 10 5 8 11 7 5 5 6 4 4 2 3 3 5 11 14 16 17 17 19 17 16 14 16 16 14 14 12 10 8 6 6 5 3 2 1 1 1 3 5 4 4 5 2 5
33 29 14 9 7 5 5 11 4 9 4 10 10 5 3 4 5 7 3 2 3 6 12 16 18 18 20 20 19 18 17 15 14 13 13 11 10 9 8 7 5 4 4 3 2 1 5 6 5 3 5 2 3 7
15 9 6 5 4 5 6 4 6 5 6 5 5 4 5 5 8 4 3 6 10 15 17 22 21 19 17 16 16 18 15 14 14 12 11 10 9 8 7 6 6 7 4 3 3 3 3 5 6 1 4 2 4 3
4 2 2 3 4 5 4 6 4 3 3 5 5 3 4 6 4 5 3 10 20 22 23 22 21 20 21 19 18 16 15 14 14 13 11 9 10 9 7 6 5 5 5 2 2 2 4 6 3 3 4 2 5 4
3 3 2 2 3 3 5 4 5 6 4 4 3 7 6 3 5 4 2 19 25 28 32 28 26 23 20 19 19 18 16 14 14 12 11 10 9 9 8 8 7 6 5 7 7 4 5 7 4 6 4 6 7 8
3 2 2 1 2 4 3 3 7 3 4 5 5 7 5 4 5 2 5 14 22 29 29 26 23 21 20 20 17 18 16 15 13 14 15 15 15 14 12 10 8 12 11 7 6 6 5 7 5 5 3 5 6 7
3 2 3 3 3 1 1 2 3 3 2 3 10 5 4 1 2 3 2 15 22 28 27 22 18 17 20 22 24 24 24 22 20 15 12 11 10 11 11 11 12 11 9 7 7 6 7 6 6 6 5 5 7 10
3 3 3 3 2 3 3 2 2 2 2 2 3 2 2 3 4 6 11 17 20 26 23 22 19 22 24 22 19 19 18 20 18 15 12 10 10 9 9 8 8 8 7 5 6 5 6 8 8 8 7 4 7 8
2 2 2 2 1 2 3 4 3 1 2 4 4 4 5 4 8 13 14 18 23 22 21 21 23 25 24 22 19 16 16 16 14 12 12 10 9 9 8 8 7 7 5 3 3 3 4 4 5 6 9 7 6 4
1 1 2 3 3 3 3 4 5 5 3 3 5 7 7 4 10 12 15 16 19 20 19 19 18 17 19 19 18 18 17 18 18 16 14 13 10 9 8 7 7 6 6 6 5 3 4 3 2 4 5 6 7 9
3 3 2 2 3 3 1 1 2 2 3 4 3 3 5 7 6 6 11 12 15 15 16 15 16 15 14 15 16 17 15 13 15 14 12 10 9 8 7 7 6 6 6 6 5 6 5 5 4 4 5 7 8 8
2 4 4 4 3 4 2 2 2 2 2 3 3 2 3 4 5 3 12 12 9 11 14 14 15 18 19 19 17 16 13 12 14 13 11 9 7 7 7 7 7 6 6 6 5 5 4 4 5 5 6 7 9 8

GFSWCAN_850_spd_117.txt.gz
Wind_Speed
20 18 25 37 29 28 24 20 17 15 14 12 9 9 16 16 13 10 3 2 4 2 12 11 8 6 5 4 1 10 7 8 5 5 3 3 2 3 4 4 8 4 3 2 3 4 3 25 9 7 7 10 10 13
23 16 15 28 34 29 27 21 17 14 14 14 11 11 11 16 14 12 4 4 5 6 8 14 17 12 14 16 9 5 4 5 4 3 3 3 3 3 5 4 3 3 2 2 4 2 4 11 11 13 15 14 17 14
15 16 20 19 22 29 29 23 19 16 15 13 12 11 10 14 14 15 8 5 6 5 14 6 2 3 8 3 9 3 1 3 5 5 1 2 2 3 3 3 4 3 11 3 3 6 8 11 9 12 11 14 13 13
18 16 16 14 19 22 26 24 21 18 16 10 12 12 10 9 14 11 12 8 3 2 3 5 5 1 3 4 6 9 13 10 7 7 1 2 1 4 2 4 3 4 5 4 3 6 6 11 9 8 9 10 14 11
18 18 18 17 18 17 20 22 22 19 15 10 12 12 10 9 11 13 9 11 7 5 3 10 21 7 10 11 7 10 10 8 5 2 1 2 4 3 4 2 2 4 2 2 1 2 5 4 4 7 8 8 10 11
19 19 18 21 21 22 21 21 23 21 16 13 12 12 9 8 7 12 2 9 11 9 2 3 6 4 5 4 7 4 9 7 4 2 3 4 7 1 1 1 5 7 4 2 3 3 7 6 5 6 7 9 9 10
17 17 16 21 23 20 22 19 16 20 18 13 10 11 8 7 13 12 4 5 13 13 2 5 4 3 10 5 5 3 6 3 4 3 4 4 4 3 1 1 9 7 5 4 1 3 7 5 3 4 4 3 8 10
15 17 19 16 18 20 19 21 20 21 19 13 12 9 7 6 13 19 9 6 12 11 5 2 4 2 7 4 2 3 2 3 4 4 4 4 4 6 1 11 12 8 6 5 5 6 6 4 3 4 3 9 9 10
17 16 16 20 20 20 20 19 22 22 19 15 10 10 6 5 8 9 9 10 4 7 2 4 2 3 9 4 4 3 4 2 4 4 4 2 2 3 5 14 13 9 6 4 5 4 5 6 6 7 6 7 10 9
17 16 17 17 19 21 20 20 19 19 22 18 14 6 5 8 9 10 5 4 8 6 6 4 7 2 10 7 7 4 5 2 2 5 5 3 3 10 13 15 13 9 5 6 8 11 7 10 7 9 8 6 5 4
16 16 16 17 17 20 21 20 20 22 22 17 8 8 5 12 9 5 4 5 6 4 8 9 16 4 6 3 3 4 2 2 2 3 3 2 2 5 9 9 7 6 4 7 6 7 6 6 9 6 4 5 4 5
15 17 17 18 19 19 23 21 21 26 17 15 9 5 10 8 6 5 4 4 5 5 9 7 12 20 5 5 4 5 2 1 4 2 2 2 3 13 12 12 9 6 2 3 2 1 1 4 3 1 2 4 6 7
17 17 19 16 19 19 23 23 23 21 15 11 5 3 4 7 6 6 7 3 3 5 9 11 1 5 5 3 4 1 3 4 9 0 2 2 14 13 12 9 7 6 3 3 5 6 8 5 4 6 7 7 6 6
20 20 21 18 19 19 23 25 27 19 13 5 5 4 4 5 5 4 4 5 7 11 20 18 7 4 4 2 2 3 4 2 3 2 2 4 16 15 12 7 2 3 4 6 7 8 9 8 9 9 9 9 8 9
23 23 22 19 20 21 22 25 24 13 6 3 4 4 4 2 3 1 2 5 10 21 24 12 4 4 1 3 3 2 2 3 1 2 2 16 16 11 7 3 5 8 7 8 9 10 11 10 10 10 10 9 9 8
27 24 24 22 22 22 24 25 22 12 4 3 5 3 7 6 2 1 8 8 13 22 18 4 3 3 2 3 3 5 2 2 3 3 18 19 15 11 8 7 8 7 8 9 9 9 13 15 15 14 14 14 13 11
32 22 28 24 23 23 22 26 16 5 5 3 3 3 7 8 5 4 4 4 9 14 2 3 4 4 3 2 3 2 1 3 16 19 16 13 13 11 11 12 12 11 10 9 10 13 13 12 11 11 11 12 12 13
32 22 28 27 26 25 24 11 6 6 5 7 3 5 2 2 2 2 2 6 5 5 1 1 2 1 3 3 3 3 10 20 21 20 17 13 11 12 14 15 12 11 11 14 15 12 8 7 7 8 10 8 6 7
26 20 29 29 29 13 5 8 5 4 6 4 5 3 3 4 2 4 4 6 4 4 2 0 1 1 2 3 9 19 23 24 23 18 15 13 15 16 15 14 12 14 14 9 8 6 4 6 2 3 2 2 0 1
21 24 31 31 19 4 4 4 8 3 5 6 6 7 4 3 5 4 5 7 6 4 1 1 2 2 3 11 15 23 23 23 25 24 20 16 15 15 15 14 13 12 9 8 6 4 2 5 4 1 4 2 2 2
28 28 28 28 17 4 5 6 6 5 5 6 9 8 3 5 5 5 4 5 2 2 3 3 9 10 11 13 16 19 20 20 22 22 25 23 20 17 14 11 11 10 6 5 6 5 3 4 4 5 6 5 8 5
29 33 28 23 8 4 4 7 4 7 5 5 12 9 4 4 5 6 7 4 3 4 6 14 17 17 17 18 18 16 18 18 16 15 18 21 21 17 15 14 12 8 10 8 5 7 6 5 6 7 3 4 4 7
31 24 13 13 5 5 2 13 4 9 3 7 8 3 1 3 6 9 4 4 6 8 12 16 17 17 20 21 21 21 18 22 21 18 21 18 16 15 14 13 11 11 9 8 7 8 7 7 7 4 2 1 3 4
21 12 7 8 7 4 5 5 7 5 4 3 4 3 4 5 7 3 3 8 8 17 21 24 25 25 23 22 23 23 20 18 18 21 19 21 20 19 15 14 13 12 10 10 8 8 7 5 4 4 3 4 5 5
8 7 4 3 5 6 4 4 3 3 3 4 3 2 3 6 2 3 3 9 22 27 26 28 28 27 30 27 27 25 21 21 23 23 20 17 18 17 15 12 11 13 13 12 9 8 7 5 5 7 6 6 6 5
3 7 4 8 6 5 5 5 6 5 3 3 4 6 6 3 3 5 2 16 24 33 35 35 34 30 27 29 32 27 25 20 20 20 18 19 17 15 16 15 12 9 8 11 9 10 9 7 5 7 7 7 5 5
5 3 3 4 2 5 2 2 9 4 4 5 3 4 3 4 5 1 3 7 17 25 31 31 29 30 28 29 27 25 23 20 19 22 21 19 17 16 14 12 11 9 8 8 10 12 12 9 8 6 6 8 7 7
2 2 4 2 3 2 1 1 4 4 1 4 12 4 6 3 1 3 1 5 8 19 26 25 22 20 24 26 25 30 27 25 24 23 22 21 19 17 16 16 15 13 10 9 9 10 13 12 10 9 8 10 10 8
3 2 3 4 2 3 4 3 2 3 4 4 1 2 3 3 3 7 10 8 13 23 23 23 21 23 26 25 23 25 26 27 26 25 22 21 19 17 16 16 15 14 12 11 10 9 9 11 10 10 9 8 9 9
2 1 3 2 2 2 2 3 3 2 3 5 4 5 5 4 5 7 13 14 17 21 19 19 20 25 26 25 24 23 21 22 23 19 18 16 13 11 12 12 12 10 10 8 8 8 8 8 10 10 10 10 11 12
2 0 2 4 4 3 2 7 9 7 5 6 8 8 7 7 9 10 12 12 16 17 16 17 18 18 20 21 20 20 20 22 22 18 16 13 10 9 9 10 10 10 9 7 7 7 7 6 7 7 6 5 6 6
2 3 1 2 3 4 3 0 2 3 5 4 3 4 8 5 4 4 8 8 9 11 12 14 16 16 14 15 15 15 18 16 17 16 14 12 10 10 9 9 9 9 9 8 7 6 5 6 7 7 8 9 9 10
3 4 5 5 4 5 2 2 4 2 2 3 4 4 3 5 5 3 1 5 4 8 12 12 12 14 14 16 16 16 16 14 14 17 16 12 9 8 8 9 9 8 8 7 7 6 6 7 7 7 7 9 10 10

GFSWCAN_850_spd_120.txt.gz
Wind_Speed
23 25 30 30 27 23 22 20 18 17 15 12 11 12 16 14 12 10 8 4 3 2 3 3 2 2 2 2 2 5 4 6 5 5 3 2 2 3 2 2 4 4 3 4 4 4 4 26 8 6 3 13 13 10
21 19 22 33 30 27 25 23 21 18 15 13 11 10 15 14 12 12 8 4 1 2 2 4 12 9 12 10 3 1 2 2 1 3 2 2 2 3 3 2 2 3 2 2 4 2 5 7 9 10 11 10 12 16
18 19 20 25 34 32 29 24 21 18 16 14 11 11 11 14 14 12 9 5 2 3 4 1 5 2 2 2 4 7 2 2 4 4 2 2 1 3 1 2 3 3 7 3 4 4 6 7 7 9 10 11 9 8
21 19 18 22 38 30 31 27 22 18 16 15 12 11 10 12 13 12 11 5 1 2 2 3 3 0 3 7 3 2 8 1 1 3 0 1 1 1 2 3 2 2 4 1 3 5 6 6 6 6 6 5 10 10
20 18 20 25 25 38 31 28 23 20 17 13 13 12 10 9 13 11 8 9 3 0 2 8 10 3 6 9 5 5 6 7 3 1 1 2 3 2 3 1 2 4 2 1 2 2 2 2 3 5 5 6 5 6
17 17 16 16 25 28 30 28 24 21 16 11 12 11 9 9 9 12 3 8 8 5 2 3 4 2 2 6 4 5 10 8 3 2 3 3 4 2 0 0 2 5 2 2 2 3 5 3 4 4 5 6 5 4
20 21 21 21 23 19 24 27 26 23 17 13 13 10 8 7 10 8 4 6 12 9 2 4 6 2 11 8 5 6 6 3 2 2 3 3 4 2 1 2 10 7 5 3 1 1 4 0 2 4 3 3 3 4
20 21 20 23 23 25 25 24 23 22 19 14 12 10 8 6 10 12 10 7 12 9 3 1 3 1 6 4 3 4 4 3 3 3 3 4 2 3 1 8 10 9 6 4 3 4 3 2 2 4 5 4 5 5
18 19 20 26 26 25 25 24 24 25 20 16 15 10 7 4 6 11 6 2 5 5 3 3 2 3 7 4 3 3 2 0 2 3 3 2 2 2 4 10 11 7 4 1 5 6 5 4 4 4 2 3 3 4
18 18 17 19 30 27 25 26 26 26 21 18 15 5 3 5 13 10 8 3 3 3 3 3 4 2 6 4 2 3 2 2 1 4 4 3 2 8 10 10 8 4 1 6 13 9 7 6 3 3 5 4 3 4
18 18 19 19 19 25 26 27 28 26 24 18 7 3 8 15 9 4 3 3 3 4 6 8 12 4 8 3 3 4 2 1 2 3 4 2 3 5 8 7 5 2 2 3 5 6 5 6 4 1 2 4 4 4
19 20 20 21 23 24 24 26 28 28 21 11 8 12 13 4 2 3 3 4 4 5 7 9 10 17 5 5 4 4 2 1 3 1 2 2 1 16 13 9 5 2 2 2 2 3 4 4 2 1 2 4 5 6
19 18 19 21 22 23 24 25 24 26 18 13 4 3 5 7 4 5 7 4 3 5 9 10 2 10 5 3 4 2 3 4 3 2 2 1 14 17 13 8 5 3 2 3 5 6 6 5 5 5 5 6 4 4
17 19 17 21 22 22 23 23 26 22 13 4 5 3 3 4 4 4 4 4 10 6 20 22 7 4 4 2 3 3 4 2 2 2 4 3 19 20 14 8 5 4 3 6 8 9 9 9 9 9 9 8 6 6
18 18 18 19 20 22 25 25 25 20 6 4 4 4 4 5 8 7 8 6 5 18 26 12 5 4 1 3 2 2 1 3 4 4 3 18 22 18 13 8 6 7 9 10 12 12 13 12 11 13 13 10 7 6
20 19 20 18 19 22 25 25 17 13 5 4 4 3 5 5 5 4 3 5 3 24 19 5 3 3 3 3 3 5 3 5 3 3 16 25 21 15 10 9 10 10 11 12 13 15 16 15 13 14 14 14 14 12
22 16 23 19 22 22 25 27 11 5 4 2 3 4 5 6 9 2 2 4 18 15 2 3 5 5 3 3 3 3 4 3 11 16 23 21 18 15 12 12 13 13 14 15 15 14 14 14 13 11 10 10 10 10
26 21 24 22 24 22 20 12 5 4 3 6 3 2 2 4 7 4 2 1 4 4 2 2 4 2 4 4 3 4 5 14 16 20 20 17 15 14 13 16 16 15 16 18 15 12 11 10 9 7 5 4 6 6
25 22 25 26 24 11 4 6 4 5 7 3 5 6 3 6 10 8 3 3 3 5 3 1 2 3 3 3 4 15 20 20 24 21 18 14 14 17 18 18 18 19 18 15 11 9 8 5 3 2 3 3 3 3
19 21 22 23 20 3 2 3 6 2 3 4 6 7 5 5 5 7 8 7 6 4 3 2 3 4 4 5 8 14 20 22 26 26 21 18 19 20 20 21 21 19 15 14 11 10 9 7 4 2 4 4 3 5
20 21 23 25 11 2 4 5 5 3 3 4 4 7 3 2 2 3 5 8 7 3 4 6 8 5 4 6 7 12 19 22 25 22 30 29 23 20 20 20 19 16 16 14 10 8 6 8 4 5 6 5 6 4
22 24 23 23 5 2 3 6 3 4 4 2 8 4 2 3 4 5 4 6 5 6 7 8 13 12 12 11 13 12 16 19 18 17 23 25 29 28 24 24 22 18 14 12 13 8 6 6 6 7 7 5 2 2
28 21 9 5 4 4 3 9 4 6 2 4 4 2 2 3 3 7 4 6 7 11 13 13 13 12 11 14 15 17 18 20 21 22 26 27 24 21 20 21 18 15 17 13 10 9 9 9 8 8 7 5 4 3
20 9 4 5 9 3 6 4 6 6 5 3 3 2 3 5 7 3 3 5 8 13 17 18 20 20 19 20 22 25 23 19 18 22 25 25 24 21 20 21 20 17 14 12 12 10 9 9 8 8 8 7 7 7
7 8 6 5 6 5 4 3 3 3 3 4 2 2 3 5 1 3 3 4 16 20 22 24 25 26 28 27 26 25 21 23 23 25 26 24 23 21 21 19 17 17 16 15 14 12 10 9 8 7 10 9 9 10
5 9 7 7 6 5 5 4 5 5 3 1 4 3 5 2 2 5 3 3 12 21 27 30 32 30 28 28 30 29 28 23 20 25 25 24 23 24 25 23 21 20 18 15 14 14 12 10 9 7 9 10 10 10
4 4 4 5 3 3 1 2 6 3 3 5 3 2 3 3 5 3 4 4 7 11 20 25 28 29 29 29 29 28 23 20 18 20 21 20 17 17 16 18 18 13 12 12 12 13 13 12 12 10 9 11 12 12
1 1 2 1 2 1 3 1 3 5 3 1 8 3 5 6 2 6 4 5 8 8 12 17 21 22 22 25 28 28 24 22 20 21 21 20 21 20 17 16 14 14 12 12 11 12 13 14 14 12 11 10 11 10
2 0 2 2 2 3 2 2 2 2 0 2 4 2 2 3 7 6 1 3 3 5 15 19 20 18 17 19 23 24 24 25 25 26 25 25 24 23 22 19 17 17 16 15 14 13 12 13 14 13 11 10 10 11
4 5 3 1 3 2 1 1 2 3 2 3 5 5 5 7 12 3 4 5 6 11 14 15 16 17 19 21 22 23 24 23 23 23 23 23 21 20 21 20 20 18 17 16 15 14 14 14 14 14 13 13 13 12
4 4 3 3 2 1 0 5 6 5 3 4 5 4 7 5 7 10 7 6 6 9 7 9 11 14 16 19 20 20 22 23 24 23 23 20 16 16 16 17 16 16 15 13 13 12 12 13 14 14 14 13 12 11
1 1 4 2 1 7 4 2 2 2 3 2 3 4 6 3 4 5 14 5 7 8 6 7 10 12 13 13 14 15 15 16 19 22 22 19 17 13 12 13 13 13 13 13 11 10 10 10 11 11 11 10 9 9
3 4 4 5 4 4 4 3 3 2 3 3 3 3 4 4 4 6 6 9 4 5 7 5 6 6 8 10 12 13 13 12 12 12 14 14 11 10 11 11 12 12 12 11 10 9 9 9 10 10 10 10 10 11

GFSWCAN_850_spd_123.txt.gz
Wind_Speed
31 31 28 26 24 22 21 20 19 17 15 13 11 15 18 16 15 12 9 9 6 4 7 6 6 5 3 3 2 2 3 4 4 3 2 1 1 2 2 2 1 4 3 3 3 3 2 21 8 5 5 10 12 13
35 32 31 29 27 25 24 23 20 17 15 13 11 15 18 17 14 12 10 7 5 3 4 7 6 7 7 4 3 1 2 0 1 3 1 0 2 2 1 2 3 2 2 1 3 1 5 7 8 8 10 8 10 11
27 28 32 31 29 27 23 22 22 20 16 15 13 14 18 17 15 11 11 7 6 4 3 3 5 6 5 2 4 4 2 2 2 3 3 1 1 2 1 2 2 2 6 2 2 2 3 6 4 6 7 9 8 7
17 20 24 29 31 29 27 24 23 20 18 15 14 13 16 16 15 12 10 7 4 5 3 3 3 4 6 5 4 7 8 4 0 1 1 1 1 2 2 2 1 1 4 0 1 2 2 3 7 7 6 5 7 7
22 22 21 27 37 34 32 28 23 20 19 17 15 14 13 16 14 12 9 8 3 3 3 2 2 5 6 6 5 5 5 4 2 0 2 2 3 1 1 0 1 2 1 1 3 2 2 1 3 6 7 7 6 6
23 22 21 21 36 38 34 31 25 21 20 18 16 14 12 12 15 11 4 6 7 2 2 1 1 2 3 10 5 4 7 5 2 1 2 3 3 1 1 2 4 5 3 2 2 2 4 3 3 4 5 4 4 5
23 20 24 29 36 37 36 32 28 24 18 19 16 14 12 9 14 5 4 4 12 6 3 2 4 2 8 8 6 3 5 3 2 2 2 3 3 3 2 2 7 7 5 3 1 0 2 2 3 7 3 5 1 4
20 17 18 25 34 35 36 32 28 23 19 20 18 15 11 8 16 9 9 7 12 4 2 1 2 1 7 4 3 4 4 4 3 2 2 3 2 1 1 6 9 8 6 5 2 3 2 2 2 3 4 0 3 5
20 20 21 21 23 34 36 32 28 23 21 20 18 13 10 6 9 6 4 15 14 2 3 1 2 2 7 4 3 3 2 1 2 2 3 3 1 3 2 7 9 7 4 3 4 4 4 2 4 4 2 3 5 6
19 20 22 24 26 30 31 31 28 25 23 21 16 5 5 8 17 11 4 2 2 1 2 2 2 1 5 3 1 3 1 2 1 4 4 1 1 5 6 9 7 4 2 4 12 8 4 2 1 2 4 6 6 6
19 21 24 26 27 31 30 29 30 26 24 15 4 4 16 19 8 3 3 1 2 2 6 6 10 3 7 3 3 5 2 2 2 2 3 2 2 6 10 8 5 1 1 2 4 4 3 3 2 2 4 5 4 4
19 18 22 34 30 30 31 33 32 28 15 8 10 18 16 4 4 3 2 3 3 4 8 7 9 12 5 4 4 4 2 1 3 2 2 2 1 15 14 9 5 3 2 1 2 3 3 3 2 2 2 3 5 5
20 20 17 22 34 29 32 32 29 21 18 21 6 5 4 3 2 5 6 4 3 4 9 8 2 9 4 3 5 2 3 3 1 1 3 3 12 17 15 11 7 4 2 1 3 4 4 4 3 4 4 5 6 5
20 20 19 18 19 26 34 32 27 20 10 3 4 1 3 4 4 4 4 4 7 5 16 20 6 4 4 2 3 3 4 1 2 2 5 4 22 21 16 11 7 4 4 5 7 8 8 8 8 8 8 8 6 6
19 19 21 22 21 19 24 26 26 19 4 3 4 3 4 5 5 8 10 8 7 5 19 9 6 4 2 2 2 3 2 3 4 4 3 18 25 22 17 12 8 7 9 10 11 11 12 12 10 10 10 8 5 4
19 18 19 21 22 23 24 22 23 11 3 3 3 1 3 2 4 6 8 11 10 9 15 3 3 3 3 3 3 5 3 5 4 3 10 24 26 22 16 11 10 11 13 14 14 14 13 13 12 12 12 12 11 9
21 17 19 20 21 23 22 17 13 4 3 2 3 6 8 7 7 5 3 5 10 17 3 4 4 5 3 2 3 4 5 3 7 9 18 25 24 20 15 14 15 16 17 17 17 15 14 13 11 10 9 9 7 6
19 20 20 21 24 24 21 4 5 4 4 4 3 3 5 5 9 8 7 4 4 11 6 4 7 3 4 4 3 4 5 6 10 12 21 22 19 16 14 16 18 18 19 18 16 15 13 11 8 6 4 2 3 4
18 22 20 21 23 9 4 5 3 3 4 2 5 6 7 7 16 18 14 10 6 4 9 5 3 3 4 6 6 9 14 15 19 22 21 19 16 16 17 18 19 20 20 18 16 12 10 7 6 4 2 3 4 5
17 20 19 20 20 3 3 3 6 3 3 3 5 7 6 5 9 10 10 7 4 2 3 3 4 5 5 4 5 7 11 17 22 25 23 20 19 19 21 22 21 21 19 17 15 14 11 10 6 2 2 5 4 5
22 19 19 18 15 1 2 4 6 3 2 4 3 6 3 4 6 5 7 5 3 4 4 8 10 9 8 6 5 7 13 19 25 22 28 29 25 23 23 22 22 22 21 18 17 14 11 9 5 5 4 5 6 7
21 22 17 15 2 1 3 6 2 3 3 2 5 5 3 3 4 6 5 6 6 10 10 10 12 13 12 10 8 8 11 18 19 18 16 24 30 29 29 27 27 23 21 19 16 12 9 10 10 7 6 6 6 5
25 18 8 7 2 2 2 6 5 5 2 3 2 1 3 3 3 6 4 6 8 12 15 17 14 12 10 11 11 12 14 18 20 20 19 24 26 25 26 27 24 22 22 19 16 13 10 9 9 9 8 8 7 7
20 8 5 5 8 3 4 4 4 4 4 2 3 2 2 3 5 2 3 5 8 9 16 18 16 18 16 16 17 17 18 19 18 19 21 25 25 25 24 24 23 21 17 14 14 14 13 12 11 10 10 10 9 9
6 7 5 6 6 5 2 2 4 3 3 3 1 3 2 4 1 2 3 4 7 10 14 16 19 21 21 20 19 18 18 19 20 21 23 24 24 23 22 21 21 19 17 16 16 14 14 13 12 11 10 11 11 10
3 8 8 4 5 5 5 3 4 5 3 1 4 1 3 2 1 5 2 9 8 8 11 17 20 21 21 20 20 21 22 19 16 17 21 25 24 25 25 25 24 22 20 18 16 16 15 14 13 11 10 10 12 12
3 5 4 6 3 3 3 3 4 3 3 4 2 2 2 2 5 3 4 7 11 10 11 12 17 21 22 19 17 17 18 17 18 14 14 19 19 19 17 16 16 15 15 17 18 17 16 15 14 13 12 11 11 12
3 3 4 3 3 2 2 1 4 5 3 3 7 3 5 5 3 7 6 9 11 10 6 5 8 12 15 14 16 17 19 18 15 12 14 18 19 18 15 13 11 10 13 13 13 13 13 14 14 14 13 12 11 11
4 4 5 1 2 1 2 2 2 2 2 3 4 2 3 3 9 9 7 8 9 9 5 4 6 7 8 8 12 16 18 18 19 19 20 21 21 21 20 18 16 16 17 16 16 15 14 14 14 14 13 13 12 12
6 8 4 3 3 3 2 2 3 3 3 3 4 6 6 5 11 6 3 3 3 5 4 2 2 4 5 7 11 16 18 17 16 16 17 18 15 14 16 17 17 17 18 19 19 19 17 16 15 15 15 15 14 13
4 5 3 2 1 1 2 5 5 5 3 3 4 4 7 5 4 10 9 5 3 2 1 1 3 6 7 8 10 11 14 15 17 18 17 18 17 16 15 16 17 17 18 19 19 18 17 15 14 13 14 14 14 14
1 1 4 2 1 6 7 5 4 3 3 2 3 4 4 3 3 5 15 8 3 2 2 1 3 5 6 8 10 12 10 8 12 16 18 19 18 16 14 13 13 14 16 15 14 13 12 11 11 11 11 11 11 11
2 3 3 3 3 3 4 2 3 2 2 2 3 3 4 3 4 6 7 11 8 5 3 2 2 2 1 2 4 6 8 10 11 11 12 12 13 12 12 11 10 11 12 12 11 10 9 9 8 9 9 9 10 11

GFSWCAN_850_spd_129.txt.gz
Wind_Speed
29 30 23 22 24 23 23 23 19 15 14 15 18 18 17 14 12 10 12 10 8 9 10 10 9 9 8 5 3 5 4 3 3 3 2 2 1 2 2 3 2 1 0 0 1 1 2 12 3 3 4 7 9 11
22 31 26 27 25 25 25 25 23 17 15 16 18 16 15 14 12 11 13 13 15 10 13 16 15 11 8 7 12 4 4 3 3 3 1 2 2 1 3 4 1 2 1 1 0 1 6 7 7 3 4 4 7 8
27 30 25 26 24 28 25 24 21 18 16 13 14 16 15 14 13 11 17 16 18 23 17 10 8 7 8 6 7 6 4 4 5 4 5 2 2 2 2 2 3 3 1 2 3 5 6 7 6 4 4 3 5 7
33 35 27 27 28 30 28 26 22 19 16 15 17 17 16 14 13 12 14 16 13 10 6 4 11 13 12 9 8 11 17 13 9 5 3 2 2 1 1 2 1 1 3 3 3 7 8 5 4 4 3 4 4 7
27 34 29 30 27 31 28 28 24 21 18 16 18 18 16 16 15 13 14 13 11 5 6 8 12 10 11 12 13 15 12 9 6 3 2 1 2 2 1 1 1 2 3 3 2 6 3 6 5 0 0 2 3 4
21 35 33 31 29 27 29 27 25 21 19 16 18 19 19 18 16 15 6 8 12 20 8 3 5 4 12 13 11 8 9 7 4 3 2 1 2 1 1 2 4 5 6 5 5 7 6 6 1 2 5 2 2 4
39 38 32 31 28 28 25 27 23 21 19 17 18 19 18 16 15 5 5 12 11 10 6 4 3 4 15 13 10 8 5 3 2 3 2 1 1 2 2 2 10 10 8 7 7 9 7 5 5 7 2 2 2 4
36 37 33 31 28 29 30 27 24 22 21 19 18 18 17 14 12 11 13 13 11 7 6 3 2 5 6 5 4 4 4 3 2 2 2 1 2 1 2 5 11 11 11 9 7 5 5 8 7 5 2 1 2 5
32 37 33 33 34 32 28 27 25 23 21 21 20 21 19 14 5 8 12 12 8 5 5 2 4 3 8 4 5 3 2 1 1 1 1 2 1 4 3 14 14 14 10 12 10 8 8 7 7 5 3 3 4 5
25 33 30 36 38 36 31 29 26 24 22 23 18 5 5 10 18 14 5 3 3 4 3 3 4 3 6 3 2 2 2 1 0 2 3 2 2 4 7 13 16 14 11 11 11 8 8 7 5 4 3 4 5 6
25 31 29 41 40 37 33 29 29 27 25 11 4 4 22 15 4 4 4 2 2 2 2 3 3 4 3 4 3 2 2 2 1 1 2 2 3 6 12 14 13 12 12 13 10 7 8 7 7 5 4 5 7 7
30 29 38 40 40 37 32 31 29 27 10 7 17 17 9 3 4 4 1 2 1 2 4 4 5 4 5 4 5 4 2 2 1 5 2 2 2 9 18 17 15 12 10 9 8 8 9 8 6 5 7 9 9 10
23 30 37 38 41 38 32 29 25 16 28 26 7 4 2 3 5 3 3 1 1 5 7 6 3 5 4 4 5 2 3 2 4 1 3 3 8 13 19 18 16 12 10 9 10 9 9 9 9 9 10 11 11 9
20 23 32 39 39 37 31 29 21 29 7 4 3 4 2 0 0 2 1 2 3 2 11 11 5 3 3 3 3 4 1 1 0 2 4 2 16 20 22 19 16 14 11 10 11 12 12 12 13 13 12 11 10 8
17 18 32 38 37 35 31 26 25 12 4 4 3 2 1 1 1 2 1 2 3 4 13 6 5 3 2 3 1 3 2 2 4 4 3 5 18 25 25 21 17 14 13 13 13 14 15 15 14 13 12 10 9 7
18 21 24 38 39 34 31 26 17 8 4 3 4 4 2 2 2 2 1 1 4 4 10 3 2 3 1 3 3 4 4 5 3 3 4 11 20 25 24 20 15 13 14 15 16 16 16 15 14 12 11 10 10 9
19 20 18 29 32 33 27 21 12 4 4 3 3 5 5 5 3 3 2 3 4 6 1 2 3 4 3 3 3 4 5 3 5 5 6 11 19 25 23 19 17 16 18 18 19 18 17 16 14 13 12 11 9 7
23 21 22 26 31 32 24 12 4 3 2 3 4 6 5 6 2 2 5 2 3 4 3 2 3 2 4 5 3 4 10 9 7 5 7 13 19 22 21 18 17 17 19 19 19 19 18 16 15 14 12 10 7 5
20 20 22 29 28 14 5 3 4 3 2 3 4 6 4 4 3 5 5 1 2 3 3 2 2 3 3 6 8 6 8 11 9 9 11 16 20 21 19 17 17 19 21 21 21 20 17 14 12 12 10 7 5 4
18 17 13 17 12 5 5 4 4 3 3 4 4 4 3 3 4 5 6 5 5 3 4 3 3 5 5 9 7 6 5 7 10 11 15 20 23 23 21 19 20 21 22 22 20 20 19 18 15 12 9 6 5 5
20 18 19 14 9 6 4 4 3 3 4 3 2 2 2 4 5 5 4 7 6 5 5 9 11 11 12 9 6 5 5 5 7 11 13 22 25 25 22 21 21 24 25 26 25 23 21 16 13 11 8 6 5 6
18 14 8 5 4 4 4 3 4 5 3 2 2 2 2 2 3 4 6 8 5 3 4 4 6 8 11 11 9 7 7 7 9 11 12 14 24 27 28 26 27 27 27 26 24 22 18 17 17 14 11 9 7 7
15 11 5 1 2 3 3 4 1 2 2 2 2 1 2 2 2 4 3 4 1 4 9 10 10 11 10 10 10 10 10 10 11 12 12 13 17 21 24 25 26 26 26 26 23 19 18 18 17 16 14 13 11 10
10 3 2 2 2 2 3 3 2 2 2 2 2 2 2 3 3 2 2 1 4 11 12 9 7 7 8 9 10 11 10 9 10 11 13 14 15 19 20 22 24 24 22 22 23 21 20 19 17 16 15 15 14 13
2 1 1 1 1 3 2 1 1 3 3 4 2 2 2 3 1 1 1 2 8 11 13 12 9 7 8 9 8 8 9 9 10 11 12 13 13 16 20 22 23 22 23 24 25 23 22 20 18 16 16 15 15 15
1 3 4 7 4 4 4 3 4 5 3 3 4 1 1 1 1 2 0 4 8 13 15 13 12 9 8 9 8 6 7 8 9 10 10 11 12 14 19 23 24 25 25 25 23 23 21 19 18 17 17 17 16 16
2 3 4 5 3 2 2 2 3 2 4 4 2 2 2 0 3 0 1 4 13 14 11 9 9 7 7 7 7 5 5 5 7 5 5 5 8 10 13 16 15 16 19 23 23 22 20 19 18 17 16 16 16 16
5 3 3 4 3 4 2 2 3 4 3 4 6 2 3 3 1 3 2 8 10 9 7 7 7 6 5 3 2 2 2 5 7 7 6 5 5 8 10 12 12 10 9 13 17 18 17 17 18 17 16 16 15 15
4 4 6 3 3 2 3 2 2 3 3 5 2 2 4 3 3 4 4 6 6 7 5 5 6 6 7 5 2 1 2 3 7 7 5 4 4 5 9 10 12 13 12 12 12 14 16 16 15 15 14 14 14 16
4 7 4 3 3 3 1 2 2 3 3 4 6 7 7 7 8 7 5 5 5 6 7 7 6 5 6 6 5 3 0 2 4 5 4 2 3 3 2 5 10 12 13 14 14 13 14 15 15 15 16 15 15 16
2 6 2 3 2 2 3 4 4 4 4 3 4 5 8 8 5 9 10 8 8 7 5 4 4 4 5 5 6 5 4 1 4 6 7 7 7 5 5 6 8 10 11 13 14 15 16 17 17 16 16 15 15 14
3 3 4 2 2 2 4 5 5 3 3 3 3 5 6 4 3 2 10 7 7 7 8 8 7 8 7 7 6 4 5 5 4 3 5 7 8 9 9 9 10 11 12 12 13 13 13 14 14 14 14 13 11 11
1 2 2 2 2 2 3 3 2 2 3 3 3 3 3 3 3 4 7 10 9 9 8 7 7 7 7 6 5 4 3 4 6 7 8 10 10 10 10 9 9 8 8 8 9 9 9 10 9 9 9 9 8 8

GFSWCAN_850_spd_132.txt.gz
Wind_Speed
21 23 25 23 24 20 23 20 16 14 16 18 17 17 14 14 10 8 8 12 11 8 8 8 9 9 9 9 7 9 6 2 3 4 3 3 3 3 4 4 4 4 2 2 2 4 3 10 2 3 3 2 5 6
20 28 24 22 24 24 26 22 18 14 15 16 16 17 17 15 12 10 11 12 24 11 11 19 16 12 11 8 12 6 2 5 3 2 1 2 3 3 5 5 3 3 3 1 4 3 4 8 8 5 2 2 4 5
19 30 27 24 24 24 25 24 22 15 14 17 16 16 14 13 12 12 17 20 23 20 16 10 9 14 13 10 10 6 3 4 3 3 3 2 2 2 4 3 5 3 1 1 5 5 6 6 6 4 4 4 4 5
16 36 31 26 24 25 23 25 25 20 18 17 17 14 14 13 13 17 21 18 19 11 7 6 12 13 10 8 5 6 14 12 9 5 3 2 2 2 3 3 2 3 8 4 3 8 8 5 5 4 4 5 5 5
16 34 31 29 26 26 27 25 24 19 19 15 16 16 14 14 13 14 16 17 13 6 6 10 14 12 15 15 17 15 12 9 6 3 2 2 3 3 3 2 3 5 4 4 1 11 4 10 6 3 4 3 3 2
29 32 30 27 30 30 29 27 24 19 17 19 19 18 18 17 17 17 7 9 18 27 11 4 5 6 14 13 12 10 8 6 4 4 4 3 2 1 2 2 4 6 6 4 6 7 9 11 5 3 8 5 4 4
39 33 31 32 33 31 28 28 28 21 20 21 21 20 18 16 16 3 6 14 17 13 6 6 6 4 10 11 9 6 5 4 3 3 2 3 4 2 1 2 12 10 10 10 11 13 9 8 6 9 7 6 5 5
31 34 33 32 32 31 30 29 26 25 22 22 21 18 14 12 11 13 17 16 13 8 6 4 3 6 7 6 5 3 3 3 3 3 3 2 4 2 2 6 13 14 12 11 9 4 7 12 11 9 7 6 5 4
35 34 33 31 29 29 31 27 24 21 22 22 21 18 15 12 5 10 14 12 8 6 4 3 7 4 9 4 4 3 2 1 1 1 2 3 3 4 3 15 17 17 12 14 12 11 11 11 10 8 7 6 5 5
45 37 34 32 34 33 31 28 27 25 26 28 24 6 5 8 22 15 5 3 4 5 4 3 4 4 8 5 2 4 0 1 2 2 3 2 3 4 5 12 15 15 13 16 15 11 11 11 10 8 7 6 7 7
41 37 31 36 36 35 32 29 28 28 30 11 4 5 21 12 5 4 3 3 1 2 2 4 6 9 3 5 3 1 2 2 2 3 2 2 3 7 12 14 14 13 14 11 8 7 9 10 11 10 9 9 9 8
37 36 39 38 35 33 30 29 29 27 9 6 16 19 7 4 4 3 2 2 1 3 4 7 10 7 4 4 4 3 2 2 2 6 2 2 2 10 16 15 16 15 13 11 9 10 11 12 12 11 11 11 11 11
36 34 43 40 36 33 31 29 26 14 33 25 8 4 2 3 2 3 5 3 4 6 6 8 5 4 4 3 5 2 4 2 4 2 3 2 8 13 16 16 16 14 14 13 12 13 14 14 13 12 13 13 12 11
29 43 41 39 35 32 30 25 28 21 5 4 3 4 2 2 2 1 3 3 3 5 12 11 5 3 4 3 3 4 1 3 2 3 4 3 13 17 18 17 18 17 16 15 15 15 14 14 16 15 14 13 12 10
38 38 39 39 35 33 29 31 20 5 4 4 3 3 2 2 3 4 3 3 4 8 13 7 5 2 2 3 2 3 4 3 4 3 1 4 13 19 21 21 20 19 18 17 17 17 18 18 17 17 16 14 12 10
32 38 39 40 36 31 26 26 9 6 4 4 4 4 3 4 4 4 4 4 5 9 6 2 3 2 2 3 3 4 3 4 2 2 2 6 13 19 22 22 20 18 17 18 19 19 20 20 19 17 16 14 12 10
32 27 35 37 36 28 25 15 6 5 4 3 4 7 7 7 4 3 5 4 5 6 2 2 3 2 3 3 3 4 4 1 1 2 3 7 12 20 23 22 21 19 20 21 22 22 21 21 19 18 16 15 13 11
28 35 37 34 32 25 19 7 5 4 4 3 3 5 4 8 6 4 4 5 4 1 2 1 2 3 3 4 3 3 6 5 5 4 4 7 13 19 22 22 20 19 21 22 23 23 23 21 20 18 17 16 14 12
26 25 32 35 28 18 5 3 4 3 3 4 6 8 5 4 6 4 3 4 4 4 1 1 2 3 2 4 4 4 3 5 5 7 7 9 14 20 23 21 19 20 22 23 24 24 22 21 19 18 17 17 13 12
30 28 28 30 17 5 4 3 4 4 3 3 4 4 3 1 4 4 2 2 3 2 3 3 3 2 2 4 4 4 4 5 7 5 7 12 18 22 24 22 21 22 23 24 24 24 23 23 21 20 18 16 14 13
21 23 23 21 14 6 4 3 4 4 4 3 4 3 2 2 2 2 2 4 3 3 4 5 5 7 10 10 7 6 5 5 5 4 5 12 19 24 25 23 22 23 25 27 26 26 26 24 22 21 19 17 14 12
17 16 13 10 5 4 5 4 4 5 2 2 2 1 1 2 3 3 4 3 3 1 2 5 8 10 9 7 8 8 8 7 9 9 9 10 15 22 25 27 25 26 26 27 27 27 28 24 20 21 19 15 15 12
15 9 6 5 5 4 3 4 2 2 2 4 3 2 2 2 3 4 3 3 1 2 6 9 10 11 11 9 8 9 10 10 10 11 10 10 12 17 20 24 26 26 26 26 26 25 25 25 24 21 18 18 16 15
10 3 3 3 3 3 4 2 2 3 3 3 2 2 2 3 4 4 2 3 1 3 6 8 8 8 7 7 7 8 9 9 11 11 11 11 12 14 18 20 23 24 24 22 26 26 25 25 24 24 22 21 20 18
2 1 2 3 2 3 3 4 4 3 2 3 3 2 2 3 3 2 2 3 1 4 7 8 7 6 6 7 7 7 7 8 9 9 9 10 12 13 14 18 20 22 23 24 25 26 26 25 25 24 23 21 20 18
2 0 1 3 4 2 4 3 3 3 2 3 4 1 2 2 3 2 2 1 3 6 10 9 9 9 7 7 8 7 7 6 8 8 8 8 10 12 13 15 19 21 24 24 24 25 26 25 25 23 22 20 19 19
0 1 1 3 1 2 3 2 3 3 4 4 3 5 3 3 3 3 1 2 6 9 8 8 8 8 8 8 9 8 7 7 8 8 7 6 8 10 11 12 13 15 16 20 23 24 24 24 23 22 20 20 20 19
3 2 3 4 3 2 2 2 3 3 3 3 5 3 2 1 2 1 0 5 7 6 6 6 6 7 6 5 5 4 4 4 6 5 3 4 4 5 8 10 11 10 9 10 14 18 21 20 19 19 19 19 19 18
3 2 4 3 2 2 3 2 1 1 2 2 1 2 3 3 2 2 2 3 4 4 3 2 3 4 5 4 2 1 1 2 2 1 1 2 4 4 2 4 6 8 9 8 9 11 14 16 17 18 18 17 17 17
3 6 3 2 3 4 2 3 1 2 2 4 5 6 6 5 5 5 5 5 4 4 4 5 5 4 5 5 6 4 2 2 2 2 1 2 2 2 2 3 6 7 9 10 11 12 12 14 16 17 17 16 16 16
1 4 3 3 2 1 3 3 3 4 4 3 4 5 7 7 5 7 7 7 7 6 4 4 4 4 5 6 7 7 7 4 2 1 2 3 3 3 4 4 6 8 10 11 12 14 15 14 14 15 15 15 15 14
1 2 2 2 2 1 2 3 3 2 2 3 3 4 5 4 3 2 8 6 5 6 7 7 6 7 7 7 6 6 6 5 5 5 5 5 6 6 7 8 8 10 11 12 13 13 13 12 12 12 12 12 12 11
1 2 2 2 2 3 2 3 3 2 3 3 3 3 3 3 4 2 6 8 7 7 6 4 4 4 5 5 4 3 3 4 5 6 8 8 9 9 8 8 8 8 8 7 7 7 7 7 8 8 8 7 7 6

GFSWCAN_850_spd_135.txt.gz
Wind_Speed
21 26 28 25 23 18 18 20 17 14 13 14 15 14 13 10 4 3 3 11 11 18 14 11 13 14 13 13 9 18 8 4 8 8 7 3 2 6 4 7 8 7 7 5 5 5 5 4 7 4 4 5 3 4
26 25 28 25 24 18 20 19 16 17 17 15 14 14 13 13 7 4 3 13 18 12 14 16 17 14 9 5 15 20 2 19 7 5 2 3 3 3 7 6 3 4 3 1 4 3 6 8 10 6 4 4 3 3
21 28 28 27 26 24 23 21 16 17 17 16 15 13 13 13 8 7 12 18 24 28 21 12 12 12 11 11 13 8 5 5 4 1 3 2 3 4 4 5 6 3 2 3 5 4 7 7 8 7 5 5 3 3
22 29 30 26 25 25 25 24 17 16 17 17 15 13 13 11 11 12 12 18 16 13 8 9 8 10 9 7 6 5 13 8 9 6 3 2 2 4 2 2 2 2 9 6 4 6 6 6 6 6 5 5 3 4
23 26 28 28 26 24 24 25 22 16 17 18 16 14 13 12 13 11 15 18 16 4 10 14 15 12 12 13 14 13 11 10 9 4 2 2 3 2 2 1 4 7 4 6 2 13 2 13 8 6 5 3 2 1
18 29 32 28 26 27 22 27 24 21 16 14 18 14 13 14 16 10 5 8 19 25 17 4 8 8 10 11 11 11 9 6 4 4 4 2 1 4 3 3 4 6 6 7 6 11 8 13 7 4 7 4 3 2
16 36 32 27 27 24 28 25 23 23 19 18 19 17 16 15 15 6 5 16 20 15 8 7 6 4 8 8 8 7 5 4 3 4 2 4 5 2 1 2 11 10 9 13 15 16 11 10 6 8 7 5 4 3
27 34 33 29 27 29 29 24 22 22 20 20 18 16 13 11 8 9 19 17 13 7 5 4 4 5 5 5 5 2 3 3 3 1 3 3 5 2 2 8 14 13 13 12 12 3 11 13 11 10 7 5 4 2
36 31 30 32 33 30 30 28 24 22 21 19 17 14 12 7 4 7 13 13 10 5 4 3 7 4 8 4 5 3 1 2 2 1 3 2 3 3 4 13 16 16 13 13 11 11 13 13 12 9 8 6 5 4
36 34 34 32 30 31 29 28 26 25 23 22 15 5 4 4 21 13 5 2 4 5 4 4 8 4 11 7 3 3 2 1 2 2 4 2 2 6 6 12 16 16 11 16 16 14 13 12 11 10 9 7 7 7
35 32 32 29 31 32 30 27 27 27 23 13 4 4 14 13 5 3 3 2 3 3 3 4 10 9 6 4 3 1 2 1 3 3 2 3 3 9 11 14 15 15 15 14 10 9 11 11 12 12 10 9 9 9
35 32 31 35 33 31 30 29 29 20 7 6 13 15 6 3 2 3 2 2 1 3 4 8 11 8 5 4 4 3 2 3 1 6 2 3 4 13 17 17 16 16 16 13 10 11 11 13 13 12 12 11 11 11
36 35 38 35 33 31 31 31 24 14 28 16 6 4 4 5 3 1 4 2 4 5 6 10 6 5 5 4 4 1 4 2 6 2 3 1 11 16 17 17 17 16 15 13 12 12 14 16 15 15 17 16 13 12
36 37 35 34 30 27 29 24 20 22 7 4 3 4 2 2 2 1 3 5 5 7 14 14 6 3 4 2 2 3 1 3 3 3 3 4 14 16 17 17 18 18 19 18 18 18 18 18 18 16 14 14 14 13
40 37 34 31 30 28 26 26 10 6 4 4 3 3 2 3 5 4 4 6 5 11 8 11 5 4 3 3 2 3 3 4 4 2 3 7 14 17 18 19 19 21 22 20 17 18 18 18 18 18 18 16 15 13
41 36 33 31 30 26 28 10 7 5 4 4 4 5 4 7 6 5 6 8 7 12 7 4 3 2 2 3 3 4 3 3 2 2 5 8 13 17 20 22 22 20 20 19 18 19 19 20 20 19 19 18 16 14
36 32 34 33 27 31 16 4 5 6 4 3 3 6 8 10 7 4 4 3 9 5 3 2 3 2 3 3 4 3 2 2 3 5 5 5 10 16 19 21 21 19 20 19 19 20 21 21 21 20 20 18 17 15
33 36 38 31 25 23 9 6 4 4 5 4 4 4 6 7 7 5 3 4 4 1 3 2 1 2 3 4 2 1 2 2 4 4 3 4 8 13 18 19 20 19 19 19 20 22 23 24 22 20 19 18 17 16
34 34 37 33 20 10 4 4 4 4 5 5 7 6 5 4 5 5 4 3 3 3 2 1 0 2 1 2 3 2 1 1 2 4 4 5 8 12 17 18 19 19 19 20 22 22 22 23 19 17 17 18 16 15
35 37 32 22 15 4 4 3 3 4 3 4 5 5 4 3 3 4 4 3 2 2 3 2 2 4 4 5 5 4 3 2 3 4 2 5 9 13 18 19 19 19 18 19 20 19 18 20 19 17 17 17 16 14
28 31 30 16 7 6 4 3 4 4 6 4 5 4 3 2 3 3 3 3 2 2 3 1 4 3 8 8 6 5 4 2 2 2 2 6 9 13 16 19 19 18 18 20 21 20 21 21 20 19 19 18 17 15
22 19 17 10 4 4 4 4 4 5 3 4 5 2 2 2 3 4 3 5 4 1 1 3 5 7 7 8 9 7 8 6 8 7 6 7 8 13 15 17 18 18 19 19 20 21 21 20 18 19 19 17 17 15
16 14 9 3 3 3 2 2 2 3 2 4 2 2 2 2 1 2 3 3 1 2 2 4 8 10 10 10 9 8 8 7 5 5 8 6 7 9 12 14 16 17 17 18 18 19 19 20 20 20 17 17 16 16
7 4 3 3 3 3 2 2 2 3 2 2 2 2 2 3 4 4 3 3 3 1 3 7 7 7 6 5 4 4 6 5 5 6 7 6 6 8 10 12 14 15 16 14 16 18 19 19 21 20 19 18 19 17
2 3 2 3 2 3 3 4 3 3 2 4 2 3 3 4 3 3 2 4 3 2 5 7 6 6 6 7 5 6 10 5 4 5 6 6 6 7 8 10 12 13 15 18 19 19 19 19 20 19 19 20 19 19
2 1 1 2 3 2 4 4 5 5 3 3 4 1 4 3 3 2 3 4 4 3 6 7 8 7 6 6 8 7 7 7 4 3 4 6 5 7 7 9 9 11 13 16 17 17 18 19 20 19 19 19 19 18
1 2 2 2 1 3 2 1 2 3 4 5 3 5 4 4 3 4 4 3 2 5 6 6 7 7 8 9 7 9 9 7 6 8 8 5 5 7 7 6 8 9 14 14 16 17 17 18 18 19 18 17 18 18
0 1 2 5 3 2 2 2 4 4 3 3 3 4 2 3 3 2 1 4 5 5 6 5 5 6 7 8 7 5 6 4 2 2 2 4 4 4 5 7 9 9 9 8 9 13 15 15 16 16 16 16 16 17
1 1 3 2 2 3 3 2 3 3 2 2 2 3 3 3 2 2 2 3 4 4 4 5 5 3 5 7 8 5 3 3 4 5 3 4 4 7 5 4 4 4 5 6 6 8 10 12 13 13 13 14 14 16
2 2 2 1 3 3 3 1 1 1 2 2 4 5 5 4 3 3 3 4 5 6 5 5 6 5 6 6 8 7 4 3 3 4 6 6 4 4 5 4 4 5 5 6 7 7 7 10 12 14 15 16 14 12
1 2 3 4 2 2 1 2 1 3 3 3 4 4 6 6 4 5 5 5 5 6 5 5 5 5 4 4 5 5 5 5 3 2 0 1 4 5 6 6 6 7 7 8 9 10 11 11 11 9 9 9 10 10
2 3 2 2 3 2 2 3 3 3 3 4 3 3 5 5 3 2 6 5 5 5 5 5 4 4 5 5 5 5 5 5 4 5 5 5 7 7 8 9 9 9 9 9 9 10 9 6 6 7 7 8 8 6
2 3 3 2 3 3 2 3 5 3 2 3 3 3 3 3 4 2 5 6 5 5 4 2 1 2 3 3 3 2 3 4 5 6 7 8 8 8 8 7 6 4 3 3 2 3 3 3 3 4 4 3 2 3